<?xml version="1.0" encoding="UTF-8" standalone="no" ?>
<gpx xmlns="http://www.topografix.com/GPX/1/1" xmlns:xsi="http://www.w3.org/2001/XMLSchema-instance" xsi:schemaLocation="http://www.topografix.com/GPX/1/1 http://www.topografix.com/GPX/1/1/gpx.xsd" version="1.1" creator="VisuGPX - https://www.visugpx.com">
  <metadata>
    <name>lundi 2015 10 26</name>
    <desc><![CDATA[rando du lundi]]></desc>
  </metadata>
  <trk>
    <name><![CDATA[lundi 2015 10 26]]></name>
    <trkseg>
      <trkpt lat="48.85747" lon="2.34722">
        <ele>40.400001525879</ele>
        <time>2015-10-26T19:20:49.000Z</time>
      </trkpt>
      <trkpt lat="48.85752" lon="2.34719">
        <ele>40</ele>
        <time>2015-10-26T19:20:54.000Z</time>
      </trkpt>
      <trkpt lat="48.85753" lon="2.34718">
        <ele>39.799999237061</ele>
        <time>2015-10-26T19:20:56.000Z</time>
      </trkpt>
      <trkpt lat="48.85764" lon="2.34725">
        <ele>39.599998474121</ele>
        <time>2015-10-26T19:21:02.000Z</time>
      </trkpt>
      <trkpt lat="48.85766" lon="2.34725">
        <ele>39.599998474121</ele>
        <time>2015-10-26T19:21:03.000Z</time>
      </trkpt>
      <trkpt lat="48.85777" lon="2.34729">
        <ele>39.799999237061</ele>
        <time>2015-10-26T19:21:08.000Z</time>
      </trkpt>
      <trkpt lat="48.85794" lon="2.3473">
        <ele>41.200000762939</ele>
        <time>2015-10-26T19:21:13.000Z</time>
      </trkpt>
      <trkpt lat="48.85815" lon="2.34729">
        <ele>42.799999237061</ele>
        <time>2015-10-26T19:21:18.000Z</time>
      </trkpt>
      <trkpt lat="48.85833" lon="2.34735">
        <ele>44.599998474121</ele>
        <time>2015-10-26T19:21:22.000Z</time>
      </trkpt>
      <trkpt lat="48.85836" lon="2.34735">
        <ele>44.799999237061</ele>
        <time>2015-10-26T19:21:23.000Z</time>
      </trkpt>
      <trkpt lat="48.8585" lon="2.34739">
        <ele>46.400001525879</ele>
        <time>2015-10-26T19:21:27.000Z</time>
      </trkpt>
      <trkpt lat="48.85859" lon="2.34743">
        <ele>47</ele>
        <time>2015-10-26T19:21:32.000Z</time>
      </trkpt>
      <trkpt lat="48.85861" lon="2.34746">
        <ele>46.799999237061</ele>
        <time>2015-10-26T19:21:36.000Z</time>
      </trkpt>
      <trkpt lat="48.85871" lon="2.34758">
        <ele>47</ele>
        <time>2015-10-26T19:22:05.000Z</time>
      </trkpt>
      <trkpt lat="48.85877" lon="2.34765">
        <ele>47</ele>
        <time>2015-10-26T19:22:10.000Z</time>
      </trkpt>
      <trkpt lat="48.85878" lon="2.34767">
        <ele>47.200000762939</ele>
        <time>2015-10-26T19:22:11.000Z</time>
      </trkpt>
      <trkpt lat="48.85886" lon="2.34773">
        <ele>47.200000762939</ele>
        <time>2015-10-26T19:22:16.000Z</time>
      </trkpt>
      <trkpt lat="48.85901" lon="2.34776">
        <ele>46.799999237061</ele>
        <time>2015-10-26T19:22:21.000Z</time>
      </trkpt>
      <trkpt lat="48.85911" lon="2.3478">
        <ele>46.599998474121</ele>
        <time>2015-10-26T19:22:25.000Z</time>
      </trkpt>
      <trkpt lat="48.85925" lon="2.34786">
        <ele>46.400001525879</ele>
        <time>2015-10-26T19:22:29.000Z</time>
      </trkpt>
      <trkpt lat="48.85939" lon="2.3479">
        <ele>46</ele>
        <time>2015-10-26T19:22:33.000Z</time>
      </trkpt>
      <trkpt lat="48.8595" lon="2.34793">
        <ele>46.200000762939</ele>
        <time>2015-10-26T19:22:37.000Z</time>
      </trkpt>
      <trkpt lat="48.85962" lon="2.34799">
        <ele>46.400001525879</ele>
        <time>2015-10-26T19:22:42.000Z</time>
      </trkpt>
      <trkpt lat="48.85965" lon="2.34799">
        <ele>46.400001525879</ele>
        <time>2015-10-26T19:22:43.000Z</time>
      </trkpt>
      <trkpt lat="48.85971" lon="2.34804">
        <ele>46.799999237061</ele>
        <time>2015-10-26T19:22:47.000Z</time>
      </trkpt>
      <trkpt lat="48.85973" lon="2.34806">
        <ele>46.799999237061</ele>
        <time>2015-10-26T19:22:50.000Z</time>
      </trkpt>
      <trkpt lat="48.8598" lon="2.34809">
        <ele>47</ele>
        <time>2015-10-26T19:22:54.000Z</time>
      </trkpt>
      <trkpt lat="48.85989" lon="2.34814">
        <ele>47.200000762939</ele>
        <time>2015-10-26T19:22:58.000Z</time>
      </trkpt>
      <trkpt lat="48.85991" lon="2.34815">
        <ele>47.200000762939</ele>
        <time>2015-10-26T19:22:59.000Z</time>
      </trkpt>
      <trkpt lat="48.85996" lon="2.34817">
        <ele>47.400001525879</ele>
        <time>2015-10-26T19:23:01.000Z</time>
      </trkpt>
      <trkpt lat="48.86005" lon="2.34826">
        <ele>47.799999237061</ele>
        <time>2015-10-26T19:23:06.000Z</time>
      </trkpt>
      <trkpt lat="48.86006" lon="2.34827">
        <ele>47.799999237061</ele>
        <time>2015-10-26T19:23:07.000Z</time>
      </trkpt>
      <trkpt lat="48.86012" lon="2.34833">
        <ele>48</ele>
        <time>2015-10-26T19:23:10.000Z</time>
      </trkpt>
      <trkpt lat="48.86026" lon="2.34832">
        <ele>48</ele>
        <time>2015-10-26T19:23:15.000Z</time>
      </trkpt>
      <trkpt lat="48.86044" lon="2.3484">
        <ele>47.400001525879</ele>
        <time>2015-10-26T19:23:20.000Z</time>
      </trkpt>
      <trkpt lat="48.86062" lon="2.3485">
        <ele>47</ele>
        <time>2015-10-26T19:23:26.000Z</time>
      </trkpt>
      <trkpt lat="48.86075" lon="2.34858">
        <ele>46.799999237061</ele>
        <time>2015-10-26T19:23:30.000Z</time>
      </trkpt>
      <trkpt lat="48.86085" lon="2.34861">
        <ele>46.400001525879</ele>
        <time>2015-10-26T19:23:34.000Z</time>
      </trkpt>
      <trkpt lat="48.86101" lon="2.34871">
        <ele>46.200000762939</ele>
        <time>2015-10-26T19:23:40.000Z</time>
      </trkpt>
      <trkpt lat="48.86116" lon="2.34883">
        <ele>46.200000762939</ele>
        <time>2015-10-26T19:23:45.000Z</time>
      </trkpt>
      <trkpt lat="48.86131" lon="2.34887">
        <ele>46</ele>
        <time>2015-10-26T19:23:49.000Z</time>
      </trkpt>
      <trkpt lat="48.86132" lon="2.34889">
        <ele>46</ele>
        <time>2015-10-26T19:23:50.000Z</time>
      </trkpt>
      <trkpt lat="48.86146" lon="2.34902">
        <ele>46.200000762939</ele>
        <time>2015-10-26T19:23:56.000Z</time>
      </trkpt>
      <trkpt lat="48.86149" lon="2.34902">
        <ele>46.200000762939</ele>
        <time>2015-10-26T19:23:57.000Z</time>
      </trkpt>
      <trkpt lat="48.86158" lon="2.34905">
        <ele>46.200000762939</ele>
        <time>2015-10-26T19:24:00.000Z</time>
      </trkpt>
      <trkpt lat="48.86178" lon="2.34916">
        <ele>46.200000762939</ele>
        <time>2015-10-26T19:24:06.000Z</time>
      </trkpt>
      <trkpt lat="48.86194" lon="2.34925">
        <ele>46.200000762939</ele>
        <time>2015-10-26T19:24:11.000Z</time>
      </trkpt>
      <trkpt lat="48.86203" lon="2.3493">
        <ele>46.400001525879</ele>
        <time>2015-10-26T19:24:14.000Z</time>
      </trkpt>
      <trkpt lat="48.86214" lon="2.34934">
        <ele>46.400001525879</ele>
        <time>2015-10-26T19:24:18.000Z</time>
      </trkpt>
      <trkpt lat="48.86216" lon="2.34934">
        <ele>46.400001525879</ele>
        <time>2015-10-26T19:24:19.000Z</time>
      </trkpt>
      <trkpt lat="48.86221" lon="2.34933">
        <ele>46.400001525879</ele>
        <time>2015-10-26T19:24:21.000Z</time>
      </trkpt>
      <trkpt lat="48.86241" lon="2.34946">
        <ele>46.799999237061</ele>
        <time>2015-10-26T19:24:27.000Z</time>
      </trkpt>
      <trkpt lat="48.86258" lon="2.34954">
        <ele>47</ele>
        <time>2015-10-26T19:24:32.000Z</time>
      </trkpt>
      <trkpt lat="48.86283" lon="2.34964">
        <ele>47.400001525879</ele>
        <time>2015-10-26T19:24:42.000Z</time>
      </trkpt>
      <trkpt lat="48.86295" lon="2.34972">
        <ele>48</ele>
        <time>2015-10-26T19:24:46.000Z</time>
      </trkpt>
      <trkpt lat="48.86304" lon="2.34976">
        <ele>48.200000762939</ele>
        <time>2015-10-26T19:24:50.000Z</time>
      </trkpt>
      <trkpt lat="48.86315" lon="2.34978">
        <ele>48.599998474121</ele>
        <time>2015-10-26T19:24:54.000Z</time>
      </trkpt>
      <trkpt lat="48.86327" lon="2.34984">
        <ele>49</ele>
        <time>2015-10-26T19:24:58.000Z</time>
      </trkpt>
      <trkpt lat="48.8634" lon="2.34994">
        <ele>49.599998474121</ele>
        <time>2015-10-26T19:25:03.000Z</time>
      </trkpt>
      <trkpt lat="48.86344" lon="2.35002">
        <ele>49.599998474121</ele>
        <time>2015-10-26T19:25:07.000Z</time>
      </trkpt>
      <trkpt lat="48.86344" lon="2.35005">
        <ele>49.599998474121</ele>
        <time>2015-10-26T19:25:09.000Z</time>
      </trkpt>
      <trkpt lat="48.86342" lon="2.35009">
        <ele>49.400001525879</ele>
        <time>2015-10-26T19:25:18.000Z</time>
      </trkpt>
      <trkpt lat="48.86343" lon="2.35008">
        <ele>49.400001525879</ele>
        <time>2015-10-26T19:25:23.000Z</time>
      </trkpt>
      <trkpt lat="48.8636" lon="2.35008">
        <ele>49.599998474121</ele>
        <time>2015-10-26T19:25:31.000Z</time>
      </trkpt>
      <trkpt lat="48.86374" lon="2.35009">
        <ele>49.400001525879</ele>
        <time>2015-10-26T19:25:37.000Z</time>
      </trkpt>
      <trkpt lat="48.86387" lon="2.35011">
        <ele>49</ele>
        <time>2015-10-26T19:25:43.000Z</time>
      </trkpt>
      <trkpt lat="48.8639" lon="2.3501">
        <ele>48.799999237061</ele>
        <time>2015-10-26T19:25:46.000Z</time>
      </trkpt>
      <trkpt lat="48.86391" lon="2.35008">
        <ele>49</ele>
        <time>2015-10-26T19:25:47.000Z</time>
      </trkpt>
      <trkpt lat="48.864" lon="2.35008">
        <ele>48.599998474121</ele>
        <time>2015-10-26T19:25:51.000Z</time>
      </trkpt>
      <trkpt lat="48.86402" lon="2.35009">
        <ele>48.599998474121</ele>
        <time>2015-10-26T19:25:52.000Z</time>
      </trkpt>
      <trkpt lat="48.86415" lon="2.35026">
        <ele>47.799999237061</ele>
        <time>2015-10-26T19:25:59.000Z</time>
      </trkpt>
      <trkpt lat="48.86416" lon="2.3504">
        <ele>47.599998474121</ele>
        <time>2015-10-26T19:26:03.000Z</time>
      </trkpt>
      <trkpt lat="48.86417" lon="2.35044">
        <ele>47.400001525879</ele>
        <time>2015-10-26T19:26:06.000Z</time>
      </trkpt>
      <trkpt lat="48.86417" lon="2.35045">
        <ele>47.400001525879</ele>
        <time>2015-10-26T19:26:07.000Z</time>
      </trkpt>
      <trkpt lat="48.8642" lon="2.35054">
        <ele>47</ele>
        <time>2015-10-26T19:26:09.000Z</time>
      </trkpt>
      <trkpt lat="48.86423" lon="2.35075">
        <ele>46.599998474121</ele>
        <time>2015-10-26T19:26:13.000Z</time>
      </trkpt>
      <trkpt lat="48.86428" lon="2.35096">
        <ele>46.400001525879</ele>
        <time>2015-10-26T19:26:18.000Z</time>
      </trkpt>
      <trkpt lat="48.8643" lon="2.351">
        <ele>46.400001525879</ele>
        <time>2015-10-26T19:26:19.000Z</time>
      </trkpt>
      <trkpt lat="48.86445" lon="2.35098">
        <ele>46</ele>
        <time>2015-10-26T19:26:23.000Z</time>
      </trkpt>
      <trkpt lat="48.86468" lon="2.3511">
        <ele>45.599998474121</ele>
        <time>2015-10-26T19:26:29.000Z</time>
      </trkpt>
      <trkpt lat="48.86481" lon="2.35115">
        <ele>45.599998474121</ele>
        <time>2015-10-26T19:26:32.000Z</time>
      </trkpt>
      <trkpt lat="48.86489" lon="2.35122">
        <ele>45.599998474121</ele>
        <time>2015-10-26T19:26:35.000Z</time>
      </trkpt>
      <trkpt lat="48.86509" lon="2.35135">
        <ele>45.400001525879</ele>
        <time>2015-10-26T19:26:40.000Z</time>
      </trkpt>
      <trkpt lat="48.86512" lon="2.35141">
        <ele>45.200000762939</ele>
        <time>2015-10-26T19:26:41.000Z</time>
      </trkpt>
      <trkpt lat="48.8652" lon="2.35148">
        <ele>45.200000762939</ele>
        <time>2015-10-26T19:26:43.000Z</time>
      </trkpt>
      <trkpt lat="48.86536" lon="2.35154">
        <ele>45.799999237061</ele>
        <time>2015-10-26T19:26:47.000Z</time>
      </trkpt>
      <trkpt lat="48.8654" lon="2.35156">
        <ele>46</ele>
        <time>2015-10-26T19:26:48.000Z</time>
      </trkpt>
      <trkpt lat="48.86544" lon="2.35157">
        <ele>46</ele>
        <time>2015-10-26T19:26:49.000Z</time>
      </trkpt>
      <trkpt lat="48.86563" lon="2.35165">
        <ele>47</ele>
        <time>2015-10-26T19:26:54.000Z</time>
      </trkpt>
      <trkpt lat="48.86568" lon="2.35168">
        <ele>47.200000762939</ele>
        <time>2015-10-26T19:26:57.000Z</time>
      </trkpt>
      <trkpt lat="48.86573" lon="2.35158">
        <ele>47.400001525879</ele>
        <time>2015-10-26T19:27:01.000Z</time>
      </trkpt>
      <trkpt lat="48.86577" lon="2.35141">
        <ele>47.799999237061</ele>
        <time>2015-10-26T19:27:05.000Z</time>
      </trkpt>
      <trkpt lat="48.86577" lon="2.35139">
        <ele>47.799999237061</ele>
        <time>2015-10-26T19:27:06.000Z</time>
      </trkpt>
      <trkpt lat="48.86576" lon="2.35133">
        <ele>47.799999237061</ele>
        <time>2015-10-26T19:27:08.000Z</time>
      </trkpt>
      <trkpt lat="48.86593" lon="2.35094">
        <ele>47.200000762939</ele>
        <time>2015-10-26T19:27:26.000Z</time>
      </trkpt>
      <trkpt lat="48.86594" lon="2.35094">
        <ele>47.200000762939</ele>
        <time>2015-10-26T19:27:27.000Z</time>
      </trkpt>
      <trkpt lat="48.8662" lon="2.35101">
        <ele>47.200000762939</ele>
        <time>2015-10-26T19:27:36.000Z</time>
      </trkpt>
      <trkpt lat="48.86634" lon="2.35111">
        <ele>47</ele>
        <time>2015-10-26T19:27:40.000Z</time>
      </trkpt>
      <trkpt lat="48.86644" lon="2.35119">
        <ele>47</ele>
        <time>2015-10-26T19:27:42.000Z</time>
      </trkpt>
      <trkpt lat="48.86652" lon="2.35122">
        <ele>47</ele>
        <time>2015-10-26T19:27:45.000Z</time>
      </trkpt>
      <trkpt lat="48.86667" lon="2.35125">
        <ele>47.200000762939</ele>
        <time>2015-10-26T19:27:49.000Z</time>
      </trkpt>
      <trkpt lat="48.86672" lon="2.35127">
        <ele>47.200000762939</ele>
        <time>2015-10-26T19:27:50.000Z</time>
      </trkpt>
      <trkpt lat="48.8668" lon="2.35132">
        <ele>47.200000762939</ele>
        <time>2015-10-26T19:27:52.000Z</time>
      </trkpt>
      <trkpt lat="48.86694" lon="2.35141">
        <ele>47.400001525879</ele>
        <time>2015-10-26T19:27:56.000Z</time>
      </trkpt>
      <trkpt lat="48.86715" lon="2.35153">
        <ele>47.799999237061</ele>
        <time>2015-10-26T19:28:01.000Z</time>
      </trkpt>
      <trkpt lat="48.86719" lon="2.35157">
        <ele>47.799999237061</ele>
        <time>2015-10-26T19:28:02.000Z</time>
      </trkpt>
      <trkpt lat="48.86735" lon="2.3516">
        <ele>48.200000762939</ele>
        <time>2015-10-26T19:28:06.000Z</time>
      </trkpt>
      <trkpt lat="48.86741" lon="2.35161">
        <ele>48.200000762939</ele>
        <time>2015-10-26T19:28:08.000Z</time>
      </trkpt>
      <trkpt lat="48.86755" lon="2.35164">
        <ele>48.599998474121</ele>
        <time>2015-10-26T19:28:13.000Z</time>
      </trkpt>
      <trkpt lat="48.8677" lon="2.3517">
        <ele>48.799999237061</ele>
        <time>2015-10-26T19:28:18.000Z</time>
      </trkpt>
      <trkpt lat="48.86786" lon="2.35177">
        <ele>48.799999237061</ele>
        <time>2015-10-26T19:28:23.000Z</time>
      </trkpt>
      <trkpt lat="48.86801" lon="2.35185">
        <ele>48.799999237061</ele>
        <time>2015-10-26T19:28:26.000Z</time>
      </trkpt>
      <trkpt lat="48.8682" lon="2.35193">
        <ele>48.599998474121</ele>
        <time>2015-10-26T19:28:31.000Z</time>
      </trkpt>
      <trkpt lat="48.86828" lon="2.35196">
        <ele>48.599998474121</ele>
        <time>2015-10-26T19:28:33.000Z</time>
      </trkpt>
      <trkpt lat="48.86842" lon="2.35201">
        <ele>48.599998474121</ele>
        <time>2015-10-26T19:28:37.000Z</time>
      </trkpt>
      <trkpt lat="48.86863" lon="2.35214">
        <ele>48.400001525879</ele>
        <time>2015-10-26T19:28:43.000Z</time>
      </trkpt>
      <trkpt lat="48.86875" lon="2.35215">
        <ele>48.200000762939</ele>
        <time>2015-10-26T19:28:47.000Z</time>
      </trkpt>
      <trkpt lat="48.86879" lon="2.35211">
        <ele>48.200000762939</ele>
        <time>2015-10-26T19:28:48.000Z</time>
      </trkpt>
      <trkpt lat="48.86884" lon="2.35192">
        <ele>48.400001525879</ele>
        <time>2015-10-26T19:28:53.000Z</time>
      </trkpt>
      <trkpt lat="48.86885" lon="2.35187">
        <ele>48.599998474121</ele>
        <time>2015-10-26T19:28:54.000Z</time>
      </trkpt>
      <trkpt lat="48.86884" lon="2.35183">
        <ele>48.599998474121</ele>
        <time>2015-10-26T19:28:55.000Z</time>
      </trkpt>
      <trkpt lat="48.86885" lon="2.3517">
        <ele>49.200000762939</ele>
        <time>2015-10-26T19:28:58.000Z</time>
      </trkpt>
      <trkpt lat="48.86883" lon="2.35166">
        <ele>49.200000762939</ele>
        <time>2015-10-26T19:28:59.000Z</time>
      </trkpt>
      <trkpt lat="48.86875" lon="2.35142">
        <ele>49.400001525879</ele>
        <time>2015-10-26T19:29:04.000Z</time>
      </trkpt>
      <trkpt lat="48.86866" lon="2.35112">
        <ele>49.799999237061</ele>
        <time>2015-10-26T19:29:10.000Z</time>
      </trkpt>
      <trkpt lat="48.86862" lon="2.35104">
        <ele>49.799999237061</ele>
        <time>2015-10-26T19:29:12.000Z</time>
      </trkpt>
      <trkpt lat="48.86855" lon="2.35077">
        <ele>50</ele>
        <time>2015-10-26T19:29:18.000Z</time>
      </trkpt>
      <trkpt lat="48.86849" lon="2.35057">
        <ele>50.200000762939</ele>
        <time>2015-10-26T19:29:22.000Z</time>
      </trkpt>
      <trkpt lat="48.8684" lon="2.35042">
        <ele>50.200000762939</ele>
        <time>2015-10-26T19:29:27.000Z</time>
      </trkpt>
      <trkpt lat="48.86835" lon="2.35031">
        <ele>50.200000762939</ele>
        <time>2015-10-26T19:29:31.000Z</time>
      </trkpt>
      <trkpt lat="48.86828" lon="2.35019">
        <ele>50.200000762939</ele>
        <time>2015-10-26T19:29:35.000Z</time>
      </trkpt>
      <trkpt lat="48.86827" lon="2.35008">
        <ele>50.400001525879</ele>
        <time>2015-10-26T19:29:38.000Z</time>
      </trkpt>
      <trkpt lat="48.86838" lon="2.34996">
        <ele>51.200000762939</ele>
        <time>2015-10-26T19:29:42.000Z</time>
      </trkpt>
      <trkpt lat="48.86844" lon="2.3499">
        <ele>51.400001525879</ele>
        <time>2015-10-26T19:29:44.000Z</time>
      </trkpt>
      <trkpt lat="48.86839" lon="2.34968">
        <ele>51.200000762939</ele>
        <time>2015-10-26T19:29:48.000Z</time>
      </trkpt>
      <trkpt lat="48.86836" lon="2.34945">
        <ele>51.200000762939</ele>
        <time>2015-10-26T19:29:53.000Z</time>
      </trkpt>
      <trkpt lat="48.8683" lon="2.34928">
        <ele>51</ele>
        <time>2015-10-26T19:29:56.000Z</time>
      </trkpt>
      <trkpt lat="48.86828" lon="2.34923">
        <ele>50.799999237061</ele>
        <time>2015-10-26T19:29:57.000Z</time>
      </trkpt>
      <trkpt lat="48.86821" lon="2.34894">
        <ele>50.599998474121</ele>
        <time>2015-10-26T19:30:02.000Z</time>
      </trkpt>
      <trkpt lat="48.86814" lon="2.34879">
        <ele>50.400001525879</ele>
        <time>2015-10-26T19:30:05.000Z</time>
      </trkpt>
      <trkpt lat="48.8681" lon="2.34869">
        <ele>50.200000762939</ele>
        <time>2015-10-26T19:30:07.000Z</time>
      </trkpt>
      <trkpt lat="48.86803" lon="2.34842">
        <ele>50</ele>
        <time>2015-10-26T19:30:11.000Z</time>
      </trkpt>
      <trkpt lat="48.86802" lon="2.34836">
        <ele>50</ele>
        <time>2015-10-26T19:30:12.000Z</time>
      </trkpt>
      <trkpt lat="48.86794" lon="2.348">
        <ele>49.599998474121</ele>
        <time>2015-10-26T19:30:18.000Z</time>
      </trkpt>
      <trkpt lat="48.86792" lon="2.34794">
        <ele>49.400001525879</ele>
        <time>2015-10-26T19:30:19.000Z</time>
      </trkpt>
      <trkpt lat="48.86787" lon="2.3477">
        <ele>49</ele>
        <time>2015-10-26T19:30:24.000Z</time>
      </trkpt>
      <trkpt lat="48.8678" lon="2.34745">
        <ele>48.599998474121</ele>
        <time>2015-10-26T19:30:29.000Z</time>
      </trkpt>
      <trkpt lat="48.86775" lon="2.34715">
        <ele>49</ele>
        <time>2015-10-26T19:30:34.000Z</time>
      </trkpt>
      <trkpt lat="48.86767" lon="2.34693">
        <ele>49.200000762939</ele>
        <time>2015-10-26T19:30:38.000Z</time>
      </trkpt>
      <trkpt lat="48.86757" lon="2.34664">
        <ele>49.599998474121</ele>
        <time>2015-10-26T19:30:44.000Z</time>
      </trkpt>
      <trkpt lat="48.86753" lon="2.34649">
        <ele>49.400001525879</ele>
        <time>2015-10-26T19:30:48.000Z</time>
      </trkpt>
      <trkpt lat="48.86755" lon="2.34633">
        <ele>49.400001525879</ele>
        <time>2015-10-26T19:30:52.000Z</time>
      </trkpt>
      <trkpt lat="48.8676" lon="2.34612">
        <ele>49.599998474121</ele>
        <time>2015-10-26T19:30:56.000Z</time>
      </trkpt>
      <trkpt lat="48.86765" lon="2.34591">
        <ele>49.799999237061</ele>
        <time>2015-10-26T19:31:00.000Z</time>
      </trkpt>
      <trkpt lat="48.86769" lon="2.34575">
        <ele>50</ele>
        <time>2015-10-26T19:31:04.000Z</time>
      </trkpt>
      <trkpt lat="48.86778" lon="2.34549">
        <ele>50.599998474121</ele>
        <time>2015-10-26T19:31:10.000Z</time>
      </trkpt>
      <trkpt lat="48.86782" lon="2.34542">
        <ele>50.799999237061</ele>
        <time>2015-10-26T19:31:12.000Z</time>
      </trkpt>
      <trkpt lat="48.86796" lon="2.34543">
        <ele>50.400001525879</ele>
        <time>2015-10-26T19:31:16.000Z</time>
      </trkpt>
      <trkpt lat="48.86816" lon="2.34544">
        <ele>49.799999237061</ele>
        <time>2015-10-26T19:31:20.000Z</time>
      </trkpt>
      <trkpt lat="48.86827" lon="2.34544">
        <ele>49.400001525879</ele>
        <time>2015-10-26T19:31:22.000Z</time>
      </trkpt>
      <trkpt lat="48.8684" lon="2.34547">
        <ele>48.599998474121</ele>
        <time>2015-10-26T19:31:24.000Z</time>
      </trkpt>
      <trkpt lat="48.86857" lon="2.34548">
        <ele>47.599998474121</ele>
        <time>2015-10-26T19:31:27.000Z</time>
      </trkpt>
      <trkpt lat="48.86871" lon="2.34558">
        <ele>48</ele>
        <time>2015-10-26T19:31:31.000Z</time>
      </trkpt>
      <trkpt lat="48.86893" lon="2.34567">
        <ele>48.799999237061</ele>
        <time>2015-10-26T19:31:36.000Z</time>
      </trkpt>
      <trkpt lat="48.86897" lon="2.34567">
        <ele>48.799999237061</ele>
        <time>2015-10-26T19:31:37.000Z</time>
      </trkpt>
      <trkpt lat="48.86911" lon="2.34567">
        <ele>49.200000762939</ele>
        <time>2015-10-26T19:31:41.000Z</time>
      </trkpt>
      <trkpt lat="48.86916" lon="2.34569">
        <ele>49.200000762939</ele>
        <time>2015-10-26T19:31:42.000Z</time>
      </trkpt>
      <trkpt lat="48.86923" lon="2.34569">
        <ele>49.400001525879</ele>
        <time>2015-10-26T19:31:45.000Z</time>
      </trkpt>
      <trkpt lat="48.86926" lon="2.34561">
        <ele>49.400001525879</ele>
        <time>2015-10-26T19:31:46.000Z</time>
      </trkpt>
      <trkpt lat="48.86937" lon="2.3453">
        <ele>49.400001525879</ele>
        <time>2015-10-26T19:31:52.000Z</time>
      </trkpt>
      <trkpt lat="48.86939" lon="2.34517">
        <ele>49.200000762939</ele>
        <time>2015-10-26T19:31:54.000Z</time>
      </trkpt>
      <trkpt lat="48.86952" lon="2.34508">
        <ele>49.200000762939</ele>
        <time>2015-10-26T19:31:58.000Z</time>
      </trkpt>
      <trkpt lat="48.86956" lon="2.34509">
        <ele>49</ele>
        <time>2015-10-26T19:31:59.000Z</time>
      </trkpt>
      <trkpt lat="48.86975" lon="2.34518">
        <ele>49</ele>
        <time>2015-10-26T19:32:03.000Z</time>
      </trkpt>
      <trkpt lat="48.86979" lon="2.34519">
        <ele>49</ele>
        <time>2015-10-26T19:32:04.000Z</time>
      </trkpt>
      <trkpt lat="48.86991" lon="2.34527">
        <ele>49</ele>
        <time>2015-10-26T19:32:07.000Z</time>
      </trkpt>
      <trkpt lat="48.87004" lon="2.34535">
        <ele>49.200000762939</ele>
        <time>2015-10-26T19:32:11.000Z</time>
      </trkpt>
      <trkpt lat="48.87019" lon="2.34551">
        <ele>49.400001525879</ele>
        <time>2015-10-26T19:32:16.000Z</time>
      </trkpt>
      <trkpt lat="48.87032" lon="2.34559">
        <ele>49.799999237061</ele>
        <time>2015-10-26T19:32:20.000Z</time>
      </trkpt>
      <trkpt lat="48.87035" lon="2.3456">
        <ele>50</ele>
        <time>2015-10-26T19:32:22.000Z</time>
      </trkpt>
      <trkpt lat="48.87043" lon="2.34545">
        <ele>49.799999237061</ele>
        <time>2015-10-26T19:32:26.000Z</time>
      </trkpt>
      <trkpt lat="48.87044" lon="2.34543">
        <ele>49.799999237061</ele>
        <time>2015-10-26T19:32:27.000Z</time>
      </trkpt>
      <trkpt lat="48.8705" lon="2.34516">
        <ele>49.400001525879</ele>
        <time>2015-10-26T19:32:31.000Z</time>
      </trkpt>
      <trkpt lat="48.87056" lon="2.3449">
        <ele>49.200000762939</ele>
        <time>2015-10-26T19:32:35.000Z</time>
      </trkpt>
      <trkpt lat="48.87059" lon="2.34473">
        <ele>49</ele>
        <time>2015-10-26T19:32:37.000Z</time>
      </trkpt>
      <trkpt lat="48.87068" lon="2.34439">
        <ele>48.400001525879</ele>
        <time>2015-10-26T19:32:42.000Z</time>
      </trkpt>
      <trkpt lat="48.87073" lon="2.34409">
        <ele>47.599998474121</ele>
        <time>2015-10-26T19:32:46.000Z</time>
      </trkpt>
      <trkpt lat="48.87079" lon="2.34375">
        <ele>48</ele>
        <time>2015-10-26T19:32:51.000Z</time>
      </trkpt>
      <trkpt lat="48.87084" lon="2.34348">
        <ele>48</ele>
        <time>2015-10-26T19:32:55.000Z</time>
      </trkpt>
      <trkpt lat="48.87086" lon="2.34341">
        <ele>48</ele>
        <time>2015-10-26T19:32:56.000Z</time>
      </trkpt>
      <trkpt lat="48.87093" lon="2.34302">
        <ele>47.799999237061</ele>
        <time>2015-10-26T19:33:02.000Z</time>
      </trkpt>
      <trkpt lat="48.87095" lon="2.34296">
        <ele>47.799999237061</ele>
        <time>2015-10-26T19:33:03.000Z</time>
      </trkpt>
      <trkpt lat="48.87101" lon="2.34283">
        <ele>48</ele>
        <time>2015-10-26T19:33:07.000Z</time>
      </trkpt>
      <trkpt lat="48.87116" lon="2.34285">
        <ele>47.799999237061</ele>
        <time>2015-10-26T19:33:12.000Z</time>
      </trkpt>
      <trkpt lat="48.87129" lon="2.34287">
        <ele>47.799999237061</ele>
        <time>2015-10-26T19:33:16.000Z</time>
      </trkpt>
      <trkpt lat="48.87137" lon="2.34299">
        <ele>47.599998474121</ele>
        <time>2015-10-26T19:33:20.000Z</time>
      </trkpt>
      <trkpt lat="48.87137" lon="2.34306">
        <ele>47.599998474121</ele>
        <time>2015-10-26T19:33:25.000Z</time>
      </trkpt>
      <trkpt lat="48.87137" lon="2.34312">
        <ele>47.599998474121</ele>
        <time>2015-10-26T19:33:38.000Z</time>
      </trkpt>
      <trkpt lat="48.87146" lon="2.34315">
        <ele>47.599998474121</ele>
        <time>2015-10-26T19:33:43.000Z</time>
      </trkpt>
      <trkpt lat="48.8716" lon="2.34317">
        <ele>47.400001525879</ele>
        <time>2015-10-26T19:33:48.000Z</time>
      </trkpt>
      <trkpt lat="48.87181" lon="2.34319">
        <ele>47.200000762939</ele>
        <time>2015-10-26T19:33:53.000Z</time>
      </trkpt>
      <trkpt lat="48.872" lon="2.34321">
        <ele>47</ele>
        <time>2015-10-26T19:33:57.000Z</time>
      </trkpt>
      <trkpt lat="48.87205" lon="2.34322">
        <ele>47</ele>
        <time>2015-10-26T19:33:58.000Z</time>
      </trkpt>
      <trkpt lat="48.8722" lon="2.34328">
        <ele>46.799999237061</ele>
        <time>2015-10-26T19:34:01.000Z</time>
      </trkpt>
      <trkpt lat="48.87227" lon="2.3433">
        <ele>46.599998474121</ele>
        <time>2015-10-26T19:34:03.000Z</time>
      </trkpt>
      <trkpt lat="48.87232" lon="2.34328">
        <ele>46.599998474121</ele>
        <time>2015-10-26T19:34:05.000Z</time>
      </trkpt>
      <trkpt lat="48.87244" lon="2.34327">
        <ele>46.400001525879</ele>
        <time>2015-10-26T19:34:09.000Z</time>
      </trkpt>
      <trkpt lat="48.87261" lon="2.34325">
        <ele>46.200000762939</ele>
        <time>2015-10-26T19:34:14.000Z</time>
      </trkpt>
      <trkpt lat="48.87278" lon="2.34318">
        <ele>46.400001525879</ele>
        <time>2015-10-26T19:34:18.000Z</time>
      </trkpt>
      <trkpt lat="48.87295" lon="2.3431">
        <ele>46.400001525879</ele>
        <time>2015-10-26T19:34:23.000Z</time>
      </trkpt>
      <trkpt lat="48.873" lon="2.3431">
        <ele>46.599998474121</ele>
        <time>2015-10-26T19:34:25.000Z</time>
      </trkpt>
      <trkpt lat="48.87304" lon="2.34276">
        <ele>47.200000762939</ele>
        <time>2015-10-26T19:34:31.000Z</time>
      </trkpt>
      <trkpt lat="48.87304" lon="2.34253">
        <ele>47.599998474121</ele>
        <time>2015-10-26T19:34:35.000Z</time>
      </trkpt>
      <trkpt lat="48.87308" lon="2.34232">
        <ele>47.400001525879</ele>
        <time>2015-10-26T19:34:38.000Z</time>
      </trkpt>
      <trkpt lat="48.87311" lon="2.34198">
        <ele>47</ele>
        <time>2015-10-26T19:34:43.000Z</time>
      </trkpt>
      <trkpt lat="48.87312" lon="2.34184">
        <ele>47</ele>
        <time>2015-10-26T19:34:45.000Z</time>
      </trkpt>
      <trkpt lat="48.87318" lon="2.34167">
        <ele>47</ele>
        <time>2015-10-26T19:34:48.000Z</time>
      </trkpt>
      <trkpt lat="48.8732" lon="2.34142">
        <ele>47.200000762939</ele>
        <time>2015-10-26T19:34:52.000Z</time>
      </trkpt>
      <trkpt lat="48.87321" lon="2.34126">
        <ele>47.400001525879</ele>
        <time>2015-10-26T19:34:55.000Z</time>
      </trkpt>
      <trkpt lat="48.87316" lon="2.34102">
        <ele>47.200000762939</ele>
        <time>2015-10-26T19:35:00.000Z</time>
      </trkpt>
      <trkpt lat="48.87303" lon="2.34098">
        <ele>47.400001525879</ele>
        <time>2015-10-26T19:35:03.000Z</time>
      </trkpt>
      <trkpt lat="48.87301" lon="2.34096">
        <ele>47.599998474121</ele>
        <time>2015-10-26T19:35:04.000Z</time>
      </trkpt>
      <trkpt lat="48.87297" lon="2.34095">
        <ele>47.599998474121</ele>
        <time>2015-10-26T19:35:05.000Z</time>
      </trkpt>
      <trkpt lat="48.87288" lon="2.34083">
        <ele>47.599998474121</ele>
        <time>2015-10-26T19:35:09.000Z</time>
      </trkpt>
      <trkpt lat="48.87289" lon="2.34059">
        <ele>47.400001525879</ele>
        <time>2015-10-26T19:35:13.000Z</time>
      </trkpt>
      <trkpt lat="48.87292" lon="2.34039">
        <ele>47</ele>
        <time>2015-10-26T19:35:16.000Z</time>
      </trkpt>
      <trkpt lat="48.873" lon="2.34008">
        <ele>46.599998474121</ele>
        <time>2015-10-26T19:35:21.000Z</time>
      </trkpt>
      <trkpt lat="48.87307" lon="2.33983">
        <ele>47.200000762939</ele>
        <time>2015-10-26T19:35:25.000Z</time>
      </trkpt>
      <trkpt lat="48.87315" lon="2.33958">
        <ele>48.400001525879</ele>
        <time>2015-10-26T19:35:29.000Z</time>
      </trkpt>
      <trkpt lat="48.87317" lon="2.33947">
        <ele>48.599998474121</ele>
        <time>2015-10-26T19:35:31.000Z</time>
      </trkpt>
      <trkpt lat="48.87318" lon="2.33936">
        <ele>48.799999237061</ele>
        <time>2015-10-26T19:35:33.000Z</time>
      </trkpt>
      <trkpt lat="48.87325" lon="2.33919">
        <ele>49</ele>
        <time>2015-10-26T19:35:36.000Z</time>
      </trkpt>
      <trkpt lat="48.87326" lon="2.33893">
        <ele>49</ele>
        <time>2015-10-26T19:35:42.000Z</time>
      </trkpt>
      <trkpt lat="48.8733" lon="2.33872">
        <ele>49</ele>
        <time>2015-10-26T19:35:46.000Z</time>
      </trkpt>
      <trkpt lat="48.87334" lon="2.33844">
        <ele>48.799999237061</ele>
        <time>2015-10-26T19:35:51.000Z</time>
      </trkpt>
      <trkpt lat="48.87341" lon="2.33816">
        <ele>49</ele>
        <time>2015-10-26T19:35:56.000Z</time>
      </trkpt>
      <trkpt lat="48.87345" lon="2.33792">
        <ele>49.599998474121</ele>
        <time>2015-10-26T19:36:00.000Z</time>
      </trkpt>
      <trkpt lat="48.87334" lon="2.33778">
        <ele>50.400001525879</ele>
        <time>2015-10-26T19:36:05.000Z</time>
      </trkpt>
      <trkpt lat="48.87326" lon="2.33777">
        <ele>50.599998474121</ele>
        <time>2015-10-26T19:36:06.000Z</time>
      </trkpt>
      <trkpt lat="48.87305" lon="2.33767">
        <ele>51.599998474121</ele>
        <time>2015-10-26T19:36:12.000Z</time>
      </trkpt>
      <trkpt lat="48.87304" lon="2.33766">
        <ele>51.599998474121</ele>
        <time>2015-10-26T19:36:13.000Z</time>
      </trkpt>
      <trkpt lat="48.87306" lon="2.33748">
        <ele>52.200000762939</ele>
        <time>2015-10-26T19:36:17.000Z</time>
      </trkpt>
      <trkpt lat="48.87307" lon="2.33744">
        <ele>52.200000762939</ele>
        <time>2015-10-26T19:36:18.000Z</time>
      </trkpt>
      <trkpt lat="48.87307" lon="2.33738">
        <ele>52</ele>
        <time>2015-10-26T19:36:19.000Z</time>
      </trkpt>
      <trkpt lat="48.87315" lon="2.33709">
        <ele>51.599998474121</ele>
        <time>2015-10-26T19:36:24.000Z</time>
      </trkpt>
      <trkpt lat="48.87318" lon="2.3369">
        <ele>52.200000762939</ele>
        <time>2015-10-26T19:36:27.000Z</time>
      </trkpt>
      <trkpt lat="48.87321" lon="2.33675">
        <ele>52.799999237061</ele>
        <time>2015-10-26T19:36:30.000Z</time>
      </trkpt>
      <trkpt lat="48.87331" lon="2.33645">
        <ele>53.200000762939</ele>
        <time>2015-10-26T19:36:35.000Z</time>
      </trkpt>
      <trkpt lat="48.87334" lon="2.3364">
        <ele>53.200000762939</ele>
        <time>2015-10-26T19:36:36.000Z</time>
      </trkpt>
      <trkpt lat="48.87345" lon="2.33626">
        <ele>53.599998474121</ele>
        <time>2015-10-26T19:36:40.000Z</time>
      </trkpt>
      <trkpt lat="48.87364" lon="2.33631">
        <ele>53.400001525879</ele>
        <time>2015-10-26T19:36:44.000Z</time>
      </trkpt>
      <trkpt lat="48.87376" lon="2.33635">
        <ele>52.400001525879</ele>
        <time>2015-10-26T19:36:47.000Z</time>
      </trkpt>
      <trkpt lat="48.87384" lon="2.33614">
        <ele>51.799999237061</ele>
        <time>2015-10-26T19:36:51.000Z</time>
      </trkpt>
      <trkpt lat="48.8738" lon="2.33599">
        <ele>52.200000762939</ele>
        <time>2015-10-26T19:36:53.000Z</time>
      </trkpt>
      <trkpt lat="48.8737" lon="2.33566">
        <ele>52.599998474121</ele>
        <time>2015-10-26T19:36:58.000Z</time>
      </trkpt>
      <trkpt lat="48.87367" lon="2.33552">
        <ele>52.200000762939</ele>
        <time>2015-10-26T19:37:01.000Z</time>
      </trkpt>
      <trkpt lat="48.87372" lon="2.33538">
        <ele>51.200000762939</ele>
        <time>2015-10-26T19:37:05.000Z</time>
      </trkpt>
      <trkpt lat="48.87374" lon="2.33537">
        <ele>51</ele>
        <time>2015-10-26T19:37:06.000Z</time>
      </trkpt>
      <trkpt lat="48.87387" lon="2.33535">
        <ele>50.400001525879</ele>
        <time>2015-10-26T19:37:10.000Z</time>
      </trkpt>
      <trkpt lat="48.87406" lon="2.33532">
        <ele>49.400001525879</ele>
        <time>2015-10-26T19:37:16.000Z</time>
      </trkpt>
      <trkpt lat="48.87418" lon="2.33534">
        <ele>49</ele>
        <time>2015-10-26T19:37:19.000Z</time>
      </trkpt>
      <trkpt lat="48.8744" lon="2.33533">
        <ele>48.400001525879</ele>
        <time>2015-10-26T19:37:24.000Z</time>
      </trkpt>
      <trkpt lat="48.87443" lon="2.33533">
        <ele>48.200000762939</ele>
        <time>2015-10-26T19:37:25.000Z</time>
      </trkpt>
      <trkpt lat="48.87466" lon="2.33532">
        <ele>47</ele>
        <time>2015-10-26T19:37:28.000Z</time>
      </trkpt>
      <trkpt lat="48.8747" lon="2.33528">
        <ele>46.599998474121</ele>
        <time>2015-10-26T19:37:33.000Z</time>
      </trkpt>
      <trkpt lat="48.87494" lon="2.33528">
        <ele>46</ele>
        <time>2015-10-26T19:37:38.000Z</time>
      </trkpt>
      <trkpt lat="48.87503" lon="2.3353">
        <ele>45.799999237061</ele>
        <time>2015-10-26T19:37:40.000Z</time>
      </trkpt>
      <trkpt lat="48.87514" lon="2.33522">
        <ele>45.599998474121</ele>
        <time>2015-10-26T19:37:43.000Z</time>
      </trkpt>
      <trkpt lat="48.87515" lon="2.33513">
        <ele>45.400001525879</ele>
        <time>2015-10-26T19:37:44.000Z</time>
      </trkpt>
      <trkpt lat="48.87521" lon="2.33469">
        <ele>45.599998474121</ele>
        <time>2015-10-26T19:37:49.000Z</time>
      </trkpt>
      <trkpt lat="48.87523" lon="2.33447">
        <ele>46.200000762939</ele>
        <time>2015-10-26T19:37:52.000Z</time>
      </trkpt>
      <trkpt lat="48.87524" lon="2.33437">
        <ele>46.400001525879</ele>
        <time>2015-10-26T19:37:53.000Z</time>
      </trkpt>
      <trkpt lat="48.87526" lon="2.33396">
        <ele>47.400001525879</ele>
        <time>2015-10-26T19:37:59.000Z</time>
      </trkpt>
      <trkpt lat="48.87528" lon="2.33382">
        <ele>47.599998474121</ele>
        <time>2015-10-26T19:38:01.000Z</time>
      </trkpt>
      <trkpt lat="48.87527" lon="2.33346">
        <ele>48.400001525879</ele>
        <time>2015-10-26T19:38:06.000Z</time>
      </trkpt>
      <trkpt lat="48.87527" lon="2.33335">
        <ele>48.799999237061</ele>
        <time>2015-10-26T19:38:08.000Z</time>
      </trkpt>
      <trkpt lat="48.87529" lon="2.33301">
        <ele>47.599998474121</ele>
        <time>2015-10-26T19:38:13.000Z</time>
      </trkpt>
      <trkpt lat="48.87531" lon="2.3327">
        <ele>46.200000762939</ele>
        <time>2015-10-26T19:38:18.000Z</time>
      </trkpt>
      <trkpt lat="48.87531" lon="2.33264">
        <ele>46</ele>
        <time>2015-10-26T19:38:19.000Z</time>
      </trkpt>
      <trkpt lat="48.87529" lon="2.33227">
        <ele>46.200000762939</ele>
        <time>2015-10-26T19:38:26.000Z</time>
      </trkpt>
      <trkpt lat="48.87523" lon="2.33202">
        <ele>46.599998474121</ele>
        <time>2015-10-26T19:38:31.000Z</time>
      </trkpt>
      <trkpt lat="48.87517" lon="2.3318">
        <ele>47.200000762939</ele>
        <time>2015-10-26T19:38:35.000Z</time>
      </trkpt>
      <trkpt lat="48.87509" lon="2.33155">
        <ele>47.400001525879</ele>
        <time>2015-10-26T19:38:41.000Z</time>
      </trkpt>
      <trkpt lat="48.87507" lon="2.33151">
        <ele>47.200000762939</ele>
        <time>2015-10-26T19:38:44.000Z</time>
      </trkpt>
      <trkpt lat="48.87503" lon="2.33135">
        <ele>47</ele>
        <time>2015-10-26T19:38:49.000Z</time>
      </trkpt>
      <trkpt lat="48.87495" lon="2.33115">
        <ele>46.799999237061</ele>
        <time>2015-10-26T19:38:54.000Z</time>
      </trkpt>
      <trkpt lat="48.87486" lon="2.3309">
        <ele>46.599998474121</ele>
        <time>2015-10-26T19:38:59.000Z</time>
      </trkpt>
      <trkpt lat="48.87476" lon="2.33061">
        <ele>46.200000762939</ele>
        <time>2015-10-26T19:39:04.000Z</time>
      </trkpt>
      <trkpt lat="48.8747" lon="2.33046">
        <ele>45.799999237061</ele>
        <time>2015-10-26T19:39:07.000Z</time>
      </trkpt>
      <trkpt lat="48.87467" lon="2.33028">
        <ele>45.400001525879</ele>
        <time>2015-10-26T19:39:10.000Z</time>
      </trkpt>
      <trkpt lat="48.87468" lon="2.32993">
        <ele>45</ele>
        <time>2015-10-26T19:39:15.000Z</time>
      </trkpt>
      <trkpt lat="48.87469" lon="2.32973">
        <ele>47.400001525879</ele>
        <time>2015-10-26T19:39:18.000Z</time>
      </trkpt>
      <trkpt lat="48.8747" lon="2.32958">
        <ele>48.799999237061</ele>
        <time>2015-10-26T19:39:20.000Z</time>
      </trkpt>
      <trkpt lat="48.8747" lon="2.32951">
        <ele>49.599998474121</ele>
        <time>2015-10-26T19:39:21.000Z</time>
      </trkpt>
      <trkpt lat="48.87468" lon="2.32932">
        <ele>50.599998474121</ele>
        <time>2015-10-26T19:39:24.000Z</time>
      </trkpt>
      <trkpt lat="48.87468" lon="2.32918">
        <ele>50.599998474121</ele>
        <time>2015-10-26T19:39:26.000Z</time>
      </trkpt>
      <trkpt lat="48.87467" lon="2.32904">
        <ele>50.200000762939</ele>
        <time>2015-10-26T19:39:29.000Z</time>
      </trkpt>
      <trkpt lat="48.8747" lon="2.32879">
        <ele>48.799999237061</ele>
        <time>2015-10-26T19:39:33.000Z</time>
      </trkpt>
      <trkpt lat="48.8747" lon="2.3286">
        <ele>47.799999237061</ele>
        <time>2015-10-26T19:39:37.000Z</time>
      </trkpt>
      <trkpt lat="48.87452" lon="2.32849">
        <ele>49.400001525879</ele>
        <time>2015-10-26T19:39:43.000Z</time>
      </trkpt>
      <trkpt lat="48.87438" lon="2.3285">
        <ele>51</ele>
        <time>2015-10-26T19:39:47.000Z</time>
      </trkpt>
      <trkpt lat="48.87437" lon="2.32851">
        <ele>51</ele>
        <time>2015-10-26T19:39:48.000Z</time>
      </trkpt>
      <trkpt lat="48.87432" lon="2.32851">
        <ele>50.799999237061</ele>
        <time>2015-10-26T19:39:51.000Z</time>
      </trkpt>
      <trkpt lat="48.8742" lon="2.32851">
        <ele>50.599998474121</ele>
        <time>2015-10-26T19:39:55.000Z</time>
      </trkpt>
      <trkpt lat="48.87401" lon="2.3285">
        <ele>50</ele>
        <time>2015-10-26T19:40:00.000Z</time>
      </trkpt>
      <trkpt lat="48.87383" lon="2.3284">
        <ele>49</ele>
        <time>2015-10-26T19:40:06.000Z</time>
      </trkpt>
      <trkpt lat="48.87379" lon="2.32836">
        <ele>48.799999237061</ele>
        <time>2015-10-26T19:40:10.000Z</time>
      </trkpt>
      <trkpt lat="48.87377" lon="2.32834">
        <ele>48.599998474121</ele>
        <time>2015-10-26T19:40:16.000Z</time>
      </trkpt>
      <trkpt lat="48.8738" lon="2.32815">
        <ele>48.599998474121</ele>
        <time>2015-10-26T19:40:21.000Z</time>
      </trkpt>
      <trkpt lat="48.87381" lon="2.32812">
        <ele>48.599998474121</ele>
        <time>2015-10-26T19:40:22.000Z</time>
      </trkpt>
      <trkpt lat="48.87385" lon="2.32782">
        <ele>48.599998474121</ele>
        <time>2015-10-26T19:40:27.000Z</time>
      </trkpt>
      <trkpt lat="48.87387" lon="2.32752">
        <ele>48.400001525879</ele>
        <time>2015-10-26T19:40:32.000Z</time>
      </trkpt>
      <trkpt lat="48.87386" lon="2.32722">
        <ele>48.400001525879</ele>
        <time>2015-10-26T19:40:43.000Z</time>
      </trkpt>
      <trkpt lat="48.87382" lon="2.32709">
        <ele>48.400001525879</ele>
        <time>2015-10-26T19:41:11.000Z</time>
      </trkpt>
      <trkpt lat="48.87382" lon="2.32686">
        <ele>48.200000762939</ele>
        <time>2015-10-26T19:41:16.000Z</time>
      </trkpt>
      <trkpt lat="48.87387" lon="2.32659">
        <ele>47.400001525879</ele>
        <time>2015-10-26T19:41:21.000Z</time>
      </trkpt>
      <trkpt lat="48.87395" lon="2.32622">
        <ele>48</ele>
        <time>2015-10-26T19:41:27.000Z</time>
      </trkpt>
      <trkpt lat="48.87396" lon="2.32615">
        <ele>48</ele>
        <time>2015-10-26T19:41:28.000Z</time>
      </trkpt>
      <trkpt lat="48.87402" lon="2.32583">
        <ele>47.400001525879</ele>
        <time>2015-10-26T19:41:33.000Z</time>
      </trkpt>
      <trkpt lat="48.87408" lon="2.32553">
        <ele>46</ele>
        <time>2015-10-26T19:41:37.000Z</time>
      </trkpt>
      <trkpt lat="48.87413" lon="2.32526">
        <ele>44.599998474121</ele>
        <time>2015-10-26T19:41:41.000Z</time>
      </trkpt>
      <trkpt lat="48.87415" lon="2.3251">
        <ele>44</ele>
        <time>2015-10-26T19:41:43.000Z</time>
      </trkpt>
      <trkpt lat="48.87417" lon="2.32496">
        <ele>43.400001525879</ele>
        <time>2015-10-26T19:41:45.000Z</time>
      </trkpt>
      <trkpt lat="48.87422" lon="2.32458">
        <ele>42.799999237061</ele>
        <time>2015-10-26T19:41:50.000Z</time>
      </trkpt>
      <trkpt lat="48.87428" lon="2.32424">
        <ele>43.200000762939</ele>
        <time>2015-10-26T19:41:54.000Z</time>
      </trkpt>
      <trkpt lat="48.8743" lon="2.32416">
        <ele>43.200000762939</ele>
        <time>2015-10-26T19:41:55.000Z</time>
      </trkpt>
      <trkpt lat="48.87431" lon="2.32394">
        <ele>43</ele>
        <time>2015-10-26T19:41:58.000Z</time>
      </trkpt>
      <trkpt lat="48.87433" lon="2.32355">
        <ele>43</ele>
        <time>2015-10-26T19:42:03.000Z</time>
      </trkpt>
      <trkpt lat="48.87434" lon="2.32348">
        <ele>43</ele>
        <time>2015-10-26T19:42:04.000Z</time>
      </trkpt>
      <trkpt lat="48.87438" lon="2.32314">
        <ele>43.599998474121</ele>
        <time>2015-10-26T19:42:09.000Z</time>
      </trkpt>
      <trkpt lat="48.87439" lon="2.32298">
        <ele>44.200000762939</ele>
        <time>2015-10-26T19:42:11.000Z</time>
      </trkpt>
      <trkpt lat="48.87446" lon="2.3226">
        <ele>45.599998474121</ele>
        <time>2015-10-26T19:42:16.000Z</time>
      </trkpt>
      <trkpt lat="48.87447" lon="2.32252">
        <ele>46</ele>
        <time>2015-10-26T19:42:17.000Z</time>
      </trkpt>
      <trkpt lat="48.87449" lon="2.32236">
        <ele>46.599998474121</ele>
        <time>2015-10-26T19:42:19.000Z</time>
      </trkpt>
      <trkpt lat="48.87449" lon="2.32229">
        <ele>46.799999237061</ele>
        <time>2015-10-26T19:42:20.000Z</time>
      </trkpt>
      <trkpt lat="48.87456" lon="2.32191">
        <ele>48.200000762939</ele>
        <time>2015-10-26T19:42:24.000Z</time>
      </trkpt>
      <trkpt lat="48.87461" lon="2.32157">
        <ele>48.400001525879</ele>
        <time>2015-10-26T19:42:28.000Z</time>
      </trkpt>
      <trkpt lat="48.87466" lon="2.32125">
        <ele>48</ele>
        <time>2015-10-26T19:42:32.000Z</time>
      </trkpt>
      <trkpt lat="48.87471" lon="2.32094">
        <ele>47.200000762939</ele>
        <time>2015-10-26T19:42:36.000Z</time>
      </trkpt>
      <trkpt lat="48.87473" lon="2.32066">
        <ele>46.400001525879</ele>
        <time>2015-10-26T19:42:40.000Z</time>
      </trkpt>
      <trkpt lat="48.87476" lon="2.32035">
        <ele>45.599998474121</ele>
        <time>2015-10-26T19:42:45.000Z</time>
      </trkpt>
      <trkpt lat="48.87477" lon="2.32025">
        <ele>45.599998474121</ele>
        <time>2015-10-26T19:42:47.000Z</time>
      </trkpt>
      <trkpt lat="48.87482" lon="2.32008">
        <ele>45.799999237061</ele>
        <time>2015-10-26T19:42:54.000Z</time>
      </trkpt>
      <trkpt lat="48.87483" lon="2.31994">
        <ele>46</ele>
        <time>2015-10-26T19:43:01.000Z</time>
      </trkpt>
      <trkpt lat="48.87482" lon="2.31987">
        <ele>46</ele>
        <time>2015-10-26T19:43:07.000Z</time>
      </trkpt>
      <trkpt lat="48.87474" lon="2.31977">
        <ele>46</ele>
        <time>2015-10-26T19:43:14.000Z</time>
      </trkpt>
      <trkpt lat="48.87463" lon="2.31959">
        <ele>46</ele>
        <time>2015-10-26T19:43:20.000Z</time>
      </trkpt>
      <trkpt lat="48.87455" lon="2.31938">
        <ele>46</ele>
        <time>2015-10-26T19:43:25.000Z</time>
      </trkpt>
      <trkpt lat="48.8745" lon="2.3191">
        <ele>45.799999237061</ele>
        <time>2015-10-26T19:43:30.000Z</time>
      </trkpt>
      <trkpt lat="48.87445" lon="2.31882">
        <ele>45.799999237061</ele>
        <time>2015-10-26T19:43:34.000Z</time>
      </trkpt>
      <trkpt lat="48.87441" lon="2.31855">
        <ele>46</ele>
        <time>2015-10-26T19:43:38.000Z</time>
      </trkpt>
      <trkpt lat="48.87436" lon="2.31823">
        <ele>45.799999237061</ele>
        <time>2015-10-26T19:43:42.000Z</time>
      </trkpt>
      <trkpt lat="48.87431" lon="2.31791">
        <ele>45.599998474121</ele>
        <time>2015-10-26T19:43:46.000Z</time>
      </trkpt>
      <trkpt lat="48.87426" lon="2.3176">
        <ele>45.400001525879</ele>
        <time>2015-10-26T19:43:50.000Z</time>
      </trkpt>
      <trkpt lat="48.87421" lon="2.31729">
        <ele>45.400001525879</ele>
        <time>2015-10-26T19:43:54.000Z</time>
      </trkpt>
      <trkpt lat="48.87419" lon="2.31722">
        <ele>45.400001525879</ele>
        <time>2015-10-26T19:43:55.000Z</time>
      </trkpt>
      <trkpt lat="48.87418" lon="2.31718">
        <ele>45.400001525879</ele>
        <time>2015-10-26T19:43:56.000Z</time>
      </trkpt>
      <trkpt lat="48.87411" lon="2.31676">
        <ele>46.400001525879</ele>
        <time>2015-10-26T19:44:01.000Z</time>
      </trkpt>
      <trkpt lat="48.87408" lon="2.31646">
        <ele>47.599998474121</ele>
        <time>2015-10-26T19:44:05.000Z</time>
      </trkpt>
      <trkpt lat="48.87407" lon="2.31639">
        <ele>47.799999237061</ele>
        <time>2015-10-26T19:44:06.000Z</time>
      </trkpt>
      <trkpt lat="48.87401" lon="2.31601">
        <ele>47.799999237061</ele>
        <time>2015-10-26T19:44:11.000Z</time>
      </trkpt>
      <trkpt lat="48.874" lon="2.31592">
        <ele>47.599998474121</ele>
        <time>2015-10-26T19:44:12.000Z</time>
      </trkpt>
      <trkpt lat="48.87394" lon="2.31561">
        <ele>48</ele>
        <time>2015-10-26T19:44:16.000Z</time>
      </trkpt>
      <trkpt lat="48.87393" lon="2.31553">
        <ele>48.200000762939</ele>
        <time>2015-10-26T19:44:17.000Z</time>
      </trkpt>
      <trkpt lat="48.87386" lon="2.31519">
        <ele>49</ele>
        <time>2015-10-26T19:44:21.000Z</time>
      </trkpt>
      <trkpt lat="48.87384" lon="2.31512">
        <ele>49.200000762939</ele>
        <time>2015-10-26T19:44:22.000Z</time>
      </trkpt>
      <trkpt lat="48.87378" lon="2.31468">
        <ele>49.400001525879</ele>
        <time>2015-10-26T19:44:27.000Z</time>
      </trkpt>
      <trkpt lat="48.87372" lon="2.31435">
        <ele>48.799999237061</ele>
        <time>2015-10-26T19:44:31.000Z</time>
      </trkpt>
      <trkpt lat="48.87371" lon="2.31429">
        <ele>48.799999237061</ele>
        <time>2015-10-26T19:44:32.000Z</time>
      </trkpt>
      <trkpt lat="48.87361" lon="2.31392">
        <ele>48.400001525879</ele>
        <time>2015-10-26T19:44:36.000Z</time>
      </trkpt>
      <trkpt lat="48.87353" lon="2.31349">
        <ele>48.599998474121</ele>
        <time>2015-10-26T19:44:41.000Z</time>
      </trkpt>
      <trkpt lat="48.87351" lon="2.31339">
        <ele>48.599998474121</ele>
        <time>2015-10-26T19:44:42.000Z</time>
      </trkpt>
      <trkpt lat="48.87346" lon="2.31311">
        <ele>48.200000762939</ele>
        <time>2015-10-26T19:44:45.000Z</time>
      </trkpt>
      <trkpt lat="48.87344" lon="2.31302">
        <ele>48</ele>
        <time>2015-10-26T19:44:46.000Z</time>
      </trkpt>
      <trkpt lat="48.87339" lon="2.31266">
        <ele>47.400001525879</ele>
        <time>2015-10-26T19:44:50.000Z</time>
      </trkpt>
      <trkpt lat="48.87332" lon="2.31231">
        <ele>47.400001525879</ele>
        <time>2015-10-26T19:44:54.000Z</time>
      </trkpt>
      <trkpt lat="48.87327" lon="2.31213">
        <ele>47.599998474121</ele>
        <time>2015-10-26T19:44:56.000Z</time>
      </trkpt>
      <trkpt lat="48.87316" lon="2.31171">
        <ele>47</ele>
        <time>2015-10-26T19:45:01.000Z</time>
      </trkpt>
      <trkpt lat="48.87308" lon="2.3114">
        <ele>47</ele>
        <time>2015-10-26T19:45:05.000Z</time>
      </trkpt>
      <trkpt lat="48.87305" lon="2.31135">
        <ele>47</ele>
        <time>2015-10-26T19:45:06.000Z</time>
      </trkpt>
      <trkpt lat="48.87293" lon="2.31118">
        <ele>47</ele>
        <time>2015-10-26T19:45:10.000Z</time>
      </trkpt>
      <trkpt lat="48.87285" lon="2.31092">
        <ele>47</ele>
        <time>2015-10-26T19:45:15.000Z</time>
      </trkpt>
      <trkpt lat="48.87285" lon="2.31087">
        <ele>46.799999237061</ele>
        <time>2015-10-26T19:45:16.000Z</time>
      </trkpt>
      <trkpt lat="48.87285" lon="2.31081">
        <ele>46.400001525879</ele>
        <time>2015-10-26T19:45:18.000Z</time>
      </trkpt>
      <trkpt lat="48.87287" lon="2.31072">
        <ele>46</ele>
        <time>2015-10-26T19:45:24.000Z</time>
      </trkpt>
      <trkpt lat="48.87287" lon="2.31071">
        <ele>46</ele>
        <time>2015-10-26T19:45:32.000Z</time>
      </trkpt>
      <trkpt lat="48.87286" lon="2.31069">
        <ele>46</ele>
        <time>2015-10-26T19:45:45.000Z</time>
      </trkpt>
      <trkpt lat="48.87282" lon="2.31064">
        <ele>46</ele>
        <time>2015-10-26T19:45:49.000Z</time>
      </trkpt>
      <trkpt lat="48.87277" lon="2.31052">
        <ele>45.799999237061</ele>
        <time>2015-10-26T19:45:54.000Z</time>
      </trkpt>
      <trkpt lat="48.87272" lon="2.31036">
        <ele>45.400001525879</ele>
        <time>2015-10-26T19:46:00.000Z</time>
      </trkpt>
      <trkpt lat="48.87263" lon="2.31021">
        <ele>45</ele>
        <time>2015-10-26T19:46:05.000Z</time>
      </trkpt>
      <trkpt lat="48.8726" lon="2.31017">
        <ele>44.799999237061</ele>
        <time>2015-10-26T19:46:06.000Z</time>
      </trkpt>
      <trkpt lat="48.87249" lon="2.31009">
        <ele>44.799999237061</ele>
        <time>2015-10-26T19:46:10.000Z</time>
      </trkpt>
      <trkpt lat="48.87245" lon="2.31002">
        <ele>44.599998474121</ele>
        <time>2015-10-26T19:46:13.000Z</time>
      </trkpt>
      <trkpt lat="48.87235" lon="2.30985">
        <ele>44.799999237061</ele>
        <time>2015-10-26T19:46:17.000Z</time>
      </trkpt>
      <trkpt lat="48.87233" lon="2.3098">
        <ele>44.799999237061</ele>
        <time>2015-10-26T19:46:18.000Z</time>
      </trkpt>
      <trkpt lat="48.87231" lon="2.30974">
        <ele>45</ele>
        <time>2015-10-26T19:46:19.000Z</time>
      </trkpt>
      <trkpt lat="48.87219" lon="2.30953">
        <ele>45.799999237061</ele>
        <time>2015-10-26T19:46:23.000Z</time>
      </trkpt>
      <trkpt lat="48.87209" lon="2.30926">
        <ele>46.599998474121</ele>
        <time>2015-10-26T19:46:28.000Z</time>
      </trkpt>
      <trkpt lat="48.87207" lon="2.3092">
        <ele>46.799999237061</ele>
        <time>2015-10-26T19:46:29.000Z</time>
      </trkpt>
      <trkpt lat="48.87198" lon="2.30894">
        <ele>47</ele>
        <time>2015-10-26T19:46:36.000Z</time>
      </trkpt>
      <trkpt lat="48.8719" lon="2.30883">
        <ele>47</ele>
        <time>2015-10-26T19:46:40.000Z</time>
      </trkpt>
      <trkpt lat="48.87188" lon="2.30869">
        <ele>47</ele>
        <time>2015-10-26T19:46:43.000Z</time>
      </trkpt>
      <trkpt lat="48.87186" lon="2.30861">
        <ele>47</ele>
        <time>2015-10-26T19:46:44.000Z</time>
      </trkpt>
      <trkpt lat="48.87177" lon="2.30837">
        <ele>47.200000762939</ele>
        <time>2015-10-26T19:46:47.000Z</time>
      </trkpt>
      <trkpt lat="48.87164" lon="2.30808">
        <ele>47</ele>
        <time>2015-10-26T19:46:51.000Z</time>
      </trkpt>
      <trkpt lat="48.87161" lon="2.30801">
        <ele>47</ele>
        <time>2015-10-26T19:46:52.000Z</time>
      </trkpt>
      <trkpt lat="48.87147" lon="2.30767">
        <ele>47</ele>
        <time>2015-10-26T19:46:57.000Z</time>
      </trkpt>
      <trkpt lat="48.87144" lon="2.30761">
        <ele>47</ele>
        <time>2015-10-26T19:46:58.000Z</time>
      </trkpt>
      <trkpt lat="48.8714" lon="2.30738">
        <ele>47.400001525879</ele>
        <time>2015-10-26T19:47:03.000Z</time>
      </trkpt>
      <trkpt lat="48.87137" lon="2.30729">
        <ele>47.599998474121</ele>
        <time>2015-10-26T19:47:06.000Z</time>
      </trkpt>
      <trkpt lat="48.87125" lon="2.30711">
        <ele>48.200000762939</ele>
        <time>2015-10-26T19:47:10.000Z</time>
      </trkpt>
      <trkpt lat="48.87111" lon="2.3069">
        <ele>49</ele>
        <time>2015-10-26T19:47:14.000Z</time>
      </trkpt>
      <trkpt lat="48.87109" lon="2.30683">
        <ele>49.200000762939</ele>
        <time>2015-10-26T19:47:15.000Z</time>
      </trkpt>
      <trkpt lat="48.87094" lon="2.30652">
        <ele>49.599998474121</ele>
        <time>2015-10-26T19:47:20.000Z</time>
      </trkpt>
      <trkpt lat="48.87091" lon="2.30646">
        <ele>49.400001525879</ele>
        <time>2015-10-26T19:47:21.000Z</time>
      </trkpt>
      <trkpt lat="48.87081" lon="2.30622">
        <ele>49.200000762939</ele>
        <time>2015-10-26T19:47:25.000Z</time>
      </trkpt>
      <trkpt lat="48.87078" lon="2.30616">
        <ele>49.200000762939</ele>
        <time>2015-10-26T19:47:26.000Z</time>
      </trkpt>
      <trkpt lat="48.8707" lon="2.30601">
        <ele>49</ele>
        <time>2015-10-26T19:47:29.000Z</time>
      </trkpt>
      <trkpt lat="48.87067" lon="2.30596">
        <ele>49</ele>
        <time>2015-10-26T19:47:30.000Z</time>
      </trkpt>
      <trkpt lat="48.87065" lon="2.30592">
        <ele>48.799999237061</ele>
        <time>2015-10-26T19:47:31.000Z</time>
      </trkpt>
      <trkpt lat="48.87058" lon="2.30558">
        <ele>49.799999237061</ele>
        <time>2015-10-26T19:47:39.000Z</time>
      </trkpt>
      <trkpt lat="48.87055" lon="2.30546">
        <ele>50.200000762939</ele>
        <time>2015-10-26T19:47:43.000Z</time>
      </trkpt>
      <trkpt lat="48.87053" lon="2.30534">
        <ele>50.599998474121</ele>
        <time>2015-10-26T19:47:46.000Z</time>
      </trkpt>
      <trkpt lat="48.87041" lon="2.30516">
        <ele>51</ele>
        <time>2015-10-26T19:47:52.000Z</time>
      </trkpt>
      <trkpt lat="48.87038" lon="2.3051">
        <ele>51</ele>
        <time>2015-10-26T19:47:54.000Z</time>
      </trkpt>
      <trkpt lat="48.87024" lon="2.30487">
        <ele>51.599998474121</ele>
        <time>2015-10-26T19:48:00.000Z</time>
      </trkpt>
      <trkpt lat="48.87014" lon="2.30468">
        <ele>52.400001525879</ele>
        <time>2015-10-26T19:48:04.000Z</time>
      </trkpt>
      <trkpt lat="48.87002" lon="2.30448">
        <ele>53.400001525879</ele>
        <time>2015-10-26T19:48:08.000Z</time>
      </trkpt>
      <trkpt lat="48.86998" lon="2.30441">
        <ele>53.799999237061</ele>
        <time>2015-10-26T19:48:09.000Z</time>
      </trkpt>
      <trkpt lat="48.86986" lon="2.30419">
        <ele>54.799999237061</ele>
        <time>2015-10-26T19:48:13.000Z</time>
      </trkpt>
      <trkpt lat="48.86982" lon="2.30413">
        <ele>55</ele>
        <time>2015-10-26T19:48:14.000Z</time>
      </trkpt>
      <trkpt lat="48.8697" lon="2.30391">
        <ele>55</ele>
        <time>2015-10-26T19:48:18.000Z</time>
      </trkpt>
      <trkpt lat="48.86956" lon="2.30363">
        <ele>55</ele>
        <time>2015-10-26T19:48:23.000Z</time>
      </trkpt>
      <trkpt lat="48.86949" lon="2.30354">
        <ele>55</ele>
        <time>2015-10-26T19:48:25.000Z</time>
      </trkpt>
      <trkpt lat="48.86932" lon="2.30317">
        <ele>54.799999237061</ele>
        <time>2015-10-26T19:48:31.000Z</time>
      </trkpt>
      <trkpt lat="48.86921" lon="2.30294">
        <ele>54.599998474121</ele>
        <time>2015-10-26T19:48:35.000Z</time>
      </trkpt>
      <trkpt lat="48.86919" lon="2.30289">
        <ele>54.599998474121</ele>
        <time>2015-10-26T19:48:36.000Z</time>
      </trkpt>
      <trkpt lat="48.86909" lon="2.3027">
        <ele>54.200000762939</ele>
        <time>2015-10-26T19:48:40.000Z</time>
      </trkpt>
      <trkpt lat="48.86903" lon="2.30261">
        <ele>54.200000762939</ele>
        <time>2015-10-26T19:48:42.000Z</time>
      </trkpt>
      <trkpt lat="48.869" lon="2.3025">
        <ele>54</ele>
        <time>2015-10-26T19:48:44.000Z</time>
      </trkpt>
      <trkpt lat="48.86895" lon="2.30237">
        <ele>53.799999237061</ele>
        <time>2015-10-26T19:48:47.000Z</time>
      </trkpt>
      <trkpt lat="48.86889" lon="2.30223">
        <ele>53.799999237061</ele>
        <time>2015-10-26T19:48:50.000Z</time>
      </trkpt>
      <trkpt lat="48.86881" lon="2.30202">
        <ele>53.400001525879</ele>
        <time>2015-10-26T19:48:54.000Z</time>
      </trkpt>
      <trkpt lat="48.86875" lon="2.30185">
        <ele>53.200000762939</ele>
        <time>2015-10-26T19:48:57.000Z</time>
      </trkpt>
      <trkpt lat="48.86868" lon="2.30171">
        <ele>53.200000762939</ele>
        <time>2015-10-26T19:49:00.000Z</time>
      </trkpt>
      <trkpt lat="48.86864" lon="2.3016">
        <ele>53.400001525879</ele>
        <time>2015-10-26T19:49:02.000Z</time>
      </trkpt>
      <trkpt lat="48.86855" lon="2.30141">
        <ele>54.200000762939</ele>
        <time>2015-10-26T19:49:06.000Z</time>
      </trkpt>
      <trkpt lat="48.8685" lon="2.30129">
        <ele>54.400001525879</ele>
        <time>2015-10-26T19:49:09.000Z</time>
      </trkpt>
      <trkpt lat="48.86845" lon="2.30122">
        <ele>54.400001525879</ele>
        <time>2015-10-26T19:49:14.000Z</time>
      </trkpt>
      <trkpt lat="48.86838" lon="2.30115">
        <ele>54.200000762939</ele>
        <time>2015-10-26T19:49:32.000Z</time>
      </trkpt>
      <trkpt lat="48.8683" lon="2.30111">
        <ele>53.599998474121</ele>
        <time>2015-10-26T19:49:41.000Z</time>
      </trkpt>
      <trkpt lat="48.86828" lon="2.3011">
        <ele>53.400001525879</ele>
        <time>2015-10-26T19:49:42.000Z</time>
      </trkpt>
      <trkpt lat="48.8682" lon="2.30106">
        <ele>53</ele>
        <time>2015-10-26T19:49:45.000Z</time>
      </trkpt>
      <trkpt lat="48.86814" lon="2.301">
        <ele>52.799999237061</ele>
        <time>2015-10-26T19:49:47.000Z</time>
      </trkpt>
      <trkpt lat="48.86805" lon="2.30085">
        <ele>52.799999237061</ele>
        <time>2015-10-26T19:49:51.000Z</time>
      </trkpt>
      <trkpt lat="48.86794" lon="2.30072">
        <ele>52.599998474121</ele>
        <time>2015-10-26T19:49:54.000Z</time>
      </trkpt>
      <trkpt lat="48.86783" lon="2.30059">
        <ele>52.799999237061</ele>
        <time>2015-10-26T19:49:57.000Z</time>
      </trkpt>
      <trkpt lat="48.86764" lon="2.30038">
        <ele>53.200000762939</ele>
        <time>2015-10-26T19:50:02.000Z</time>
      </trkpt>
      <trkpt lat="48.86762" lon="2.30032">
        <ele>53.599998474121</ele>
        <time>2015-10-26T19:50:03.000Z</time>
      </trkpt>
      <trkpt lat="48.86756" lon="2.30019">
        <ele>54.599998474121</ele>
        <time>2015-10-26T19:50:05.000Z</time>
      </trkpt>
      <trkpt lat="48.86743" lon="2.29994">
        <ele>56</ele>
        <time>2015-10-26T19:50:10.000Z</time>
      </trkpt>
      <trkpt lat="48.86738" lon="2.29981">
        <ele>56.599998474121</ele>
        <time>2015-10-26T19:50:13.000Z</time>
      </trkpt>
      <trkpt lat="48.86738" lon="2.29969">
        <ele>57</ele>
        <time>2015-10-26T19:50:15.000Z</time>
      </trkpt>
      <trkpt lat="48.86735" lon="2.29946">
        <ele>58</ele>
        <time>2015-10-26T19:50:21.000Z</time>
      </trkpt>
      <trkpt lat="48.86735" lon="2.29943">
        <ele>58.200000762939</ele>
        <time>2015-10-26T19:50:22.000Z</time>
      </trkpt>
      <trkpt lat="48.86736" lon="2.29936">
        <ele>58.599998474121</ele>
        <time>2015-10-26T19:50:29.000Z</time>
      </trkpt>
      <trkpt lat="48.86738" lon="2.29923">
        <ele>59.200000762939</ele>
        <time>2015-10-26T19:51:10.000Z</time>
      </trkpt>
      <trkpt lat="48.86738" lon="2.29923">
        <ele>59.200000762939</ele>
        <time>2015-10-26T19:51:16.000Z</time>
      </trkpt>
      <trkpt lat="48.86737" lon="2.29919">
        <ele>59.400001525879</ele>
        <time>2015-10-26T19:51:21.000Z</time>
      </trkpt>
      <trkpt lat="48.86735" lon="2.29918">
        <ele>59.400001525879</ele>
        <time>2015-10-26T19:51:22.000Z</time>
      </trkpt>
      <trkpt lat="48.86734" lon="2.29917">
        <ele>59.400001525879</ele>
        <time>2015-10-26T19:51:23.000Z</time>
      </trkpt>
      <trkpt lat="48.86727" lon="2.29907">
        <ele>59.599998474121</ele>
        <time>2015-10-26T19:51:30.000Z</time>
      </trkpt>
      <trkpt lat="48.86726" lon="2.29905">
        <ele>59.599998474121</ele>
        <time>2015-10-26T19:51:31.000Z</time>
      </trkpt>
      <trkpt lat="48.86719" lon="2.29897">
        <ele>59.400001525879</ele>
        <time>2015-10-26T19:51:36.000Z</time>
      </trkpt>
      <trkpt lat="48.86715" lon="2.29892">
        <ele>59.400001525879</ele>
        <time>2015-10-26T19:51:38.000Z</time>
      </trkpt>
      <trkpt lat="48.86711" lon="2.29887">
        <ele>59.400001525879</ele>
        <time>2015-10-26T19:51:40.000Z</time>
      </trkpt>
      <trkpt lat="48.86703" lon="2.29875">
        <ele>59.400001525879</ele>
        <time>2015-10-26T19:51:44.000Z</time>
      </trkpt>
      <trkpt lat="48.86696" lon="2.29865">
        <ele>59.400001525879</ele>
        <time>2015-10-26T19:51:47.000Z</time>
      </trkpt>
      <trkpt lat="48.8668" lon="2.2984">
        <ele>59.200000762939</ele>
        <time>2015-10-26T19:51:54.000Z</time>
      </trkpt>
      <trkpt lat="48.86674" lon="2.29826">
        <ele>59</ele>
        <time>2015-10-26T19:51:58.000Z</time>
      </trkpt>
      <trkpt lat="48.86665" lon="2.2981">
        <ele>58.599998474121</ele>
        <time>2015-10-26T19:52:03.000Z</time>
      </trkpt>
      <trkpt lat="48.86658" lon="2.29795">
        <ele>58</ele>
        <time>2015-10-26T19:52:07.000Z</time>
      </trkpt>
      <trkpt lat="48.86652" lon="2.29781">
        <ele>57.599998474121</ele>
        <time>2015-10-26T19:52:11.000Z</time>
      </trkpt>
      <trkpt lat="48.8664" lon="2.29762">
        <ele>56.799999237061</ele>
        <time>2015-10-26T19:52:16.000Z</time>
      </trkpt>
      <trkpt lat="48.86632" lon="2.29746">
        <ele>56.200000762939</ele>
        <time>2015-10-26T19:52:20.000Z</time>
      </trkpt>
      <trkpt lat="48.86621" lon="2.29723">
        <ele>55.400001525879</ele>
        <time>2015-10-26T19:52:26.000Z</time>
      </trkpt>
      <trkpt lat="48.86619" lon="2.29716">
        <ele>55.200000762939</ele>
        <time>2015-10-26T19:52:28.000Z</time>
      </trkpt>
      <trkpt lat="48.86613" lon="2.29706">
        <ele>54.799999237061</ele>
        <time>2015-10-26T19:52:32.000Z</time>
      </trkpt>
      <trkpt lat="48.86612" lon="2.29704">
        <ele>54.799999237061</ele>
        <time>2015-10-26T19:52:33.000Z</time>
      </trkpt>
      <trkpt lat="48.86605" lon="2.29692">
        <ele>54.200000762939</ele>
        <time>2015-10-26T19:52:36.000Z</time>
      </trkpt>
      <trkpt lat="48.866" lon="2.29686">
        <ele>53.799999237061</ele>
        <time>2015-10-26T19:52:38.000Z</time>
      </trkpt>
      <trkpt lat="48.86589" lon="2.29656">
        <ele>53.400001525879</ele>
        <time>2015-10-26T19:52:45.000Z</time>
      </trkpt>
      <trkpt lat="48.86587" lon="2.2965">
        <ele>53.799999237061</ele>
        <time>2015-10-26T19:52:46.000Z</time>
      </trkpt>
      <trkpt lat="48.86572" lon="2.2963">
        <ele>54.400001525879</ele>
        <time>2015-10-26T19:52:51.000Z</time>
      </trkpt>
      <trkpt lat="48.86562" lon="2.29615">
        <ele>54.799999237061</ele>
        <time>2015-10-26T19:52:55.000Z</time>
      </trkpt>
      <trkpt lat="48.86554" lon="2.29595">
        <ele>55.400001525879</ele>
        <time>2015-10-26T19:52:59.000Z</time>
      </trkpt>
      <trkpt lat="48.86543" lon="2.29574">
        <ele>56</ele>
        <time>2015-10-26T19:53:04.000Z</time>
      </trkpt>
      <trkpt lat="48.86534" lon="2.29556">
        <ele>56.599998474121</ele>
        <time>2015-10-26T19:53:08.000Z</time>
      </trkpt>
      <trkpt lat="48.86528" lon="2.29544">
        <ele>57</ele>
        <time>2015-10-26T19:53:11.000Z</time>
      </trkpt>
      <trkpt lat="48.86519" lon="2.29517">
        <ele>57.599998474121</ele>
        <time>2015-10-26T19:53:16.000Z</time>
      </trkpt>
      <trkpt lat="48.86513" lon="2.29498">
        <ele>58</ele>
        <time>2015-10-26T19:53:20.000Z</time>
      </trkpt>
      <trkpt lat="48.86508" lon="2.29484">
        <ele>58</ele>
        <time>2015-10-26T19:53:23.000Z</time>
      </trkpt>
      <trkpt lat="48.865" lon="2.29461">
        <ele>57</ele>
        <time>2015-10-26T19:53:29.000Z</time>
      </trkpt>
      <trkpt lat="48.86494" lon="2.29447">
        <ele>56.400001525879</ele>
        <time>2015-10-26T19:53:33.000Z</time>
      </trkpt>
      <trkpt lat="48.86492" lon="2.29433">
        <ele>56</ele>
        <time>2015-10-26T19:53:38.000Z</time>
      </trkpt>
      <trkpt lat="48.86494" lon="2.29418">
        <ele>55.799999237061</ele>
        <time>2015-10-26T19:53:42.000Z</time>
      </trkpt>
      <trkpt lat="48.86487" lon="2.29396">
        <ele>55.200000762939</ele>
        <time>2015-10-26T19:53:51.000Z</time>
      </trkpt>
      <trkpt lat="48.86485" lon="2.29388">
        <ele>55.200000762939</ele>
        <time>2015-10-26T19:53:57.000Z</time>
      </trkpt>
      <trkpt lat="48.86485" lon="2.29382">
        <ele>55.200000762939</ele>
        <time>2015-10-26T19:54:06.000Z</time>
      </trkpt>
      <trkpt lat="48.86482" lon="2.29371">
        <ele>55</ele>
        <time>2015-10-26T19:54:11.000Z</time>
      </trkpt>
      <trkpt lat="48.86476" lon="2.29359">
        <ele>55</ele>
        <time>2015-10-26T19:54:16.000Z</time>
      </trkpt>
      <trkpt lat="48.86468" lon="2.29346">
        <ele>54.799999237061</ele>
        <time>2015-10-26T19:54:22.000Z</time>
      </trkpt>
      <trkpt lat="48.86459" lon="2.29327">
        <ele>54.799999237061</ele>
        <time>2015-10-26T19:54:28.000Z</time>
      </trkpt>
      <trkpt lat="48.86451" lon="2.29312">
        <ele>55.200000762939</ele>
        <time>2015-10-26T19:54:32.000Z</time>
      </trkpt>
      <trkpt lat="48.86443" lon="2.29285">
        <ele>56.599998474121</ele>
        <time>2015-10-26T19:54:36.000Z</time>
      </trkpt>
      <trkpt lat="48.86442" lon="2.29278">
        <ele>57</ele>
        <time>2015-10-26T19:54:37.000Z</time>
      </trkpt>
      <trkpt lat="48.86433" lon="2.29245">
        <ele>58.200000762939</ele>
        <time>2015-10-26T19:54:42.000Z</time>
      </trkpt>
      <trkpt lat="48.86425" lon="2.29219">
        <ele>57.799999237061</ele>
        <time>2015-10-26T19:54:46.000Z</time>
      </trkpt>
      <trkpt lat="48.86423" lon="2.29213">
        <ele>57.599998474121</ele>
        <time>2015-10-26T19:54:47.000Z</time>
      </trkpt>
      <trkpt lat="48.86413" lon="2.2918">
        <ele>57</ele>
        <time>2015-10-26T19:54:52.000Z</time>
      </trkpt>
      <trkpt lat="48.86403" lon="2.29157">
        <ele>56.799999237061</ele>
        <time>2015-10-26T19:54:56.000Z</time>
      </trkpt>
      <trkpt lat="48.864" lon="2.29151">
        <ele>57</ele>
        <time>2015-10-26T19:54:57.000Z</time>
      </trkpt>
      <trkpt lat="48.86393" lon="2.29131">
        <ele>58</ele>
        <time>2015-10-26T19:55:00.000Z</time>
      </trkpt>
      <trkpt lat="48.86385" lon="2.29094">
        <ele>59.799999237061</ele>
        <time>2015-10-26T19:55:05.000Z</time>
      </trkpt>
      <trkpt lat="48.86384" lon="2.29089">
        <ele>60.200000762939</ele>
        <time>2015-10-26T19:55:06.000Z</time>
      </trkpt>
      <trkpt lat="48.86379" lon="2.29059">
        <ele>62.400001525879</ele>
        <time>2015-10-26T19:55:11.000Z</time>
      </trkpt>
      <trkpt lat="48.86377" lon="2.29053">
        <ele>63</ele>
        <time>2015-10-26T19:55:12.000Z</time>
      </trkpt>
      <trkpt lat="48.86375" lon="2.29047">
        <ele>63.400001525879</ele>
        <time>2015-10-26T19:55:13.000Z</time>
      </trkpt>
      <trkpt lat="48.86373" lon="2.29042">
        <ele>63.799999237061</ele>
        <time>2015-10-26T19:55:14.000Z</time>
      </trkpt>
      <trkpt lat="48.86366" lon="2.29019">
        <ele>65.400001525879</ele>
        <time>2015-10-26T19:55:18.000Z</time>
      </trkpt>
      <trkpt lat="48.86365" lon="2.29013">
        <ele>66</ele>
        <time>2015-10-26T19:55:19.000Z</time>
      </trkpt>
      <trkpt lat="48.86362" lon="2.29">
        <ele>67.199996948242</ele>
        <time>2015-10-26T19:55:21.000Z</time>
      </trkpt>
      <trkpt lat="48.86354" lon="2.28973">
        <ele>67.199996948242</ele>
        <time>2015-10-26T19:55:25.000Z</time>
      </trkpt>
      <trkpt lat="48.86343" lon="2.28924">
        <ele>67.400001525879</ele>
        <time>2015-10-26T19:55:33.000Z</time>
      </trkpt>
      <trkpt lat="48.86341" lon="2.28916">
        <ele>67.400001525879</ele>
        <time>2015-10-26T19:55:34.000Z</time>
      </trkpt>
      <trkpt lat="48.86333" lon="2.28888">
        <ele>66.599998474121</ele>
        <time>2015-10-26T19:55:39.000Z</time>
      </trkpt>
      <trkpt lat="48.86329" lon="2.28876">
        <ele>66.400001525879</ele>
        <time>2015-10-26T19:55:42.000Z</time>
      </trkpt>
      <trkpt lat="48.86323" lon="2.28854">
        <ele>66.199996948242</ele>
        <time>2015-10-26T19:55:48.000Z</time>
      </trkpt>
      <trkpt lat="48.86319" lon="2.28832">
        <ele>66.199996948242</ele>
        <time>2015-10-26T19:55:54.000Z</time>
      </trkpt>
      <trkpt lat="48.86318" lon="2.2883">
        <ele>66.199996948242</ele>
        <time>2015-10-26T19:55:55.000Z</time>
      </trkpt>
      <trkpt lat="48.86315" lon="2.28822">
        <ele>66</ele>
        <time>2015-10-26T19:56:00.000Z</time>
      </trkpt>
      <trkpt lat="48.86315" lon="2.28821">
        <ele>66</ele>
        <time>2015-10-26T19:56:01.000Z</time>
      </trkpt>
      <trkpt lat="48.86315" lon="2.2882">
        <ele>66</ele>
        <time>2015-10-26T19:56:02.000Z</time>
      </trkpt>
      <trkpt lat="48.86311" lon="2.28819">
        <ele>65.599998474121</ele>
        <time>2015-10-26T19:56:06.000Z</time>
      </trkpt>
      <trkpt lat="48.86309" lon="2.28821">
        <ele>65.599998474121</ele>
        <time>2015-10-26T19:56:16.000Z</time>
      </trkpt>
      <trkpt lat="48.86308" lon="2.28822">
        <ele>65.400001525879</ele>
        <time>2015-10-26T19:56:17.000Z</time>
      </trkpt>
      <trkpt lat="48.863" lon="2.28825">
        <ele>64.800003051758</ele>
        <time>2015-10-26T19:56:23.000Z</time>
      </trkpt>
      <trkpt lat="48.86296" lon="2.28826">
        <ele>64.599998474121</ele>
        <time>2015-10-26T19:56:25.000Z</time>
      </trkpt>
      <trkpt lat="48.86287" lon="2.28817">
        <ele>64</ele>
        <time>2015-10-26T19:56:31.000Z</time>
      </trkpt>
      <trkpt lat="48.86275" lon="2.28806">
        <ele>62.799999237061</ele>
        <time>2015-10-26T19:56:37.000Z</time>
      </trkpt>
      <trkpt lat="48.86268" lon="2.28795">
        <ele>62.799999237061</ele>
        <time>2015-10-26T19:56:42.000Z</time>
      </trkpt>
      <trkpt lat="48.86255" lon="2.28776">
        <ele>63.200000762939</ele>
        <time>2015-10-26T19:56:47.000Z</time>
      </trkpt>
      <trkpt lat="48.86252" lon="2.28772">
        <ele>63.400001525879</ele>
        <time>2015-10-26T19:56:48.000Z</time>
      </trkpt>
      <trkpt lat="48.86242" lon="2.2876">
        <ele>63.599998474121</ele>
        <time>2015-10-26T19:56:52.000Z</time>
      </trkpt>
      <trkpt lat="48.86235" lon="2.28745">
        <ele>64</ele>
        <time>2015-10-26T19:56:57.000Z</time>
      </trkpt>
      <trkpt lat="48.86228" lon="2.28727">
        <ele>65.400001525879</ele>
        <time>2015-10-26T19:57:02.000Z</time>
      </trkpt>
      <trkpt lat="48.86216" lon="2.28709">
        <ele>67</ele>
        <time>2015-10-26T19:57:09.000Z</time>
      </trkpt>
      <trkpt lat="48.86208" lon="2.287">
        <ele>68</ele>
        <time>2015-10-26T19:57:13.000Z</time>
      </trkpt>
      <trkpt lat="48.86207" lon="2.28697">
        <ele>68.199996948242</ele>
        <time>2015-10-26T19:57:14.000Z</time>
      </trkpt>
      <trkpt lat="48.862" lon="2.2869">
        <ele>68.800003051758</ele>
        <time>2015-10-26T19:57:17.000Z</time>
      </trkpt>
      <trkpt lat="48.8619" lon="2.28681">
        <ele>69.800003051758</ele>
        <time>2015-10-26T19:57:21.000Z</time>
      </trkpt>
      <trkpt lat="48.86176" lon="2.28676">
        <ele>70.199996948242</ele>
        <time>2015-10-26T19:57:26.000Z</time>
      </trkpt>
      <trkpt lat="48.86168" lon="2.28676">
        <ele>70.199996948242</ele>
        <time>2015-10-26T19:57:30.000Z</time>
      </trkpt>
      <trkpt lat="48.86165" lon="2.28675">
        <ele>70.199996948242</ele>
        <time>2015-10-26T19:57:32.000Z</time>
      </trkpt>
      <trkpt lat="48.86156" lon="2.28669">
        <ele>70.599998474121</ele>
        <time>2015-10-26T19:57:36.000Z</time>
      </trkpt>
      <trkpt lat="48.86154" lon="2.28668">
        <ele>70.800003051758</ele>
        <time>2015-10-26T19:57:37.000Z</time>
      </trkpt>
      <trkpt lat="48.86135" lon="2.28658">
        <ele>71.400001525879</ele>
        <time>2015-10-26T19:57:43.000Z</time>
      </trkpt>
      <trkpt lat="48.86125" lon="2.2865">
        <ele>72</ele>
        <time>2015-10-26T19:57:47.000Z</time>
      </trkpt>
      <trkpt lat="48.86106" lon="2.28637">
        <ele>72.800003051758</ele>
        <time>2015-10-26T19:57:53.000Z</time>
      </trkpt>
      <trkpt lat="48.86089" lon="2.28625">
        <ele>73</ele>
        <time>2015-10-26T19:57:58.000Z</time>
      </trkpt>
      <trkpt lat="48.86079" lon="2.28618">
        <ele>73</ele>
        <time>2015-10-26T19:58:02.000Z</time>
      </trkpt>
      <trkpt lat="48.86068" lon="2.28601">
        <ele>73.599998474121</ele>
        <time>2015-10-26T19:58:07.000Z</time>
      </trkpt>
      <trkpt lat="48.86061" lon="2.28593">
        <ele>73.800003051758</ele>
        <time>2015-10-26T19:58:09.000Z</time>
      </trkpt>
      <trkpt lat="48.86038" lon="2.28577">
        <ele>73.800003051758</ele>
        <time>2015-10-26T19:58:14.000Z</time>
      </trkpt>
      <trkpt lat="48.86018" lon="2.28565">
        <ele>72.800003051758</ele>
        <time>2015-10-26T19:58:18.000Z</time>
      </trkpt>
      <trkpt lat="48.86004" lon="2.28555">
        <ele>72.599998474121</ele>
        <time>2015-10-26T19:58:21.000Z</time>
      </trkpt>
      <trkpt lat="48.85993" lon="2.28544">
        <ele>72.199996948242</ele>
        <time>2015-10-26T19:58:23.000Z</time>
      </trkpt>
      <trkpt lat="48.85985" lon="2.28535">
        <ele>72</ele>
        <time>2015-10-26T19:58:25.000Z</time>
      </trkpt>
      <trkpt lat="48.85969" lon="2.28523">
        <ele>71.800003051758</ele>
        <time>2015-10-26T19:58:28.000Z</time>
      </trkpt>
      <trkpt lat="48.85958" lon="2.28518">
        <ele>71.400001525879</ele>
        <time>2015-10-26T19:58:30.000Z</time>
      </trkpt>
      <trkpt lat="48.85936" lon="2.28504">
        <ele>70.599998474121</ele>
        <time>2015-10-26T19:58:34.000Z</time>
      </trkpt>
      <trkpt lat="48.85918" lon="2.28493">
        <ele>69.400001525879</ele>
        <time>2015-10-26T19:58:37.000Z</time>
      </trkpt>
      <trkpt lat="48.85913" lon="2.28488">
        <ele>69.199996948242</ele>
        <time>2015-10-26T19:58:38.000Z</time>
      </trkpt>
      <trkpt lat="48.859" lon="2.28478">
        <ele>68.400001525879</ele>
        <time>2015-10-26T19:58:41.000Z</time>
      </trkpt>
      <trkpt lat="48.85881" lon="2.28469">
        <ele>67</ele>
        <time>2015-10-26T19:58:45.000Z</time>
      </trkpt>
      <trkpt lat="48.85876" lon="2.28467">
        <ele>66.599998474121</ele>
        <time>2015-10-26T19:58:46.000Z</time>
      </trkpt>
      <trkpt lat="48.85866" lon="2.28462">
        <ele>66</ele>
        <time>2015-10-26T19:58:48.000Z</time>
      </trkpt>
      <trkpt lat="48.85851" lon="2.28457">
        <ele>65.199996948242</ele>
        <time>2015-10-26T19:58:52.000Z</time>
      </trkpt>
      <trkpt lat="48.85844" lon="2.28453">
        <ele>65</ele>
        <time>2015-10-26T19:58:54.000Z</time>
      </trkpt>
      <trkpt lat="48.85832" lon="2.28443">
        <ele>64.800003051758</ele>
        <time>2015-10-26T19:58:57.000Z</time>
      </trkpt>
      <trkpt lat="48.8582" lon="2.28428">
        <ele>64.800003051758</ele>
        <time>2015-10-26T19:59:01.000Z</time>
      </trkpt>
      <trkpt lat="48.85807" lon="2.28411">
        <ele>64.800003051758</ele>
        <time>2015-10-26T19:59:05.000Z</time>
      </trkpt>
      <trkpt lat="48.85802" lon="2.28407">
        <ele>65.199996948242</ele>
        <time>2015-10-26T19:59:06.000Z</time>
      </trkpt>
      <trkpt lat="48.85789" lon="2.28389">
        <ele>67</ele>
        <time>2015-10-26T19:59:10.000Z</time>
      </trkpt>
      <trkpt lat="48.85782" lon="2.28382">
        <ele>67.599998474121</ele>
        <time>2015-10-26T19:59:12.000Z</time>
      </trkpt>
      <trkpt lat="48.85774" lon="2.28375">
        <ele>68</ele>
        <time>2015-10-26T19:59:14.000Z</time>
      </trkpt>
      <trkpt lat="48.85758" lon="2.28358">
        <ele>67.400001525879</ele>
        <time>2015-10-26T19:59:18.000Z</time>
      </trkpt>
      <trkpt lat="48.85743" lon="2.28343">
        <ele>66.400001525879</ele>
        <time>2015-10-26T19:59:22.000Z</time>
      </trkpt>
      <trkpt lat="48.85739" lon="2.2834">
        <ele>66.199996948242</ele>
        <time>2015-10-26T19:59:23.000Z</time>
      </trkpt>
      <trkpt lat="48.85734" lon="2.28334">
        <ele>66.199996948242</ele>
        <time>2015-10-26T19:59:24.000Z</time>
      </trkpt>
      <trkpt lat="48.85717" lon="2.28313">
        <ele>65.199996948242</ele>
        <time>2015-10-26T19:59:29.000Z</time>
      </trkpt>
      <trkpt lat="48.8571" lon="2.28304">
        <ele>64.800003051758</ele>
        <time>2015-10-26T19:59:31.000Z</time>
      </trkpt>
      <trkpt lat="48.85704" lon="2.28297">
        <ele>64.400001525879</ele>
        <time>2015-10-26T19:59:33.000Z</time>
      </trkpt>
      <trkpt lat="48.85688" lon="2.28277">
        <ele>63.400001525879</ele>
        <time>2015-10-26T19:59:37.000Z</time>
      </trkpt>
      <trkpt lat="48.85685" lon="2.28273">
        <ele>63.200000762939</ele>
        <time>2015-10-26T19:59:38.000Z</time>
      </trkpt>
      <trkpt lat="48.85675" lon="2.28257">
        <ele>62.400001525879</ele>
        <time>2015-10-26T19:59:42.000Z</time>
      </trkpt>
      <trkpt lat="48.8567" lon="2.28247">
        <ele>62</ele>
        <time>2015-10-26T19:59:44.000Z</time>
      </trkpt>
      <trkpt lat="48.85665" lon="2.28238">
        <ele>62.200000762939</ele>
        <time>2015-10-26T19:59:46.000Z</time>
      </trkpt>
      <trkpt lat="48.85656" lon="2.28225">
        <ele>62.200000762939</ele>
        <time>2015-10-26T19:59:49.000Z</time>
      </trkpt>
      <trkpt lat="48.85643" lon="2.28206">
        <ele>62</ele>
        <time>2015-10-26T19:59:54.000Z</time>
      </trkpt>
      <trkpt lat="48.85631" lon="2.28195">
        <ele>61</ele>
        <time>2015-10-26T19:59:58.000Z</time>
      </trkpt>
      <trkpt lat="48.85621" lon="2.28182">
        <ele>60.599998474121</ele>
        <time>2015-10-26T20:00:02.000Z</time>
      </trkpt>
      <trkpt lat="48.85606" lon="2.28166">
        <ele>59.599998474121</ele>
        <time>2015-10-26T20:00:07.000Z</time>
      </trkpt>
      <trkpt lat="48.85602" lon="2.28159">
        <ele>59.799999237061</ele>
        <time>2015-10-26T20:00:09.000Z</time>
      </trkpt>
      <trkpt lat="48.85584" lon="2.28134">
        <ele>59</ele>
        <time>2015-10-26T20:00:15.000Z</time>
      </trkpt>
      <trkpt lat="48.8557" lon="2.28116">
        <ele>58.400001525879</ele>
        <time>2015-10-26T20:00:20.000Z</time>
      </trkpt>
      <trkpt lat="48.85556" lon="2.28098">
        <ele>57.599998474121</ele>
        <time>2015-10-26T20:00:25.000Z</time>
      </trkpt>
      <trkpt lat="48.85539" lon="2.28081">
        <ele>56.599998474121</ele>
        <time>2015-10-26T20:00:30.000Z</time>
      </trkpt>
      <trkpt lat="48.85523" lon="2.28062">
        <ele>56</ele>
        <time>2015-10-26T20:00:36.000Z</time>
      </trkpt>
      <trkpt lat="48.85508" lon="2.28043">
        <ele>55.599998474121</ele>
        <time>2015-10-26T20:00:41.000Z</time>
      </trkpt>
      <trkpt lat="48.85498" lon="2.28016">
        <ele>56.200000762939</ele>
        <time>2015-10-26T20:00:46.000Z</time>
      </trkpt>
      <trkpt lat="48.85492" lon="2.27999">
        <ele>56.599998474121</ele>
        <time>2015-10-26T20:00:49.000Z</time>
      </trkpt>
      <trkpt lat="48.85485" lon="2.2797">
        <ele>56</ele>
        <time>2015-10-26T20:00:55.000Z</time>
      </trkpt>
      <trkpt lat="48.85478" lon="2.2794">
        <ele>55.799999237061</ele>
        <time>2015-10-26T20:01:01.000Z</time>
      </trkpt>
      <trkpt lat="48.85472" lon="2.27922">
        <ele>55.599998474121</ele>
        <time>2015-10-26T20:01:04.000Z</time>
      </trkpt>
      <trkpt lat="48.85466" lon="2.2791">
        <ele>55.400001525879</ele>
        <time>2015-10-26T20:01:06.000Z</time>
      </trkpt>
      <trkpt lat="48.85452" lon="2.2788">
        <ele>54.599998474121</ele>
        <time>2015-10-26T20:01:12.000Z</time>
      </trkpt>
      <trkpt lat="48.85441" lon="2.2786">
        <ele>53.799999237061</ele>
        <time>2015-10-26T20:01:19.000Z</time>
      </trkpt>
      <trkpt lat="48.85436" lon="2.27848">
        <ele>53.599998474121</ele>
        <time>2015-10-26T20:01:24.000Z</time>
      </trkpt>
      <trkpt lat="48.85428" lon="2.27836">
        <ele>53.400001525879</ele>
        <time>2015-10-26T20:01:29.000Z</time>
      </trkpt>
      <trkpt lat="48.85414" lon="2.27814">
        <ele>52.200000762939</ele>
        <time>2015-10-26T20:01:34.000Z</time>
      </trkpt>
      <trkpt lat="48.85398" lon="2.2779">
        <ele>50.400001525879</ele>
        <time>2015-10-26T20:01:38.000Z</time>
      </trkpt>
      <trkpt lat="48.85384" lon="2.27771">
        <ele>49.200000762939</ele>
        <time>2015-10-26T20:01:41.000Z</time>
      </trkpt>
      <trkpt lat="48.85366" lon="2.27744">
        <ele>47.200000762939</ele>
        <time>2015-10-26T20:01:44.000Z</time>
      </trkpt>
      <trkpt lat="48.85349" lon="2.2772">
        <ele>45</ele>
        <time>2015-10-26T20:01:47.000Z</time>
      </trkpt>
      <trkpt lat="48.85334" lon="2.27699">
        <ele>43.799999237061</ele>
        <time>2015-10-26T20:01:50.000Z</time>
      </trkpt>
      <trkpt lat="48.8532" lon="2.27681">
        <ele>42.799999237061</ele>
        <time>2015-10-26T20:01:53.000Z</time>
      </trkpt>
      <trkpt lat="48.85308" lon="2.27665">
        <ele>41.799999237061</ele>
        <time>2015-10-26T20:01:56.000Z</time>
      </trkpt>
      <trkpt lat="48.8529" lon="2.27643">
        <ele>40.599998474121</ele>
        <time>2015-10-26T20:02:01.000Z</time>
      </trkpt>
      <trkpt lat="48.85286" lon="2.27638">
        <ele>40.400001525879</ele>
        <time>2015-10-26T20:02:02.000Z</time>
      </trkpt>
      <trkpt lat="48.85273" lon="2.27616">
        <ele>39.400001525879</ele>
        <time>2015-10-26T20:02:08.000Z</time>
      </trkpt>
      <trkpt lat="48.8527" lon="2.2761">
        <ele>39.400001525879</ele>
        <time>2015-10-26T20:02:10.000Z</time>
      </trkpt>
      <trkpt lat="48.85269" lon="2.276">
        <ele>39.400001525879</ele>
        <time>2015-10-26T20:02:15.000Z</time>
      </trkpt>
      <trkpt lat="48.85274" lon="2.27602">
        <ele>39.400001525879</ele>
        <time>2015-10-26T20:02:26.000Z</time>
      </trkpt>
      <trkpt lat="48.85282" lon="2.27601">
        <ele>39.599998474121</ele>
        <time>2015-10-26T20:02:44.000Z</time>
      </trkpt>
      <trkpt lat="48.8528" lon="2.27597">
        <ele>39.599998474121</ele>
        <time>2015-10-26T20:02:55.000Z</time>
      </trkpt>
      <trkpt lat="48.85285" lon="2.27596">
        <ele>39.799999237061</ele>
        <time>2015-10-26T20:03:11.000Z</time>
      </trkpt>
      <trkpt lat="48.85287" lon="2.27596">
        <ele>39.799999237061</ele>
        <time>2015-10-26T20:03:24.000Z</time>
      </trkpt>
      <trkpt lat="48.85288" lon="2.27595">
        <ele>40</ele>
        <time>2015-10-26T20:03:38.000Z</time>
      </trkpt>
      <trkpt lat="48.85289" lon="2.27584">
        <ele>40</ele>
        <time>2015-10-26T20:03:44.000Z</time>
      </trkpt>
      <trkpt lat="48.85292" lon="2.27581">
        <ele>40.200000762939</ele>
        <time>2015-10-26T20:03:47.000Z</time>
      </trkpt>
      <trkpt lat="48.85294" lon="2.2758">
        <ele>40.200000762939</ele>
        <time>2015-10-26T20:03:53.000Z</time>
      </trkpt>
      <trkpt lat="48.85287" lon="2.27581">
        <ele>39.799999237061</ele>
        <time>2015-10-26T20:04:09.000Z</time>
      </trkpt>
      <trkpt lat="48.85283" lon="2.27594">
        <ele>39.599998474121</ele>
        <time>2015-10-26T20:04:42.000Z</time>
      </trkpt>
      <trkpt lat="48.85279" lon="2.27597">
        <ele>39.599998474121</ele>
        <time>2015-10-26T20:06:40.000Z</time>
      </trkpt>
      <trkpt lat="48.85276" lon="2.27617">
        <ele>39.599998474121</ele>
        <time>2015-10-26T20:08:24.000Z</time>
      </trkpt>
      <trkpt lat="48.85274" lon="2.27611">
        <ele>39.400001525879</ele>
        <time>2015-10-26T20:08:28.000Z</time>
      </trkpt>
      <trkpt lat="48.85274" lon="2.27603">
        <ele>39.400001525879</ele>
        <time>2015-10-26T20:08:40.000Z</time>
      </trkpt>
      <trkpt lat="48.85267" lon="2.27624">
        <ele>39.799999237061</ele>
        <time>2015-10-26T20:10:10.000Z</time>
      </trkpt>
      <trkpt lat="48.85266" lon="2.2761">
        <ele>39.599998474121</ele>
        <time>2015-10-26T20:10:46.000Z</time>
      </trkpt>
      <trkpt lat="48.85265" lon="2.27607">
        <ele>39.599998474121</ele>
        <time>2015-10-26T20:10:47.000Z</time>
      </trkpt>
      <trkpt lat="48.85261" lon="2.27588">
        <ele>39.599998474121</ele>
        <time>2015-10-26T20:10:52.000Z</time>
      </trkpt>
      <trkpt lat="48.85255" lon="2.27569">
        <ele>39</ele>
        <time>2015-10-26T20:10:56.000Z</time>
      </trkpt>
      <trkpt lat="48.85247" lon="2.27544">
        <ele>38.400001525879</ele>
        <time>2015-10-26T20:11:00.000Z</time>
      </trkpt>
      <trkpt lat="48.8524" lon="2.27526">
        <ele>38.200000762939</ele>
        <time>2015-10-26T20:11:03.000Z</time>
      </trkpt>
      <trkpt lat="48.8523" lon="2.27509">
        <ele>38</ele>
        <time>2015-10-26T20:11:06.000Z</time>
      </trkpt>
      <trkpt lat="48.85216" lon="2.27478">
        <ele>38.799999237061</ele>
        <time>2015-10-26T20:11:11.000Z</time>
      </trkpt>
      <trkpt lat="48.85213" lon="2.27472">
        <ele>39</ele>
        <time>2015-10-26T20:11:12.000Z</time>
      </trkpt>
      <trkpt lat="48.85197" lon="2.27446">
        <ele>40.200000762939</ele>
        <time>2015-10-26T20:11:17.000Z</time>
      </trkpt>
      <trkpt lat="48.85194" lon="2.27441">
        <ele>40.400001525879</ele>
        <time>2015-10-26T20:11:18.000Z</time>
      </trkpt>
      <trkpt lat="48.85182" lon="2.27413">
        <ele>42.200000762939</ele>
        <time>2015-10-26T20:11:23.000Z</time>
      </trkpt>
      <trkpt lat="48.8518" lon="2.27405">
        <ele>42.400001525879</ele>
        <time>2015-10-26T20:11:24.000Z</time>
      </trkpt>
      <trkpt lat="48.85175" lon="2.27393">
        <ele>42.599998474121</ele>
        <time>2015-10-26T20:11:26.000Z</time>
      </trkpt>
      <trkpt lat="48.85162" lon="2.2736">
        <ele>43.599998474121</ele>
        <time>2015-10-26T20:11:31.000Z</time>
      </trkpt>
      <trkpt lat="48.8515" lon="2.27333">
        <ele>44.400001525879</ele>
        <time>2015-10-26T20:11:35.000Z</time>
      </trkpt>
      <trkpt lat="48.8514" lon="2.27305">
        <ele>44.799999237061</ele>
        <time>2015-10-26T20:11:39.000Z</time>
      </trkpt>
      <trkpt lat="48.85129" lon="2.27277">
        <ele>45.400001525879</ele>
        <time>2015-10-26T20:11:43.000Z</time>
      </trkpt>
      <trkpt lat="48.85119" lon="2.27247">
        <ele>45.599998474121</ele>
        <time>2015-10-26T20:11:47.000Z</time>
      </trkpt>
      <trkpt lat="48.85108" lon="2.27218">
        <ele>44.599998474121</ele>
        <time>2015-10-26T20:11:51.000Z</time>
      </trkpt>
      <trkpt lat="48.85096" lon="2.27189">
        <ele>43.599998474121</ele>
        <time>2015-10-26T20:11:55.000Z</time>
      </trkpt>
      <trkpt lat="48.85093" lon="2.27182">
        <ele>43.400001525879</ele>
        <time>2015-10-26T20:11:56.000Z</time>
      </trkpt>
      <trkpt lat="48.85086" lon="2.27168">
        <ele>43</ele>
        <time>2015-10-26T20:11:58.000Z</time>
      </trkpt>
      <trkpt lat="48.85073" lon="2.2714">
        <ele>42.599998474121</ele>
        <time>2015-10-26T20:12:02.000Z</time>
      </trkpt>
      <trkpt lat="48.85066" lon="2.27127">
        <ele>42.599998474121</ele>
        <time>2015-10-26T20:12:04.000Z</time>
      </trkpt>
      <trkpt lat="48.85063" lon="2.2712">
        <ele>42.599998474121</ele>
        <time>2015-10-26T20:12:05.000Z</time>
      </trkpt>
      <trkpt lat="48.85049" lon="2.27083">
        <ele>43.200000762939</ele>
        <time>2015-10-26T20:12:10.000Z</time>
      </trkpt>
      <trkpt lat="48.85047" lon="2.27075">
        <ele>43.400001525879</ele>
        <time>2015-10-26T20:12:11.000Z</time>
      </trkpt>
      <trkpt lat="48.85036" lon="2.27046">
        <ele>43.599998474121</ele>
        <time>2015-10-26T20:12:15.000Z</time>
      </trkpt>
      <trkpt lat="48.85025" lon="2.27023">
        <ele>43.799999237061</ele>
        <time>2015-10-26T20:12:18.000Z</time>
      </trkpt>
      <trkpt lat="48.85015" lon="2.26998">
        <ele>44.200000762939</ele>
        <time>2015-10-26T20:12:21.000Z</time>
      </trkpt>
      <trkpt lat="48.85012" lon="2.2699">
        <ele>44.400001525879</ele>
        <time>2015-10-26T20:12:22.000Z</time>
      </trkpt>
      <trkpt lat="48.85001" lon="2.26958">
        <ele>45.200000762939</ele>
        <time>2015-10-26T20:12:26.000Z</time>
      </trkpt>
      <trkpt lat="48.84989" lon="2.26929">
        <ele>46</ele>
        <time>2015-10-26T20:12:30.000Z</time>
      </trkpt>
      <trkpt lat="48.84984" lon="2.26915">
        <ele>46.400001525879</ele>
        <time>2015-10-26T20:12:32.000Z</time>
      </trkpt>
      <trkpt lat="48.84974" lon="2.26889">
        <ele>46</ele>
        <time>2015-10-26T20:12:36.000Z</time>
      </trkpt>
      <trkpt lat="48.84973" lon="2.26882">
        <ele>45.799999237061</ele>
        <time>2015-10-26T20:12:37.000Z</time>
      </trkpt>
      <trkpt lat="48.84969" lon="2.26863">
        <ele>45.400001525879</ele>
        <time>2015-10-26T20:12:40.000Z</time>
      </trkpt>
      <trkpt lat="48.84966" lon="2.2685">
        <ele>45.400001525879</ele>
        <time>2015-10-26T20:12:42.000Z</time>
      </trkpt>
      <trkpt lat="48.84965" lon="2.26843">
        <ele>45.400001525879</ele>
        <time>2015-10-26T20:12:43.000Z</time>
      </trkpt>
      <trkpt lat="48.8496" lon="2.26814">
        <ele>45.799999237061</ele>
        <time>2015-10-26T20:12:47.000Z</time>
      </trkpt>
      <trkpt lat="48.84957" lon="2.26797">
        <ele>46.200000762939</ele>
        <time>2015-10-26T20:12:50.000Z</time>
      </trkpt>
      <trkpt lat="48.84948" lon="2.26767">
        <ele>46.799999237061</ele>
        <time>2015-10-26T20:12:55.000Z</time>
      </trkpt>
      <trkpt lat="48.84945" lon="2.26761">
        <ele>46.799999237061</ele>
        <time>2015-10-26T20:12:56.000Z</time>
      </trkpt>
      <trkpt lat="48.8494" lon="2.26748">
        <ele>47</ele>
        <time>2015-10-26T20:12:58.000Z</time>
      </trkpt>
      <trkpt lat="48.84928" lon="2.26725">
        <ele>47.599998474121</ele>
        <time>2015-10-26T20:13:02.000Z</time>
      </trkpt>
      <trkpt lat="48.84919" lon="2.26706">
        <ele>48</ele>
        <time>2015-10-26T20:13:05.000Z</time>
      </trkpt>
      <trkpt lat="48.84913" lon="2.26693">
        <ele>48.200000762939</ele>
        <time>2015-10-26T20:13:07.000Z</time>
      </trkpt>
      <trkpt lat="48.84902" lon="2.26667">
        <ele>48.799999237061</ele>
        <time>2015-10-26T20:13:12.000Z</time>
      </trkpt>
      <trkpt lat="48.84901" lon="2.26662">
        <ele>49</ele>
        <time>2015-10-26T20:13:13.000Z</time>
      </trkpt>
      <trkpt lat="48.84899" lon="2.26653">
        <ele>49</ele>
        <time>2015-10-26T20:13:15.000Z</time>
      </trkpt>
      <trkpt lat="48.84898" lon="2.2664">
        <ele>49.200000762939</ele>
        <time>2015-10-26T20:13:18.000Z</time>
      </trkpt>
      <trkpt lat="48.84892" lon="2.26609">
        <ele>49.799999237061</ele>
        <time>2015-10-26T20:13:24.000Z</time>
      </trkpt>
      <trkpt lat="48.84892" lon="2.26579">
        <ele>49.799999237061</ele>
        <time>2015-10-26T20:13:29.000Z</time>
      </trkpt>
      <trkpt lat="48.84891" lon="2.26547">
        <ele>50.200000762939</ele>
        <time>2015-10-26T20:13:35.000Z</time>
      </trkpt>
      <trkpt lat="48.8489" lon="2.26514">
        <ele>50.400001525879</ele>
        <time>2015-10-26T20:13:41.000Z</time>
      </trkpt>
      <trkpt lat="48.84887" lon="2.26484">
        <ele>50.400001525879</ele>
        <time>2015-10-26T20:13:46.000Z</time>
      </trkpt>
      <trkpt lat="48.84883" lon="2.26459">
        <ele>50.200000762939</ele>
        <time>2015-10-26T20:13:50.000Z</time>
      </trkpt>
      <trkpt lat="48.84882" lon="2.26453">
        <ele>50.200000762939</ele>
        <time>2015-10-26T20:13:51.000Z</time>
      </trkpt>
      <trkpt lat="48.84882" lon="2.26447">
        <ele>50.200000762939</ele>
        <time>2015-10-26T20:13:52.000Z</time>
      </trkpt>
      <trkpt lat="48.84878" lon="2.26417">
        <ele>49</ele>
        <time>2015-10-26T20:13:57.000Z</time>
      </trkpt>
      <trkpt lat="48.84877" lon="2.26411">
        <ele>48.799999237061</ele>
        <time>2015-10-26T20:13:58.000Z</time>
      </trkpt>
      <trkpt lat="48.84874" lon="2.26379">
        <ele>49</ele>
        <time>2015-10-26T20:14:03.000Z</time>
      </trkpt>
      <trkpt lat="48.84872" lon="2.26371">
        <ele>49.200000762939</ele>
        <time>2015-10-26T20:14:04.000Z</time>
      </trkpt>
      <trkpt lat="48.8487" lon="2.26364">
        <ele>49.400001525879</ele>
        <time>2015-10-26T20:14:05.000Z</time>
      </trkpt>
      <trkpt lat="48.8487" lon="2.26344">
        <ele>49.599998474121</ele>
        <time>2015-10-26T20:14:08.000Z</time>
      </trkpt>
      <trkpt lat="48.84865" lon="2.26322">
        <ele>50</ele>
        <time>2015-10-26T20:14:11.000Z</time>
      </trkpt>
      <trkpt lat="48.84864" lon="2.26308">
        <ele>49.599998474121</ele>
        <time>2015-10-26T20:14:13.000Z</time>
      </trkpt>
      <trkpt lat="48.84857" lon="2.26286">
        <ele>49.799999237061</ele>
        <time>2015-10-26T20:14:16.000Z</time>
      </trkpt>
      <trkpt lat="48.84852" lon="2.26264">
        <ele>49.400001525879</ele>
        <time>2015-10-26T20:14:19.000Z</time>
      </trkpt>
      <trkpt lat="48.84851" lon="2.26251">
        <ele>49.200000762939</ele>
        <time>2015-10-26T20:14:21.000Z</time>
      </trkpt>
      <trkpt lat="48.84853" lon="2.26224">
        <ele>49.400001525879</ele>
        <time>2015-10-26T20:14:25.000Z</time>
      </trkpt>
      <trkpt lat="48.84849" lon="2.26192">
        <ele>49.799999237061</ele>
        <time>2015-10-26T20:14:29.000Z</time>
      </trkpt>
      <trkpt lat="48.84848" lon="2.26162">
        <ele>50.200000762939</ele>
        <time>2015-10-26T20:14:33.000Z</time>
      </trkpt>
      <trkpt lat="48.84847" lon="2.26135">
        <ele>50.799999237061</ele>
        <time>2015-10-26T20:14:37.000Z</time>
      </trkpt>
      <trkpt lat="48.84845" lon="2.2611">
        <ele>51.400001525879</ele>
        <time>2015-10-26T20:14:41.000Z</time>
      </trkpt>
      <trkpt lat="48.84844" lon="2.26089">
        <ele>52</ele>
        <time>2015-10-26T20:14:45.000Z</time>
      </trkpt>
      <trkpt lat="48.84844" lon="2.26084">
        <ele>52</ele>
        <time>2015-10-26T20:14:46.000Z</time>
      </trkpt>
      <trkpt lat="48.84842" lon="2.26064">
        <ele>52</ele>
        <time>2015-10-26T20:14:52.000Z</time>
      </trkpt>
      <trkpt lat="48.84842" lon="2.2606">
        <ele>51.799999237061</ele>
        <time>2015-10-26T20:14:59.000Z</time>
      </trkpt>
      <trkpt lat="48.84846" lon="2.26053">
        <ele>51.400001525879</ele>
        <time>2015-10-26T20:15:21.000Z</time>
      </trkpt>
      <trkpt lat="48.84859" lon="2.26058">
        <ele>51.200000762939</ele>
        <time>2015-10-26T20:15:28.000Z</time>
      </trkpt>
      <trkpt lat="48.84872" lon="2.26062">
        <ele>51.599998474121</ele>
        <time>2015-10-26T20:15:34.000Z</time>
      </trkpt>
      <trkpt lat="48.84882" lon="2.26064">
        <ele>51.799999237061</ele>
        <time>2015-10-26T20:15:38.000Z</time>
      </trkpt>
      <trkpt lat="48.84884" lon="2.26066">
        <ele>51.799999237061</ele>
        <time>2015-10-26T20:15:39.000Z</time>
      </trkpt>
      <trkpt lat="48.84894" lon="2.26072">
        <ele>52.200000762939</ele>
        <time>2015-10-26T20:15:42.000Z</time>
      </trkpt>
      <trkpt lat="48.84913" lon="2.26081">
        <ele>52.599998474121</ele>
        <time>2015-10-26T20:15:46.000Z</time>
      </trkpt>
      <trkpt lat="48.84921" lon="2.26085">
        <ele>52.799999237061</ele>
        <time>2015-10-26T20:15:48.000Z</time>
      </trkpt>
      <trkpt lat="48.84932" lon="2.26092">
        <ele>52.799999237061</ele>
        <time>2015-10-26T20:15:51.000Z</time>
      </trkpt>
      <trkpt lat="48.84955" lon="2.26101">
        <ele>54</ele>
        <time>2015-10-26T20:15:55.000Z</time>
      </trkpt>
      <trkpt lat="48.8496" lon="2.26103">
        <ele>54.400001525879</ele>
        <time>2015-10-26T20:15:56.000Z</time>
      </trkpt>
      <trkpt lat="48.84977" lon="2.26109">
        <ele>55.799999237061</ele>
        <time>2015-10-26T20:16:01.000Z</time>
      </trkpt>
      <trkpt lat="48.84982" lon="2.26115">
        <ele>56</ele>
        <time>2015-10-26T20:16:04.000Z</time>
      </trkpt>
      <trkpt lat="48.8499" lon="2.26123">
        <ele>56.599998474121</ele>
        <time>2015-10-26T20:16:08.000Z</time>
      </trkpt>
      <trkpt lat="48.84992" lon="2.26125">
        <ele>56.799999237061</ele>
        <time>2015-10-26T20:16:09.000Z</time>
      </trkpt>
      <trkpt lat="48.85011" lon="2.26141">
        <ele>58.200000762939</ele>
        <time>2015-10-26T20:16:15.000Z</time>
      </trkpt>
      <trkpt lat="48.85029" lon="2.26153">
        <ele>59.400001525879</ele>
        <time>2015-10-26T20:16:19.000Z</time>
      </trkpt>
      <trkpt lat="48.8504" lon="2.26159">
        <ele>59.799999237061</ele>
        <time>2015-10-26T20:16:21.000Z</time>
      </trkpt>
      <trkpt lat="48.85048" lon="2.26164">
        <ele>60.200000762939</ele>
        <time>2015-10-26T20:16:23.000Z</time>
      </trkpt>
      <trkpt lat="48.85067" lon="2.26176">
        <ele>60.599998474121</ele>
        <time>2015-10-26T20:16:27.000Z</time>
      </trkpt>
      <trkpt lat="48.8508" lon="2.26184">
        <ele>61</ele>
        <time>2015-10-26T20:16:30.000Z</time>
      </trkpt>
      <trkpt lat="48.85092" lon="2.2619">
        <ele>61.400001525879</ele>
        <time>2015-10-26T20:16:33.000Z</time>
      </trkpt>
      <trkpt lat="48.85105" lon="2.2619">
        <ele>62</ele>
        <time>2015-10-26T20:16:37.000Z</time>
      </trkpt>
      <trkpt lat="48.8511" lon="2.26191">
        <ele>62</ele>
        <time>2015-10-26T20:16:38.000Z</time>
      </trkpt>
      <trkpt lat="48.85125" lon="2.26196">
        <ele>61.599998474121</ele>
        <time>2015-10-26T20:16:41.000Z</time>
      </trkpt>
      <trkpt lat="48.85146" lon="2.262">
        <ele>61.200000762939</ele>
        <time>2015-10-26T20:16:45.000Z</time>
      </trkpt>
      <trkpt lat="48.85173" lon="2.26206">
        <ele>60.599998474121</ele>
        <time>2015-10-26T20:16:50.000Z</time>
      </trkpt>
      <trkpt lat="48.85185" lon="2.2621">
        <ele>60.400001525879</ele>
        <time>2015-10-26T20:16:52.000Z</time>
      </trkpt>
      <trkpt lat="48.85205" lon="2.26214">
        <ele>61.200000762939</ele>
        <time>2015-10-26T20:16:57.000Z</time>
      </trkpt>
      <trkpt lat="48.85216" lon="2.26217">
        <ele>62</ele>
        <time>2015-10-26T20:17:00.000Z</time>
      </trkpt>
      <trkpt lat="48.85235" lon="2.26218">
        <ele>63.400001525879</ele>
        <time>2015-10-26T20:17:03.000Z</time>
      </trkpt>
      <trkpt lat="48.85259" lon="2.26223">
        <ele>64</ele>
        <time>2015-10-26T20:17:08.000Z</time>
      </trkpt>
      <trkpt lat="48.85264" lon="2.26225">
        <ele>64</ele>
        <time>2015-10-26T20:17:09.000Z</time>
      </trkpt>
      <trkpt lat="48.85273" lon="2.26227">
        <ele>63.799999237061</ele>
        <time>2015-10-26T20:17:12.000Z</time>
      </trkpt>
      <trkpt lat="48.8528" lon="2.26225">
        <ele>63.200000762939</ele>
        <time>2015-10-26T20:17:16.000Z</time>
      </trkpt>
      <trkpt lat="48.85284" lon="2.26226">
        <ele>63</ele>
        <time>2015-10-26T20:17:24.000Z</time>
      </trkpt>
      <trkpt lat="48.85289" lon="2.26229">
        <ele>62.799999237061</ele>
        <time>2015-10-26T20:17:30.000Z</time>
      </trkpt>
      <trkpt lat="48.85297" lon="2.26219">
        <ele>61.599998474121</ele>
        <time>2015-10-26T20:17:44.000Z</time>
      </trkpt>
      <trkpt lat="48.85298" lon="2.26217">
        <ele>61.400001525879</ele>
        <time>2015-10-26T20:17:45.000Z</time>
      </trkpt>
      <trkpt lat="48.85304" lon="2.26194">
        <ele>59.599998474121</ele>
        <time>2015-10-26T20:17:53.000Z</time>
      </trkpt>
      <trkpt lat="48.85305" lon="2.26194">
        <ele>59.400001525879</ele>
        <time>2015-10-26T20:18:00.000Z</time>
      </trkpt>
      <trkpt lat="48.85299" lon="2.26191">
        <ele>59.799999237061</ele>
        <time>2015-10-26T20:18:20.000Z</time>
      </trkpt>
      <trkpt lat="48.85296" lon="2.26184">
        <ele>59.400001525879</ele>
        <time>2015-10-26T20:18:22.000Z</time>
      </trkpt>
      <trkpt lat="48.85281" lon="2.26166">
        <ele>59.400001525879</ele>
        <time>2015-10-26T20:18:28.000Z</time>
      </trkpt>
      <trkpt lat="48.85256" lon="2.26149">
        <ele>60.400001525879</ele>
        <time>2015-10-26T20:18:34.000Z</time>
      </trkpt>
      <trkpt lat="48.85242" lon="2.2614">
        <ele>60.799999237061</ele>
        <time>2015-10-26T20:18:37.000Z</time>
      </trkpt>
      <trkpt lat="48.85219" lon="2.26129">
        <ele>61.200000762939</ele>
        <time>2015-10-26T20:18:41.000Z</time>
      </trkpt>
      <trkpt lat="48.85212" lon="2.26126">
        <ele>61.400001525879</ele>
        <time>2015-10-26T20:18:42.000Z</time>
      </trkpt>
      <trkpt lat="48.85206" lon="2.26124">
        <ele>61.599998474121</ele>
        <time>2015-10-26T20:18:43.000Z</time>
      </trkpt>
      <trkpt lat="48.85183" lon="2.26104">
        <ele>62.200000762939</ele>
        <time>2015-10-26T20:18:48.000Z</time>
      </trkpt>
      <trkpt lat="48.85178" lon="2.26101">
        <ele>62.200000762939</ele>
        <time>2015-10-26T20:18:49.000Z</time>
      </trkpt>
      <trkpt lat="48.85172" lon="2.26097">
        <ele>62.400001525879</ele>
        <time>2015-10-26T20:18:50.000Z</time>
      </trkpt>
      <trkpt lat="48.85154" lon="2.26087">
        <ele>62.799999237061</ele>
        <time>2015-10-26T20:18:53.000Z</time>
      </trkpt>
      <trkpt lat="48.85134" lon="2.26073">
        <ele>63.200000762939</ele>
        <time>2015-10-26T20:18:57.000Z</time>
      </trkpt>
      <trkpt lat="48.85114" lon="2.26061">
        <ele>63.200000762939</ele>
        <time>2015-10-26T20:19:01.000Z</time>
      </trkpt>
      <trkpt lat="48.85103" lon="2.26054">
        <ele>63</ele>
        <time>2015-10-26T20:19:03.000Z</time>
      </trkpt>
      <trkpt lat="48.85092" lon="2.26046">
        <ele>62.400001525879</ele>
        <time>2015-10-26T20:19:05.000Z</time>
      </trkpt>
      <trkpt lat="48.8507" lon="2.26032">
        <ele>61</ele>
        <time>2015-10-26T20:19:09.000Z</time>
      </trkpt>
      <trkpt lat="48.85051" lon="2.26019">
        <ele>59.799999237061</ele>
        <time>2015-10-26T20:19:13.000Z</time>
      </trkpt>
      <trkpt lat="48.85046" lon="2.26016">
        <ele>59.599998474121</ele>
        <time>2015-10-26T20:19:14.000Z</time>
      </trkpt>
      <trkpt lat="48.85024" lon="2.26003">
        <ele>58.200000762939</ele>
        <time>2015-10-26T20:19:18.000Z</time>
      </trkpt>
      <trkpt lat="48.85005" lon="2.25995">
        <ele>57</ele>
        <time>2015-10-26T20:19:21.000Z</time>
      </trkpt>
      <trkpt lat="48.84988" lon="2.25985">
        <ele>56.200000762939</ele>
        <time>2015-10-26T20:19:24.000Z</time>
      </trkpt>
      <trkpt lat="48.84983" lon="2.25981">
        <ele>56</ele>
        <time>2015-10-26T20:19:25.000Z</time>
      </trkpt>
      <trkpt lat="48.84955" lon="2.25966">
        <ele>54.599998474121</ele>
        <time>2015-10-26T20:19:30.000Z</time>
      </trkpt>
      <trkpt lat="48.84937" lon="2.25957">
        <ele>53.799999237061</ele>
        <time>2015-10-26T20:19:33.000Z</time>
      </trkpt>
      <trkpt lat="48.84919" lon="2.2595">
        <ele>52.599998474121</ele>
        <time>2015-10-26T20:19:36.000Z</time>
      </trkpt>
      <trkpt lat="48.84897" lon="2.25941">
        <ele>51.200000762939</ele>
        <time>2015-10-26T20:19:40.000Z</time>
      </trkpt>
      <trkpt lat="48.84878" lon="2.25933">
        <ele>50.200000762939</ele>
        <time>2015-10-26T20:19:44.000Z</time>
      </trkpt>
      <trkpt lat="48.84874" lon="2.25932">
        <ele>49.799999237061</ele>
        <time>2015-10-26T20:19:45.000Z</time>
      </trkpt>
      <trkpt lat="48.84852" lon="2.25917">
        <ele>49</ele>
        <time>2015-10-26T20:19:50.000Z</time>
      </trkpt>
      <trkpt lat="48.84848" lon="2.25914">
        <ele>49</ele>
        <time>2015-10-26T20:19:51.000Z</time>
      </trkpt>
      <trkpt lat="48.84837" lon="2.25903">
        <ele>48.200000762939</ele>
        <time>2015-10-26T20:19:54.000Z</time>
      </trkpt>
      <trkpt lat="48.84821" lon="2.25884">
        <ele>46.799999237061</ele>
        <time>2015-10-26T20:20:00.000Z</time>
      </trkpt>
      <trkpt lat="48.84803" lon="2.25871">
        <ele>45.599998474121</ele>
        <time>2015-10-26T20:20:06.000Z</time>
      </trkpt>
      <trkpt lat="48.84786" lon="2.25861">
        <ele>45</ele>
        <time>2015-10-26T20:20:12.000Z</time>
      </trkpt>
      <trkpt lat="48.84773" lon="2.25856">
        <ele>44.599998474121</ele>
        <time>2015-10-26T20:20:17.000Z</time>
      </trkpt>
      <trkpt lat="48.84758" lon="2.25848">
        <ele>44.599998474121</ele>
        <time>2015-10-26T20:20:22.000Z</time>
      </trkpt>
      <trkpt lat="48.84757" lon="2.25847">
        <ele>44.400001525879</ele>
        <time>2015-10-26T20:20:23.000Z</time>
      </trkpt>
      <trkpt lat="48.84749" lon="2.25845">
        <ele>44.599998474121</ele>
        <time>2015-10-26T20:20:28.000Z</time>
      </trkpt>
      <trkpt lat="48.84747" lon="2.25845">
        <ele>44.799999237061</ele>
        <time>2015-10-26T20:20:29.000Z</time>
      </trkpt>
      <trkpt lat="48.84745" lon="2.25844">
        <ele>44.799999237061</ele>
        <time>2015-10-26T20:20:30.000Z</time>
      </trkpt>
      <trkpt lat="48.84739" lon="2.25841">
        <ele>44.599998474121</ele>
        <time>2015-10-26T20:20:36.000Z</time>
      </trkpt>
      <trkpt lat="48.84739" lon="2.2584">
        <ele>44.599998474121</ele>
        <time>2015-10-26T20:20:37.000Z</time>
      </trkpt>
      <trkpt lat="48.84737" lon="2.25837">
        <ele>44.400001525879</ele>
        <time>2015-10-26T20:20:52.000Z</time>
      </trkpt>
      <trkpt lat="48.84732" lon="2.25836">
        <ele>44.599998474121</ele>
        <time>2015-10-26T20:20:54.000Z</time>
      </trkpt>
      <trkpt lat="48.84715" lon="2.25828">
        <ele>44.599998474121</ele>
        <time>2015-10-26T20:20:58.000Z</time>
      </trkpt>
      <trkpt lat="48.84698" lon="2.2582">
        <ele>45</ele>
        <time>2015-10-26T20:21:01.000Z</time>
      </trkpt>
      <trkpt lat="48.84673" lon="2.25808">
        <ele>44.400001525879</ele>
        <time>2015-10-26T20:21:05.000Z</time>
      </trkpt>
      <trkpt lat="48.84667" lon="2.25805">
        <ele>44.200000762939</ele>
        <time>2015-10-26T20:21:06.000Z</time>
      </trkpt>
      <trkpt lat="48.84647" lon="2.25796">
        <ele>43.599998474121</ele>
        <time>2015-10-26T20:21:09.000Z</time>
      </trkpt>
      <trkpt lat="48.84628" lon="2.25787">
        <ele>43</ele>
        <time>2015-10-26T20:21:12.000Z</time>
      </trkpt>
      <trkpt lat="48.84606" lon="2.25777">
        <ele>42.200000762939</ele>
        <time>2015-10-26T20:21:16.000Z</time>
      </trkpt>
      <trkpt lat="48.84585" lon="2.25767">
        <ele>42.200000762939</ele>
        <time>2015-10-26T20:21:20.000Z</time>
      </trkpt>
      <trkpt lat="48.8458" lon="2.25765">
        <ele>42.200000762939</ele>
        <time>2015-10-26T20:21:21.000Z</time>
      </trkpt>
      <trkpt lat="48.84561" lon="2.25756">
        <ele>42.400001525879</ele>
        <time>2015-10-26T20:21:26.000Z</time>
      </trkpt>
      <trkpt lat="48.84558" lon="2.25754">
        <ele>42.400001525879</ele>
        <time>2015-10-26T20:21:27.000Z</time>
      </trkpt>
      <trkpt lat="48.84552" lon="2.2575">
        <ele>42.200000762939</ele>
        <time>2015-10-26T20:21:29.000Z</time>
      </trkpt>
      <trkpt lat="48.84545" lon="2.25747">
        <ele>42.200000762939</ele>
        <time>2015-10-26T20:21:31.000Z</time>
      </trkpt>
      <trkpt lat="48.84539" lon="2.25745">
        <ele>42.400001525879</ele>
        <time>2015-10-26T20:21:33.000Z</time>
      </trkpt>
      <trkpt lat="48.84517" lon="2.25742">
        <ele>43.400001525879</ele>
        <time>2015-10-26T20:21:38.000Z</time>
      </trkpt>
      <trkpt lat="48.84508" lon="2.25738">
        <ele>44.200000762939</ele>
        <time>2015-10-26T20:21:40.000Z</time>
      </trkpt>
      <trkpt lat="48.84499" lon="2.25733">
        <ele>44.799999237061</ele>
        <time>2015-10-26T20:21:42.000Z</time>
      </trkpt>
      <trkpt lat="48.84485" lon="2.25728">
        <ele>46</ele>
        <time>2015-10-26T20:21:45.000Z</time>
      </trkpt>
      <trkpt lat="48.84467" lon="2.25721">
        <ele>47.400001525879</ele>
        <time>2015-10-26T20:21:48.000Z</time>
      </trkpt>
      <trkpt lat="48.84461" lon="2.25719">
        <ele>48</ele>
        <time>2015-10-26T20:21:49.000Z</time>
      </trkpt>
      <trkpt lat="48.84444" lon="2.25711">
        <ele>49.200000762939</ele>
        <time>2015-10-26T20:21:52.000Z</time>
      </trkpt>
      <trkpt lat="48.84426" lon="2.25703">
        <ele>50</ele>
        <time>2015-10-26T20:21:55.000Z</time>
      </trkpt>
      <trkpt lat="48.84407" lon="2.25693">
        <ele>50.200000762939</ele>
        <time>2015-10-26T20:21:58.000Z</time>
      </trkpt>
      <trkpt lat="48.84386" lon="2.25683">
        <ele>50.599998474121</ele>
        <time>2015-10-26T20:22:01.000Z</time>
      </trkpt>
      <trkpt lat="48.84365" lon="2.25675">
        <ele>51</ele>
        <time>2015-10-26T20:22:04.000Z</time>
      </trkpt>
      <trkpt lat="48.84343" lon="2.25664">
        <ele>50.599998474121</ele>
        <time>2015-10-26T20:22:08.000Z</time>
      </trkpt>
      <trkpt lat="48.8433" lon="2.25656">
        <ele>49.799999237061</ele>
        <time>2015-10-26T20:22:11.000Z</time>
      </trkpt>
      <trkpt lat="48.84312" lon="2.25643">
        <ele>49</ele>
        <time>2015-10-26T20:22:16.000Z</time>
      </trkpt>
      <trkpt lat="48.84293" lon="2.25635">
        <ele>48</ele>
        <time>2015-10-26T20:22:20.000Z</time>
      </trkpt>
      <trkpt lat="48.84273" lon="2.25628">
        <ele>47.200000762939</ele>
        <time>2015-10-26T20:22:23.000Z</time>
      </trkpt>
      <trkpt lat="48.84269" lon="2.25625">
        <ele>47</ele>
        <time>2015-10-26T20:22:24.000Z</time>
      </trkpt>
      <trkpt lat="48.84253" lon="2.2562">
        <ele>46</ele>
        <time>2015-10-26T20:22:26.000Z</time>
      </trkpt>
      <trkpt lat="48.84219" lon="2.25619">
        <ele>44.200000762939</ele>
        <time>2015-10-26T20:22:32.000Z</time>
      </trkpt>
      <trkpt lat="48.84192" lon="2.25625">
        <ele>42.599998474121</ele>
        <time>2015-10-26T20:22:37.000Z</time>
      </trkpt>
      <trkpt lat="48.84186" lon="2.25626">
        <ele>42.599998474121</ele>
        <time>2015-10-26T20:22:38.000Z</time>
      </trkpt>
      <trkpt lat="48.84163" lon="2.25629">
        <ele>43.200000762939</ele>
        <time>2015-10-26T20:22:42.000Z</time>
      </trkpt>
      <trkpt lat="48.84139" lon="2.25633">
        <ele>44.400001525879</ele>
        <time>2015-10-26T20:22:46.000Z</time>
      </trkpt>
      <trkpt lat="48.84121" lon="2.25633">
        <ele>45.200000762939</ele>
        <time>2015-10-26T20:22:49.000Z</time>
      </trkpt>
      <trkpt lat="48.84115" lon="2.25633">
        <ele>45.400001525879</ele>
        <time>2015-10-26T20:22:50.000Z</time>
      </trkpt>
      <trkpt lat="48.84103" lon="2.25635">
        <ele>46</ele>
        <time>2015-10-26T20:22:53.000Z</time>
      </trkpt>
      <trkpt lat="48.84093" lon="2.25634">
        <ele>46.200000762939</ele>
        <time>2015-10-26T20:22:55.000Z</time>
      </trkpt>
      <trkpt lat="48.84069" lon="2.25637">
        <ele>46.400001525879</ele>
        <time>2015-10-26T20:22:59.000Z</time>
      </trkpt>
      <trkpt lat="48.84062" lon="2.25637">
        <ele>46.200000762939</ele>
        <time>2015-10-26T20:23:00.000Z</time>
      </trkpt>
      <trkpt lat="48.84041" lon="2.25643">
        <ele>45.599998474121</ele>
        <time>2015-10-26T20:23:03.000Z</time>
      </trkpt>
      <trkpt lat="48.8401" lon="2.25649">
        <ele>44.799999237061</ele>
        <time>2015-10-26T20:23:07.000Z</time>
      </trkpt>
      <trkpt lat="48.83989" lon="2.25654">
        <ele>44.400001525879</ele>
        <time>2015-10-26T20:23:10.000Z</time>
      </trkpt>
      <trkpt lat="48.83983" lon="2.25656">
        <ele>44.200000762939</ele>
        <time>2015-10-26T20:23:11.000Z</time>
      </trkpt>
      <trkpt lat="48.83964" lon="2.25662">
        <ele>43.599998474121</ele>
        <time>2015-10-26T20:23:14.000Z</time>
      </trkpt>
      <trkpt lat="48.83946" lon="2.25671">
        <ele>43.200000762939</ele>
        <time>2015-10-26T20:23:17.000Z</time>
      </trkpt>
      <trkpt lat="48.8394" lon="2.25673">
        <ele>43.400001525879</ele>
        <time>2015-10-26T20:23:18.000Z</time>
      </trkpt>
      <trkpt lat="48.83927" lon="2.25678">
        <ele>43.200000762939</ele>
        <time>2015-10-26T20:23:20.000Z</time>
      </trkpt>
      <trkpt lat="48.83902" lon="2.25692">
        <ele>43.200000762939</ele>
        <time>2015-10-26T20:23:24.000Z</time>
      </trkpt>
      <trkpt lat="48.83897" lon="2.25694">
        <ele>43.200000762939</ele>
        <time>2015-10-26T20:23:25.000Z</time>
      </trkpt>
      <trkpt lat="48.83876" lon="2.25702">
        <ele>42</ele>
        <time>2015-10-26T20:23:29.000Z</time>
      </trkpt>
      <trkpt lat="48.83867" lon="2.25705">
        <ele>41.400001525879</ele>
        <time>2015-10-26T20:23:31.000Z</time>
      </trkpt>
      <trkpt lat="48.83848" lon="2.25698">
        <ele>40.200000762939</ele>
        <time>2015-10-26T20:23:35.000Z</time>
      </trkpt>
      <trkpt lat="48.83839" lon="2.25683">
        <ele>39.799999237061</ele>
        <time>2015-10-26T20:23:39.000Z</time>
      </trkpt>
      <trkpt lat="48.83837" lon="2.2568">
        <ele>39.599998474121</ele>
        <time>2015-10-26T20:23:40.000Z</time>
      </trkpt>
      <trkpt lat="48.83827" lon="2.2566">
        <ele>39.200000762939</ele>
        <time>2015-10-26T20:23:48.000Z</time>
      </trkpt>
      <trkpt lat="48.83827" lon="2.25659">
        <ele>39.200000762939</ele>
        <time>2015-10-26T20:23:49.000Z</time>
      </trkpt>
      <trkpt lat="48.83827" lon="2.25657">
        <ele>39.200000762939</ele>
        <time>2015-10-26T20:23:55.000Z</time>
      </trkpt>
      <trkpt lat="48.83824" lon="2.25655">
        <ele>39</ele>
        <time>2015-10-26T20:24:06.000Z</time>
      </trkpt>
      <trkpt lat="48.8381" lon="2.25653">
        <ele>38.200000762939</ele>
        <time>2015-10-26T20:24:10.000Z</time>
      </trkpt>
      <trkpt lat="48.83791" lon="2.25654">
        <ele>37</ele>
        <time>2015-10-26T20:24:14.000Z</time>
      </trkpt>
      <trkpt lat="48.8377" lon="2.25663">
        <ele>36</ele>
        <time>2015-10-26T20:24:18.000Z</time>
      </trkpt>
      <trkpt lat="48.83751" lon="2.25674">
        <ele>37</ele>
        <time>2015-10-26T20:24:22.000Z</time>
      </trkpt>
      <trkpt lat="48.83746" lon="2.25676">
        <ele>37.200000762939</ele>
        <time>2015-10-26T20:24:23.000Z</time>
      </trkpt>
      <trkpt lat="48.83722" lon="2.25668">
        <ele>37.400001525879</ele>
        <time>2015-10-26T20:24:28.000Z</time>
      </trkpt>
      <trkpt lat="48.83718" lon="2.25664">
        <ele>37.400001525879</ele>
        <time>2015-10-26T20:24:29.000Z</time>
      </trkpt>
      <trkpt lat="48.83714" lon="2.25661">
        <ele>37.400001525879</ele>
        <time>2015-10-26T20:24:30.000Z</time>
      </trkpt>
      <trkpt lat="48.83703" lon="2.25652">
        <ele>37.200000762939</ele>
        <time>2015-10-26T20:24:33.000Z</time>
      </trkpt>
      <trkpt lat="48.83691" lon="2.25639">
        <ele>37.200000762939</ele>
        <time>2015-10-26T20:24:38.000Z</time>
      </trkpt>
      <trkpt lat="48.8369" lon="2.25638">
        <ele>37</ele>
        <time>2015-10-26T20:24:39.000Z</time>
      </trkpt>
      <trkpt lat="48.83688" lon="2.25634">
        <ele>37</ele>
        <time>2015-10-26T20:24:45.000Z</time>
      </trkpt>
      <trkpt lat="48.8369" lon="2.25634">
        <ele>37</ele>
        <time>2015-10-26T20:25:09.000Z</time>
      </trkpt>
      <trkpt lat="48.83696" lon="2.25648">
        <ele>37.400001525879</ele>
        <time>2015-10-26T20:25:14.000Z</time>
      </trkpt>
      <trkpt lat="48.83702" lon="2.25658">
        <ele>37.599998474121</ele>
        <time>2015-10-26T20:25:18.000Z</time>
      </trkpt>
      <trkpt lat="48.83706" lon="2.25662">
        <ele>37.599998474121</ele>
        <time>2015-10-26T20:25:22.000Z</time>
      </trkpt>
      <trkpt lat="48.83708" lon="2.25663">
        <ele>37.599998474121</ele>
        <time>2015-10-26T20:25:26.000Z</time>
      </trkpt>
      <trkpt lat="48.83716" lon="2.25671">
        <ele>37.599998474121</ele>
        <time>2015-10-26T20:25:30.000Z</time>
      </trkpt>
      <trkpt lat="48.83718" lon="2.25674">
        <ele>37.599998474121</ele>
        <time>2015-10-26T20:25:31.000Z</time>
      </trkpt>
      <trkpt lat="48.83735" lon="2.25688">
        <ele>37.799999237061</ele>
        <time>2015-10-26T20:25:36.000Z</time>
      </trkpt>
      <trkpt lat="48.83743" lon="2.25703">
        <ele>38.200000762939</ele>
        <time>2015-10-26T20:25:39.000Z</time>
      </trkpt>
      <trkpt lat="48.83749" lon="2.25719">
        <ele>38.599998474121</ele>
        <time>2015-10-26T20:25:42.000Z</time>
      </trkpt>
      <trkpt lat="48.83761" lon="2.25748">
        <ele>39.799999237061</ele>
        <time>2015-10-26T20:25:47.000Z</time>
      </trkpt>
      <trkpt lat="48.83763" lon="2.25761">
        <ele>40.599998474121</ele>
        <time>2015-10-26T20:25:49.000Z</time>
      </trkpt>
      <trkpt lat="48.83762" lon="2.25767">
        <ele>40.799999237061</ele>
        <time>2015-10-26T20:25:50.000Z</time>
      </trkpt>
      <trkpt lat="48.8376" lon="2.25778">
        <ele>41.599998474121</ele>
        <time>2015-10-26T20:25:52.000Z</time>
      </trkpt>
      <trkpt lat="48.83757" lon="2.25795">
        <ele>42.799999237061</ele>
        <time>2015-10-26T20:25:55.000Z</time>
      </trkpt>
      <trkpt lat="48.83751" lon="2.25827">
        <ele>44</ele>
        <time>2015-10-26T20:26:00.000Z</time>
      </trkpt>
      <trkpt lat="48.83746" lon="2.25849">
        <ele>44.200000762939</ele>
        <time>2015-10-26T20:26:03.000Z</time>
      </trkpt>
      <trkpt lat="48.83745" lon="2.25876">
        <ele>44.599998474121</ele>
        <time>2015-10-26T20:26:07.000Z</time>
      </trkpt>
      <trkpt lat="48.83739" lon="2.25908">
        <ele>44</ele>
        <time>2015-10-26T20:26:11.000Z</time>
      </trkpt>
      <trkpt lat="48.83737" lon="2.25915">
        <ele>43.799999237061</ele>
        <time>2015-10-26T20:26:12.000Z</time>
      </trkpt>
      <trkpt lat="48.83732" lon="2.25945">
        <ele>44.400001525879</ele>
        <time>2015-10-26T20:26:16.000Z</time>
      </trkpt>
      <trkpt lat="48.83726" lon="2.25973">
        <ele>44</ele>
        <time>2015-10-26T20:26:20.000Z</time>
      </trkpt>
      <trkpt lat="48.83721" lon="2.25993">
        <ele>43.400001525879</ele>
        <time>2015-10-26T20:26:23.000Z</time>
      </trkpt>
      <trkpt lat="48.83716" lon="2.2602">
        <ele>42.599998474121</ele>
        <time>2015-10-26T20:26:27.000Z</time>
      </trkpt>
      <trkpt lat="48.83717" lon="2.26034">
        <ele>42.599998474121</ele>
        <time>2015-10-26T20:26:29.000Z</time>
      </trkpt>
      <trkpt lat="48.83715" lon="2.26072">
        <ele>42.599998474121</ele>
        <time>2015-10-26T20:26:34.000Z</time>
      </trkpt>
      <trkpt lat="48.83715" lon="2.26079">
        <ele>42.599998474121</ele>
        <time>2015-10-26T20:26:35.000Z</time>
      </trkpt>
      <trkpt lat="48.83714" lon="2.26088">
        <ele>42.200000762939</ele>
        <time>2015-10-26T20:26:36.000Z</time>
      </trkpt>
      <trkpt lat="48.83708" lon="2.26118">
        <ele>42.200000762939</ele>
        <time>2015-10-26T20:26:40.000Z</time>
      </trkpt>
      <trkpt lat="48.83702" lon="2.26147">
        <ele>42.799999237061</ele>
        <time>2015-10-26T20:26:44.000Z</time>
      </trkpt>
      <trkpt lat="48.837" lon="2.26161">
        <ele>43.200000762939</ele>
        <time>2015-10-26T20:26:46.000Z</time>
      </trkpt>
      <trkpt lat="48.837" lon="2.26175">
        <ele>43.200000762939</ele>
        <time>2015-10-26T20:26:48.000Z</time>
      </trkpt>
      <trkpt lat="48.83697" lon="2.26195">
        <ele>44.200000762939</ele>
        <time>2015-10-26T20:26:51.000Z</time>
      </trkpt>
      <trkpt lat="48.83691" lon="2.26234">
        <ele>46.400001525879</ele>
        <time>2015-10-26T20:26:57.000Z</time>
      </trkpt>
      <trkpt lat="48.83688" lon="2.26252">
        <ele>46.400001525879</ele>
        <time>2015-10-26T20:27:00.000Z</time>
      </trkpt>
      <trkpt lat="48.83685" lon="2.26271">
        <ele>44.599998474121</ele>
        <time>2015-10-26T20:27:03.000Z</time>
      </trkpt>
      <trkpt lat="48.8368" lon="2.2629">
        <ele>42.400001525879</ele>
        <time>2015-10-26T20:27:06.000Z</time>
      </trkpt>
      <trkpt lat="48.83677" lon="2.26317">
        <ele>39.799999237061</ele>
        <time>2015-10-26T20:27:10.000Z</time>
      </trkpt>
      <trkpt lat="48.83674" lon="2.26343">
        <ele>37</ele>
        <time>2015-10-26T20:27:14.000Z</time>
      </trkpt>
      <trkpt lat="48.83669" lon="2.26376">
        <ele>33</ele>
        <time>2015-10-26T20:27:19.000Z</time>
      </trkpt>
      <trkpt lat="48.83669" lon="2.26382">
        <ele>32.400001525879</ele>
        <time>2015-10-26T20:27:20.000Z</time>
      </trkpt>
      <trkpt lat="48.83671" lon="2.26398">
        <ele>31.200000762939</ele>
        <time>2015-10-26T20:27:24.000Z</time>
      </trkpt>
      <trkpt lat="48.83672" lon="2.26402">
        <ele>31.200000762939</ele>
        <time>2015-10-26T20:27:26.000Z</time>
      </trkpt>
      <trkpt lat="48.83672" lon="2.26405">
        <ele>31.200000762939</ele>
        <time>2015-10-26T20:27:28.000Z</time>
      </trkpt>
      <trkpt lat="48.83671" lon="2.26408">
        <ele>31.200000762939</ele>
        <time>2015-10-26T20:27:37.000Z</time>
      </trkpt>
      <trkpt lat="48.83677" lon="2.26416">
        <ele>30.799999237061</ele>
        <time>2015-10-26T20:27:42.000Z</time>
      </trkpt>
      <trkpt lat="48.83688" lon="2.26428">
        <ele>30</ele>
        <time>2015-10-26T20:27:47.000Z</time>
      </trkpt>
      <trkpt lat="48.83702" lon="2.26446">
        <ele>29</ele>
        <time>2015-10-26T20:27:52.000Z</time>
      </trkpt>
      <trkpt lat="48.83714" lon="2.26468">
        <ele>27.799999237061</ele>
        <time>2015-10-26T20:27:57.000Z</time>
      </trkpt>
      <trkpt lat="48.83732" lon="2.26486">
        <ele>27.200000762939</ele>
        <time>2015-10-26T20:28:02.000Z</time>
      </trkpt>
      <trkpt lat="48.83739" lon="2.26492">
        <ele>27</ele>
        <time>2015-10-26T20:28:04.000Z</time>
      </trkpt>
      <trkpt lat="48.83745" lon="2.26498">
        <ele>27</ele>
        <time>2015-10-26T20:28:06.000Z</time>
      </trkpt>
      <trkpt lat="48.83759" lon="2.26511">
        <ele>27.60000038147</ele>
        <time>2015-10-26T20:28:10.000Z</time>
      </trkpt>
      <trkpt lat="48.83767" lon="2.26519">
        <ele>27.799999237061</ele>
        <time>2015-10-26T20:28:12.000Z</time>
      </trkpt>
      <trkpt lat="48.83779" lon="2.26532">
        <ele>28</ele>
        <time>2015-10-26T20:28:15.000Z</time>
      </trkpt>
      <trkpt lat="48.83795" lon="2.26549">
        <ele>28.200000762939</ele>
        <time>2015-10-26T20:28:19.000Z</time>
      </trkpt>
      <trkpt lat="48.83811" lon="2.26568">
        <ele>28.39999961853</ele>
        <time>2015-10-26T20:28:23.000Z</time>
      </trkpt>
      <trkpt lat="48.83829" lon="2.26585">
        <ele>28.60000038147</ele>
        <time>2015-10-26T20:28:27.000Z</time>
      </trkpt>
      <trkpt lat="48.83861" lon="2.26621">
        <ele>29.39999961853</ele>
        <time>2015-10-26T20:28:35.000Z</time>
      </trkpt>
      <trkpt lat="48.83865" lon="2.26626">
        <ele>30</ele>
        <time>2015-10-26T20:28:36.000Z</time>
      </trkpt>
      <trkpt lat="48.8387" lon="2.2663">
        <ele>30.799999237061</ele>
        <time>2015-10-26T20:28:37.000Z</time>
      </trkpt>
      <trkpt lat="48.8388" lon="2.26642">
        <ele>32.400001525879</ele>
        <time>2015-10-26T20:28:40.000Z</time>
      </trkpt>
      <trkpt lat="48.83893" lon="2.26658">
        <ele>34.400001525879</ele>
        <time>2015-10-26T20:28:44.000Z</time>
      </trkpt>
      <trkpt lat="48.839" lon="2.26665">
        <ele>35.400001525879</ele>
        <time>2015-10-26T20:28:46.000Z</time>
      </trkpt>
      <trkpt lat="48.83911" lon="2.26676">
        <ele>36.400001525879</ele>
        <time>2015-10-26T20:28:50.000Z</time>
      </trkpt>
      <trkpt lat="48.83918" lon="2.26683">
        <ele>37</ele>
        <time>2015-10-26T20:28:52.000Z</time>
      </trkpt>
      <trkpt lat="48.83937" lon="2.26696">
        <ele>39.200000762939</ele>
        <time>2015-10-26T20:28:58.000Z</time>
      </trkpt>
      <trkpt lat="48.83943" lon="2.26703">
        <ele>39.400001525879</ele>
        <time>2015-10-26T20:29:01.000Z</time>
      </trkpt>
      <trkpt lat="48.83951" lon="2.26712">
        <ele>39.200000762939</ele>
        <time>2015-10-26T20:29:06.000Z</time>
      </trkpt>
      <trkpt lat="48.83959" lon="2.2671">
        <ele>39.799999237061</ele>
        <time>2015-10-26T20:29:09.000Z</time>
      </trkpt>
      <trkpt lat="48.83968" lon="2.26699">
        <ele>41.200000762939</ele>
        <time>2015-10-26T20:29:15.000Z</time>
      </trkpt>
      <trkpt lat="48.83969" lon="2.26697">
        <ele>41.400001525879</ele>
        <time>2015-10-26T20:29:16.000Z</time>
      </trkpt>
      <trkpt lat="48.83974" lon="2.26692">
        <ele>41.799999237061</ele>
        <time>2015-10-26T20:29:20.000Z</time>
      </trkpt>
      <trkpt lat="48.83975" lon="2.26691">
        <ele>41.799999237061</ele>
        <time>2015-10-26T20:29:21.000Z</time>
      </trkpt>
      <trkpt lat="48.83979" lon="2.26688">
        <ele>41.799999237061</ele>
        <time>2015-10-26T20:29:27.000Z</time>
      </trkpt>
      <trkpt lat="48.83981" lon="2.26689">
        <ele>41.799999237061</ele>
        <time>2015-10-26T20:29:31.000Z</time>
      </trkpt>
      <trkpt lat="48.83983" lon="2.26692">
        <ele>41.799999237061</ele>
        <time>2015-10-26T20:29:36.000Z</time>
      </trkpt>
      <trkpt lat="48.83981" lon="2.26693">
        <ele>41.799999237061</ele>
        <time>2015-10-26T20:29:43.000Z</time>
      </trkpt>
      <trkpt lat="48.83979" lon="2.26693">
        <ele>41.799999237061</ele>
        <time>2015-10-26T20:29:48.000Z</time>
      </trkpt>
      <trkpt lat="48.83978" lon="2.26697">
        <ele>41.599998474121</ele>
        <time>2015-10-26T20:29:59.000Z</time>
      </trkpt>
      <trkpt lat="48.83976" lon="2.267">
        <ele>41.599998474121</ele>
        <time>2015-10-26T20:30:05.000Z</time>
      </trkpt>
      <trkpt lat="48.83975" lon="2.26702">
        <ele>41.400001525879</ele>
        <time>2015-10-26T20:30:08.000Z</time>
      </trkpt>
      <trkpt lat="48.83973" lon="2.26709">
        <ele>40.799999237061</ele>
        <time>2015-10-26T20:30:13.000Z</time>
      </trkpt>
      <trkpt lat="48.83972" lon="2.26712">
        <ele>40.400001525879</ele>
        <time>2015-10-26T20:30:21.000Z</time>
      </trkpt>
      <trkpt lat="48.83972" lon="2.26713">
        <ele>40.400001525879</ele>
        <time>2015-10-26T20:30:22.000Z</time>
      </trkpt>
      <trkpt lat="48.83965" lon="2.26737">
        <ele>38.200000762939</ele>
        <time>2015-10-26T20:30:30.000Z</time>
      </trkpt>
      <trkpt lat="48.83957" lon="2.26758">
        <ele>36.200000762939</ele>
        <time>2015-10-26T20:30:36.000Z</time>
      </trkpt>
      <trkpt lat="48.83948" lon="2.26776">
        <ele>34.400001525879</ele>
        <time>2015-10-26T20:30:41.000Z</time>
      </trkpt>
      <trkpt lat="48.83939" lon="2.26797">
        <ele>32.400001525879</ele>
        <time>2015-10-26T20:30:46.000Z</time>
      </trkpt>
      <trkpt lat="48.83932" lon="2.26813">
        <ele>30.799999237061</ele>
        <time>2015-10-26T20:30:50.000Z</time>
      </trkpt>
      <trkpt lat="48.83921" lon="2.26837">
        <ele>29</ele>
        <time>2015-10-26T20:30:55.000Z</time>
      </trkpt>
      <trkpt lat="48.8391" lon="2.26863">
        <ele>27.799999237061</ele>
        <time>2015-10-26T20:31:00.000Z</time>
      </trkpt>
      <trkpt lat="48.83899" lon="2.26889">
        <ele>27.39999961853</ele>
        <time>2015-10-26T20:31:05.000Z</time>
      </trkpt>
      <trkpt lat="48.83888" lon="2.26914">
        <ele>28.39999961853</ele>
        <time>2015-10-26T20:31:10.000Z</time>
      </trkpt>
      <trkpt lat="48.83879" lon="2.26932">
        <ele>30</ele>
        <time>2015-10-26T20:31:15.000Z</time>
      </trkpt>
      <trkpt lat="48.83875" lon="2.26942">
        <ele>31.200000762939</ele>
        <time>2015-10-26T20:31:20.000Z</time>
      </trkpt>
      <trkpt lat="48.83875" lon="2.26947">
        <ele>31.60000038147</ele>
        <time>2015-10-26T20:31:22.000Z</time>
      </trkpt>
      <trkpt lat="48.83876" lon="2.26958">
        <ele>32.599998474121</ele>
        <time>2015-10-26T20:31:31.000Z</time>
      </trkpt>
      <trkpt lat="48.83877" lon="2.26963">
        <ele>33</ele>
        <time>2015-10-26T20:31:35.000Z</time>
      </trkpt>
      <trkpt lat="48.83878" lon="2.26965">
        <ele>33.200000762939</ele>
        <time>2015-10-26T20:31:36.000Z</time>
      </trkpt>
      <trkpt lat="48.83879" lon="2.26985">
        <ele>35.200000762939</ele>
        <time>2015-10-26T20:31:43.000Z</time>
      </trkpt>
      <trkpt lat="48.83881" lon="2.26994">
        <ele>35.799999237061</ele>
        <time>2015-10-26T20:31:46.000Z</time>
      </trkpt>
      <trkpt lat="48.83901" lon="2.2701">
        <ele>37.200000762939</ele>
        <time>2015-10-26T20:31:53.000Z</time>
      </trkpt>
      <trkpt lat="48.83919" lon="2.27022">
        <ele>38.200000762939</ele>
        <time>2015-10-26T20:31:57.000Z</time>
      </trkpt>
      <trkpt lat="48.83938" lon="2.27036">
        <ele>39.200000762939</ele>
        <time>2015-10-26T20:32:01.000Z</time>
      </trkpt>
      <trkpt lat="48.83956" lon="2.27053">
        <ele>39.400001525879</ele>
        <time>2015-10-26T20:32:06.000Z</time>
      </trkpt>
      <trkpt lat="48.83974" lon="2.27069">
        <ele>39.400001525879</ele>
        <time>2015-10-26T20:32:11.000Z</time>
      </trkpt>
      <trkpt lat="48.83993" lon="2.27085">
        <ele>38.400001525879</ele>
        <time>2015-10-26T20:32:16.000Z</time>
      </trkpt>
      <trkpt lat="48.84005" lon="2.27095">
        <ele>36.599998474121</ele>
        <time>2015-10-26T20:32:19.000Z</time>
      </trkpt>
      <trkpt lat="48.84014" lon="2.27104">
        <ele>35.400001525879</ele>
        <time>2015-10-26T20:32:21.000Z</time>
      </trkpt>
      <trkpt lat="48.84024" lon="2.27121">
        <ele>34</ele>
        <time>2015-10-26T20:32:24.000Z</time>
      </trkpt>
      <trkpt lat="48.84028" lon="2.27136">
        <ele>33.400001525879</ele>
        <time>2015-10-26T20:32:26.000Z</time>
      </trkpt>
      <trkpt lat="48.84022" lon="2.27154">
        <ele>33.200000762939</ele>
        <time>2015-10-26T20:32:29.000Z</time>
      </trkpt>
      <trkpt lat="48.84019" lon="2.27168">
        <ele>33.599998474121</ele>
        <time>2015-10-26T20:32:32.000Z</time>
      </trkpt>
      <trkpt lat="48.84015" lon="2.27183">
        <ele>34.200000762939</ele>
        <time>2015-10-26T20:32:38.000Z</time>
      </trkpt>
      <trkpt lat="48.84019" lon="2.27188">
        <ele>34</ele>
        <time>2015-10-26T20:32:44.000Z</time>
      </trkpt>
      <trkpt lat="48.8402" lon="2.2719">
        <ele>34</ele>
        <time>2015-10-26T20:32:50.000Z</time>
      </trkpt>
      <trkpt lat="48.8402" lon="2.27192">
        <ele>33.799999237061</ele>
        <time>2015-10-26T20:32:56.000Z</time>
      </trkpt>
      <trkpt lat="48.84018" lon="2.27196">
        <ele>34.200000762939</ele>
        <time>2015-10-26T20:33:26.000Z</time>
      </trkpt>
      <trkpt lat="48.84019" lon="2.27195">
        <ele>34.200000762939</ele>
        <time>2015-10-26T20:33:32.000Z</time>
      </trkpt>
      <trkpt lat="48.84019" lon="2.27196">
        <ele>34.200000762939</ele>
        <time>2015-10-26T20:33:39.000Z</time>
      </trkpt>
      <trkpt lat="48.84022" lon="2.27201">
        <ele>34</ele>
        <time>2015-10-26T20:33:43.000Z</time>
      </trkpt>
      <trkpt lat="48.84037" lon="2.27216">
        <ele>34.400001525879</ele>
        <time>2015-10-26T20:33:48.000Z</time>
      </trkpt>
      <trkpt lat="48.84057" lon="2.27234">
        <ele>35.200000762939</ele>
        <time>2015-10-26T20:33:52.000Z</time>
      </trkpt>
      <trkpt lat="48.84441" lon="2.2757">
        <ele>40.200000762939</ele>
        <time>2015-10-26T20:34:45.000Z</time>
      </trkpt>
      <trkpt lat="48.84459" lon="2.27584">
        <ele>39</ele>
        <time>2015-10-26T20:34:50.000Z</time>
      </trkpt>
      <trkpt lat="48.84462" lon="2.27587">
        <ele>38.599998474121</ele>
        <time>2015-10-26T20:34:51.000Z</time>
      </trkpt>
      <trkpt lat="48.84474" lon="2.27597">
        <ele>37.599998474121</ele>
        <time>2015-10-26T20:34:56.000Z</time>
      </trkpt>
      <trkpt lat="48.84485" lon="2.27606">
        <ele>36.599998474121</ele>
        <time>2015-10-26T20:35:02.000Z</time>
      </trkpt>
      <trkpt lat="48.84496" lon="2.27615">
        <ele>35.799999237061</ele>
        <time>2015-10-26T20:35:07.000Z</time>
      </trkpt>
      <trkpt lat="48.84507" lon="2.2763">
        <ele>34.799999237061</ele>
        <time>2015-10-26T20:35:13.000Z</time>
      </trkpt>
      <trkpt lat="48.84514" lon="2.27645">
        <ele>34.400001525879</ele>
        <time>2015-10-26T20:35:18.000Z</time>
      </trkpt>
      <trkpt lat="48.84517" lon="2.27662">
        <ele>34.400001525879</ele>
        <time>2015-10-26T20:35:23.000Z</time>
      </trkpt>
      <trkpt lat="48.84522" lon="2.27676">
        <ele>35</ele>
        <time>2015-10-26T20:35:28.000Z</time>
      </trkpt>
      <trkpt lat="48.84525" lon="2.27689">
        <ele>35.799999237061</ele>
        <time>2015-10-26T20:35:33.000Z</time>
      </trkpt>
      <trkpt lat="48.84526" lon="2.27691">
        <ele>36</ele>
        <time>2015-10-26T20:35:34.000Z</time>
      </trkpt>
      <trkpt lat="48.84526" lon="2.27694">
        <ele>36.200000762939</ele>
        <time>2015-10-26T20:36:15.000Z</time>
      </trkpt>
      <trkpt lat="48.84525" lon="2.27695">
        <ele>36.200000762939</ele>
        <time>2015-10-26T20:36:18.000Z</time>
      </trkpt>
      <trkpt lat="48.84519" lon="2.27702">
        <ele>37</ele>
        <time>2015-10-26T20:36:22.000Z</time>
      </trkpt>
      <trkpt lat="48.84515" lon="2.27712">
        <ele>38</ele>
        <time>2015-10-26T20:36:27.000Z</time>
      </trkpt>
      <trkpt lat="48.84513" lon="2.27717">
        <ele>38.400001525879</ele>
        <time>2015-10-26T20:36:29.000Z</time>
      </trkpt>
      <trkpt lat="48.84505" lon="2.27739">
        <ele>39.599998474121</ele>
        <time>2015-10-26T20:36:35.000Z</time>
      </trkpt>
      <trkpt lat="48.84498" lon="2.27756">
        <ele>39.599998474121</ele>
        <time>2015-10-26T20:36:39.000Z</time>
      </trkpt>
      <trkpt lat="48.84486" lon="2.27772">
        <ele>39.400001525879</ele>
        <time>2015-10-26T20:36:43.000Z</time>
      </trkpt>
      <trkpt lat="48.84477" lon="2.27794">
        <ele>39.200000762939</ele>
        <time>2015-10-26T20:36:47.000Z</time>
      </trkpt>
      <trkpt lat="48.84475" lon="2.27799">
        <ele>39</ele>
        <time>2015-10-26T20:36:48.000Z</time>
      </trkpt>
      <trkpt lat="48.84469" lon="2.27807">
        <ele>38.799999237061</ele>
        <time>2015-10-26T20:36:50.000Z</time>
      </trkpt>
      <trkpt lat="48.84459" lon="2.27827">
        <ele>38</ele>
        <time>2015-10-26T20:36:54.000Z</time>
      </trkpt>
      <trkpt lat="48.84446" lon="2.27856">
        <ele>37.599998474121</ele>
        <time>2015-10-26T20:36:59.000Z</time>
      </trkpt>
      <trkpt lat="48.84443" lon="2.27862">
        <ele>37.599998474121</ele>
        <time>2015-10-26T20:37:00.000Z</time>
      </trkpt>
      <trkpt lat="48.84439" lon="2.27874">
        <ele>37.599998474121</ele>
        <time>2015-10-26T20:37:02.000Z</time>
      </trkpt>
      <trkpt lat="48.84423" lon="2.27907">
        <ele>37.400001525879</ele>
        <time>2015-10-26T20:37:08.000Z</time>
      </trkpt>
      <trkpt lat="48.84415" lon="2.27926">
        <ele>37</ele>
        <time>2015-10-26T20:37:12.000Z</time>
      </trkpt>
      <trkpt lat="48.84412" lon="2.27931">
        <ele>37</ele>
        <time>2015-10-26T20:37:13.000Z</time>
      </trkpt>
      <trkpt lat="48.84403" lon="2.27943">
        <ele>36.599998474121</ele>
        <time>2015-10-26T20:37:17.000Z</time>
      </trkpt>
      <trkpt lat="48.84394" lon="2.27963">
        <ele>36.799999237061</ele>
        <time>2015-10-26T20:37:21.000Z</time>
      </trkpt>
      <trkpt lat="48.84381" lon="2.27988">
        <ele>37.400001525879</ele>
        <time>2015-10-26T20:37:26.000Z</time>
      </trkpt>
      <trkpt lat="48.84377" lon="2.27995">
        <ele>37.400001525879</ele>
        <time>2015-10-26T20:37:27.000Z</time>
      </trkpt>
      <trkpt lat="48.84364" lon="2.28022">
        <ele>37.599998474121</ele>
        <time>2015-10-26T20:37:32.000Z</time>
      </trkpt>
      <trkpt lat="48.84361" lon="2.28027">
        <ele>37.799999237061</ele>
        <time>2015-10-26T20:37:33.000Z</time>
      </trkpt>
      <trkpt lat="48.84354" lon="2.28043">
        <ele>38.200000762939</ele>
        <time>2015-10-26T20:37:36.000Z</time>
      </trkpt>
      <trkpt lat="48.84348" lon="2.28052">
        <ele>38.599998474121</ele>
        <time>2015-10-26T20:37:38.000Z</time>
      </trkpt>
      <trkpt lat="48.84346" lon="2.28063">
        <ele>38.799999237061</ele>
        <time>2015-10-26T20:37:40.000Z</time>
      </trkpt>
      <trkpt lat="48.84341" lon="2.28074">
        <ele>39</ele>
        <time>2015-10-26T20:37:42.000Z</time>
      </trkpt>
      <trkpt lat="48.84334" lon="2.28089">
        <ele>39</ele>
        <time>2015-10-26T20:37:45.000Z</time>
      </trkpt>
      <trkpt lat="48.84325" lon="2.28102">
        <ele>39</ele>
        <time>2015-10-26T20:37:49.000Z</time>
      </trkpt>
      <trkpt lat="48.84315" lon="2.28128">
        <ele>39</ele>
        <time>2015-10-26T20:37:54.000Z</time>
      </trkpt>
      <trkpt lat="48.84308" lon="2.28147">
        <ele>38.599998474121</ele>
        <time>2015-10-26T20:37:58.000Z</time>
      </trkpt>
      <trkpt lat="48.843" lon="2.28172">
        <ele>38.200000762939</ele>
        <time>2015-10-26T20:38:03.000Z</time>
      </trkpt>
      <trkpt lat="48.84291" lon="2.28196">
        <ele>37.799999237061</ele>
        <time>2015-10-26T20:38:09.000Z</time>
      </trkpt>
      <trkpt lat="48.84288" lon="2.28205">
        <ele>37.599998474121</ele>
        <time>2015-10-26T20:38:12.000Z</time>
      </trkpt>
      <trkpt lat="48.84291" lon="2.28213">
        <ele>37.599998474121</ele>
        <time>2015-10-26T20:38:16.000Z</time>
      </trkpt>
      <trkpt lat="48.84295" lon="2.28221">
        <ele>37.599998474121</ele>
        <time>2015-10-26T20:38:18.000Z</time>
      </trkpt>
      <trkpt lat="48.84307" lon="2.28234">
        <ele>37.599998474121</ele>
        <time>2015-10-26T20:38:23.000Z</time>
      </trkpt>
      <trkpt lat="48.8432" lon="2.28252">
        <ele>37.400001525879</ele>
        <time>2015-10-26T20:38:28.000Z</time>
      </trkpt>
      <trkpt lat="48.84335" lon="2.28269">
        <ele>37.200000762939</ele>
        <time>2015-10-26T20:38:33.000Z</time>
      </trkpt>
      <trkpt lat="48.84338" lon="2.28272">
        <ele>37.200000762939</ele>
        <time>2015-10-26T20:38:34.000Z</time>
      </trkpt>
      <trkpt lat="48.84338" lon="2.28289">
        <ele>36.799999237061</ele>
        <time>2015-10-26T20:38:38.000Z</time>
      </trkpt>
      <trkpt lat="48.84323" lon="2.28319">
        <ele>35.599998474121</ele>
        <time>2015-10-26T20:38:44.000Z</time>
      </trkpt>
      <trkpt lat="48.84313" lon="2.2834">
        <ele>35</ele>
        <time>2015-10-26T20:38:48.000Z</time>
      </trkpt>
      <trkpt lat="48.8431" lon="2.28344">
        <ele>35</ele>
        <time>2015-10-26T20:38:49.000Z</time>
      </trkpt>
      <trkpt lat="48.84301" lon="2.28366">
        <ele>35.200000762939</ele>
        <time>2015-10-26T20:38:53.000Z</time>
      </trkpt>
      <trkpt lat="48.84286" lon="2.28394">
        <ele>36.400001525879</ele>
        <time>2015-10-26T20:38:58.000Z</time>
      </trkpt>
      <trkpt lat="48.84282" lon="2.284">
        <ele>36.599998474121</ele>
        <time>2015-10-26T20:38:59.000Z</time>
      </trkpt>
      <trkpt lat="48.84271" lon="2.28426">
        <ele>37.200000762939</ele>
        <time>2015-10-26T20:39:03.000Z</time>
      </trkpt>
      <trkpt lat="48.84257" lon="2.28455">
        <ele>37.200000762939</ele>
        <time>2015-10-26T20:39:07.000Z</time>
      </trkpt>
      <trkpt lat="48.84253" lon="2.28463">
        <ele>37.200000762939</ele>
        <time>2015-10-26T20:39:08.000Z</time>
      </trkpt>
      <trkpt lat="48.84247" lon="2.28477">
        <ele>37.400001525879</ele>
        <time>2015-10-26T20:39:10.000Z</time>
      </trkpt>
      <trkpt lat="48.84236" lon="2.28497">
        <ele>38.200000762939</ele>
        <time>2015-10-26T20:39:13.000Z</time>
      </trkpt>
      <trkpt lat="48.84227" lon="2.28513">
        <ele>38.200000762939</ele>
        <time>2015-10-26T20:39:16.000Z</time>
      </trkpt>
      <trkpt lat="48.84218" lon="2.28537">
        <ele>38.400001525879</ele>
        <time>2015-10-26T20:39:21.000Z</time>
      </trkpt>
      <trkpt lat="48.84217" lon="2.28543">
        <ele>38.400001525879</ele>
        <time>2015-10-26T20:39:22.000Z</time>
      </trkpt>
      <trkpt lat="48.84206" lon="2.2857">
        <ele>39</ele>
        <time>2015-10-26T20:39:27.000Z</time>
      </trkpt>
      <trkpt lat="48.84203" lon="2.28576">
        <ele>39</ele>
        <time>2015-10-26T20:39:28.000Z</time>
      </trkpt>
      <trkpt lat="48.84193" lon="2.28595">
        <ele>39</ele>
        <time>2015-10-26T20:39:31.000Z</time>
      </trkpt>
      <trkpt lat="48.84178" lon="2.28626">
        <ele>38</ele>
        <time>2015-10-26T20:39:36.000Z</time>
      </trkpt>
      <trkpt lat="48.84174" lon="2.28633">
        <ele>37.799999237061</ele>
        <time>2015-10-26T20:39:37.000Z</time>
      </trkpt>
      <trkpt lat="48.84168" lon="2.28647">
        <ele>37.599998474121</ele>
        <time>2015-10-26T20:39:39.000Z</time>
      </trkpt>
      <trkpt lat="48.84153" lon="2.28681">
        <ele>38.799999237061</ele>
        <time>2015-10-26T20:39:44.000Z</time>
      </trkpt>
      <trkpt lat="48.84146" lon="2.28701">
        <ele>39.400001525879</ele>
        <time>2015-10-26T20:39:47.000Z</time>
      </trkpt>
      <trkpt lat="48.84131" lon="2.2873">
        <ele>41.200000762939</ele>
        <time>2015-10-26T20:39:52.000Z</time>
      </trkpt>
      <trkpt lat="48.84124" lon="2.28739">
        <ele>42</ele>
        <time>2015-10-26T20:39:54.000Z</time>
      </trkpt>
      <trkpt lat="48.84117" lon="2.28751">
        <ele>42.599998474121</ele>
        <time>2015-10-26T20:39:56.000Z</time>
      </trkpt>
      <trkpt lat="48.84112" lon="2.28771">
        <ele>43.200000762939</ele>
        <time>2015-10-26T20:39:59.000Z</time>
      </trkpt>
      <trkpt lat="48.84105" lon="2.28797">
        <ele>43.599998474121</ele>
        <time>2015-10-26T20:40:03.000Z</time>
      </trkpt>
      <trkpt lat="48.84096" lon="2.28812">
        <ele>43.400001525879</ele>
        <time>2015-10-26T20:40:05.000Z</time>
      </trkpt>
      <trkpt lat="48.84089" lon="2.28827">
        <ele>43.200000762939</ele>
        <time>2015-10-26T20:40:07.000Z</time>
      </trkpt>
      <trkpt lat="48.84082" lon="2.28843">
        <ele>42.599998474121</ele>
        <time>2015-10-26T20:40:09.000Z</time>
      </trkpt>
      <trkpt lat="48.84074" lon="2.28858">
        <ele>41.799999237061</ele>
        <time>2015-10-26T20:40:11.000Z</time>
      </trkpt>
      <trkpt lat="48.8406" lon="2.2889">
        <ele>40.599998474121</ele>
        <time>2015-10-26T20:40:15.000Z</time>
      </trkpt>
      <trkpt lat="48.84049" lon="2.28914">
        <ele>40</ele>
        <time>2015-10-26T20:40:18.000Z</time>
      </trkpt>
      <trkpt lat="48.84039" lon="2.28937">
        <ele>38.799999237061</ele>
        <time>2015-10-26T20:40:21.000Z</time>
      </trkpt>
      <trkpt lat="48.84026" lon="2.28964">
        <ele>38.400001525879</ele>
        <time>2015-10-26T20:40:25.000Z</time>
      </trkpt>
      <trkpt lat="48.84017" lon="2.28984">
        <ele>38</ele>
        <time>2015-10-26T20:40:28.000Z</time>
      </trkpt>
      <trkpt lat="48.84006" lon="2.29001">
        <ele>38.599998474121</ele>
        <time>2015-10-26T20:40:32.000Z</time>
      </trkpt>
      <trkpt lat="48.83995" lon="2.29032">
        <ele>38.400001525879</ele>
        <time>2015-10-26T20:40:37.000Z</time>
      </trkpt>
      <trkpt lat="48.83985" lon="2.29048">
        <ele>38.400001525879</ele>
        <time>2015-10-26T20:40:40.000Z</time>
      </trkpt>
      <trkpt lat="48.83977" lon="2.29063">
        <ele>38.200000762939</ele>
        <time>2015-10-26T20:40:43.000Z</time>
      </trkpt>
      <trkpt lat="48.83971" lon="2.29072">
        <ele>38.200000762939</ele>
        <time>2015-10-26T20:40:45.000Z</time>
      </trkpt>
      <trkpt lat="48.83959" lon="2.29096">
        <ele>39</ele>
        <time>2015-10-26T20:40:49.000Z</time>
      </trkpt>
      <trkpt lat="48.83956" lon="2.29102">
        <ele>39.200000762939</ele>
        <time>2015-10-26T20:40:50.000Z</time>
      </trkpt>
      <trkpt lat="48.8395" lon="2.29113">
        <ele>39.400001525879</ele>
        <time>2015-10-26T20:40:52.000Z</time>
      </trkpt>
      <trkpt lat="48.83944" lon="2.29126">
        <ele>39.599998474121</ele>
        <time>2015-10-26T20:40:54.000Z</time>
      </trkpt>
      <trkpt lat="48.83933" lon="2.29155">
        <ele>40</ele>
        <time>2015-10-26T20:40:59.000Z</time>
      </trkpt>
      <trkpt lat="48.8393" lon="2.29163">
        <ele>40.200000762939</ele>
        <time>2015-10-26T20:41:01.000Z</time>
      </trkpt>
      <trkpt lat="48.8392" lon="2.29193">
        <ele>41.200000762939</ele>
        <time>2015-10-26T20:41:07.000Z</time>
      </trkpt>
      <trkpt lat="48.83914" lon="2.29212">
        <ele>42</ele>
        <time>2015-10-26T20:41:11.000Z</time>
      </trkpt>
      <trkpt lat="48.83908" lon="2.29232">
        <ele>42.400001525879</ele>
        <time>2015-10-26T20:41:15.000Z</time>
      </trkpt>
      <trkpt lat="48.83898" lon="2.29256">
        <ele>42.200000762939</ele>
        <time>2015-10-26T20:41:19.000Z</time>
      </trkpt>
      <trkpt lat="48.83892" lon="2.29268">
        <ele>42</ele>
        <time>2015-10-26T20:41:21.000Z</time>
      </trkpt>
      <trkpt lat="48.8388" lon="2.29292">
        <ele>42.200000762939</ele>
        <time>2015-10-26T20:41:25.000Z</time>
      </trkpt>
      <trkpt lat="48.83862" lon="2.29325">
        <ele>43.599998474121</ele>
        <time>2015-10-26T20:41:31.000Z</time>
      </trkpt>
      <trkpt lat="48.83852" lon="2.29343">
        <ele>43.599998474121</ele>
        <time>2015-10-26T20:41:34.000Z</time>
      </trkpt>
      <trkpt lat="48.83846" lon="2.29356">
        <ele>43</ele>
        <time>2015-10-26T20:41:36.000Z</time>
      </trkpt>
      <trkpt lat="48.8384" lon="2.29369">
        <ele>42.400001525879</ele>
        <time>2015-10-26T20:41:38.000Z</time>
      </trkpt>
      <trkpt lat="48.83834" lon="2.2938">
        <ele>41.799999237061</ele>
        <time>2015-10-26T20:41:40.000Z</time>
      </trkpt>
      <trkpt lat="48.83831" lon="2.29387">
        <ele>41.400001525879</ele>
        <time>2015-10-26T20:41:41.000Z</time>
      </trkpt>
      <trkpt lat="48.83816" lon="2.29423">
        <ele>41.599998474121</ele>
        <time>2015-10-26T20:41:46.000Z</time>
      </trkpt>
      <trkpt lat="48.83813" lon="2.2943">
        <ele>41.400001525879</ele>
        <time>2015-10-26T20:41:47.000Z</time>
      </trkpt>
      <trkpt lat="48.83804" lon="2.29455">
        <ele>41.400001525879</ele>
        <time>2015-10-26T20:41:51.000Z</time>
      </trkpt>
      <trkpt lat="48.83793" lon="2.2948">
        <ele>41.200000762939</ele>
        <time>2015-10-26T20:41:55.000Z</time>
      </trkpt>
      <trkpt lat="48.83789" lon="2.29487">
        <ele>41.200000762939</ele>
        <time>2015-10-26T20:41:56.000Z</time>
      </trkpt>
      <trkpt lat="48.83776" lon="2.29516">
        <ele>41.200000762939</ele>
        <time>2015-10-26T20:42:00.000Z</time>
      </trkpt>
      <trkpt lat="48.8377" lon="2.29528">
        <ele>41.599998474121</ele>
        <time>2015-10-26T20:42:02.000Z</time>
      </trkpt>
      <trkpt lat="48.83763" lon="2.29545">
        <ele>42.599998474121</ele>
        <time>2015-10-26T20:42:05.000Z</time>
      </trkpt>
      <trkpt lat="48.83753" lon="2.29563">
        <ele>43.799999237061</ele>
        <time>2015-10-26T20:42:09.000Z</time>
      </trkpt>
      <trkpt lat="48.8375" lon="2.29568">
        <ele>43.599998474121</ele>
        <time>2015-10-26T20:42:10.000Z</time>
      </trkpt>
      <trkpt lat="48.83747" lon="2.29572">
        <ele>43.599998474121</ele>
        <time>2015-10-26T20:42:11.000Z</time>
      </trkpt>
      <trkpt lat="48.83734" lon="2.29603">
        <ele>44.400001525879</ele>
        <time>2015-10-26T20:42:17.000Z</time>
      </trkpt>
      <trkpt lat="48.83731" lon="2.29617">
        <ele>44.799999237061</ele>
        <time>2015-10-26T20:42:20.000Z</time>
      </trkpt>
      <trkpt lat="48.83728" lon="2.29628">
        <ele>45</ele>
        <time>2015-10-26T20:42:23.000Z</time>
      </trkpt>
      <trkpt lat="48.83725" lon="2.29649">
        <ele>44.799999237061</ele>
        <time>2015-10-26T20:42:27.000Z</time>
      </trkpt>
      <trkpt lat="48.83724" lon="2.29654">
        <ele>44.599998474121</ele>
        <time>2015-10-26T20:42:28.000Z</time>
      </trkpt>
      <trkpt lat="48.8372" lon="2.29668">
        <ele>44.799999237061</ele>
        <time>2015-10-26T20:42:31.000Z</time>
      </trkpt>
      <trkpt lat="48.83714" lon="2.29699">
        <ele>46</ele>
        <time>2015-10-26T20:42:37.000Z</time>
      </trkpt>
      <trkpt lat="48.83712" lon="2.29704">
        <ele>46.200000762939</ele>
        <time>2015-10-26T20:42:38.000Z</time>
      </trkpt>
      <trkpt lat="48.83702" lon="2.29728">
        <ele>47.200000762939</ele>
        <time>2015-10-26T20:42:42.000Z</time>
      </trkpt>
      <trkpt lat="48.83696" lon="2.29747">
        <ele>48</ele>
        <time>2015-10-26T20:42:46.000Z</time>
      </trkpt>
      <trkpt lat="48.83694" lon="2.29752">
        <ele>48.200000762939</ele>
        <time>2015-10-26T20:42:47.000Z</time>
      </trkpt>
      <trkpt lat="48.8369" lon="2.2977">
        <ele>48.200000762939</ele>
        <time>2015-10-26T20:42:51.000Z</time>
      </trkpt>
      <trkpt lat="48.83687" lon="2.29791">
        <ele>48.400001525879</ele>
        <time>2015-10-26T20:42:55.000Z</time>
      </trkpt>
      <trkpt lat="48.83678" lon="2.29818">
        <ele>48.599998474121</ele>
        <time>2015-10-26T20:43:00.000Z</time>
      </trkpt>
      <trkpt lat="48.8367" lon="2.29836">
        <ele>48.599998474121</ele>
        <time>2015-10-26T20:43:03.000Z</time>
      </trkpt>
      <trkpt lat="48.83663" lon="2.29854">
        <ele>48.400001525879</ele>
        <time>2015-10-26T20:43:06.000Z</time>
      </trkpt>
      <trkpt lat="48.83659" lon="2.29866">
        <ele>48.200000762939</ele>
        <time>2015-10-26T20:43:08.000Z</time>
      </trkpt>
      <trkpt lat="48.83653" lon="2.29882">
        <ele>48.400001525879</ele>
        <time>2015-10-26T20:43:10.000Z</time>
      </trkpt>
      <trkpt lat="48.83648" lon="2.29903">
        <ele>49.400001525879</ele>
        <time>2015-10-26T20:43:13.000Z</time>
      </trkpt>
      <trkpt lat="48.83639" lon="2.29927">
        <ele>50.799999237061</ele>
        <time>2015-10-26T20:43:17.000Z</time>
      </trkpt>
      <trkpt lat="48.8363" lon="2.29952">
        <ele>51.799999237061</ele>
        <time>2015-10-26T20:43:21.000Z</time>
      </trkpt>
      <trkpt lat="48.83628" lon="2.29959">
        <ele>52</ele>
        <time>2015-10-26T20:43:22.000Z</time>
      </trkpt>
      <trkpt lat="48.83622" lon="2.29979">
        <ele>53</ele>
        <time>2015-10-26T20:43:25.000Z</time>
      </trkpt>
      <trkpt lat="48.83615" lon="2.30004">
        <ele>53.799999237061</ele>
        <time>2015-10-26T20:43:29.000Z</time>
      </trkpt>
      <trkpt lat="48.83612" lon="2.30018">
        <ele>53.799999237061</ele>
        <time>2015-10-26T20:43:31.000Z</time>
      </trkpt>
      <trkpt lat="48.83606" lon="2.30041">
        <ele>54</ele>
        <time>2015-10-26T20:43:34.000Z</time>
      </trkpt>
      <trkpt lat="48.83599" lon="2.30078">
        <ele>54</ele>
        <time>2015-10-26T20:43:39.000Z</time>
      </trkpt>
      <trkpt lat="48.83597" lon="2.30085">
        <ele>54</ele>
        <time>2015-10-26T20:43:40.000Z</time>
      </trkpt>
      <trkpt lat="48.83587" lon="2.30115">
        <ele>54</ele>
        <time>2015-10-26T20:43:44.000Z</time>
      </trkpt>
      <trkpt lat="48.83579" lon="2.30137">
        <ele>54</ele>
        <time>2015-10-26T20:43:47.000Z</time>
      </trkpt>
      <trkpt lat="48.8357" lon="2.30171">
        <ele>52.200000762939</ele>
        <time>2015-10-26T20:43:52.000Z</time>
      </trkpt>
      <trkpt lat="48.83568" lon="2.30176">
        <ele>52.200000762939</ele>
        <time>2015-10-26T20:43:53.000Z</time>
      </trkpt>
      <trkpt lat="48.83563" lon="2.30192">
        <ele>52</ele>
        <time>2015-10-26T20:43:56.000Z</time>
      </trkpt>
      <trkpt lat="48.83554" lon="2.3022">
        <ele>53</ele>
        <time>2015-10-26T20:44:02.000Z</time>
      </trkpt>
      <trkpt lat="48.83552" lon="2.30224">
        <ele>53.200000762939</ele>
        <time>2015-10-26T20:44:03.000Z</time>
      </trkpt>
      <trkpt lat="48.83545" lon="2.30244">
        <ele>54.599998474121</ele>
        <time>2015-10-26T20:44:08.000Z</time>
      </trkpt>
      <trkpt lat="48.83543" lon="2.30255">
        <ele>55</ele>
        <time>2015-10-26T20:44:12.000Z</time>
      </trkpt>
      <trkpt lat="48.83539" lon="2.30263">
        <ele>55.400001525879</ele>
        <time>2015-10-26T20:44:18.000Z</time>
      </trkpt>
      <trkpt lat="48.83537" lon="2.30262">
        <ele>55.400001525879</ele>
        <time>2015-10-26T20:44:43.000Z</time>
      </trkpt>
      <trkpt lat="48.83536" lon="2.30278">
        <ele>56.200000762939</ele>
        <time>2015-10-26T20:44:49.000Z</time>
      </trkpt>
      <trkpt lat="48.83531" lon="2.303">
        <ele>57.400001525879</ele>
        <time>2015-10-26T20:44:53.000Z</time>
      </trkpt>
      <trkpt lat="48.83527" lon="2.30314">
        <ele>58.200000762939</ele>
        <time>2015-10-26T20:44:56.000Z</time>
      </trkpt>
      <trkpt lat="48.83521" lon="2.30336">
        <ele>58.599998474121</ele>
        <time>2015-10-26T20:45:00.000Z</time>
      </trkpt>
      <trkpt lat="48.83517" lon="2.30355">
        <ele>57.799999237061</ele>
        <time>2015-10-26T20:45:03.000Z</time>
      </trkpt>
      <trkpt lat="48.83509" lon="2.30375">
        <ele>56.599998474121</ele>
        <time>2015-10-26T20:45:06.000Z</time>
      </trkpt>
      <trkpt lat="48.83496" lon="2.30412">
        <ele>56</ele>
        <time>2015-10-26T20:45:11.000Z</time>
      </trkpt>
      <trkpt lat="48.83487" lon="2.30442">
        <ele>56.599998474121</ele>
        <time>2015-10-26T20:45:15.000Z</time>
      </trkpt>
      <trkpt lat="48.83483" lon="2.30456">
        <ele>57</ele>
        <time>2015-10-26T20:45:17.000Z</time>
      </trkpt>
      <trkpt lat="48.83479" lon="2.30471">
        <ele>57.200000762939</ele>
        <time>2015-10-26T20:45:19.000Z</time>
      </trkpt>
      <trkpt lat="48.83471" lon="2.30501">
        <ele>57.400001525879</ele>
        <time>2015-10-26T20:45:23.000Z</time>
      </trkpt>
      <trkpt lat="48.8347" lon="2.30508">
        <ele>57.200000762939</ele>
        <time>2015-10-26T20:45:24.000Z</time>
      </trkpt>
      <trkpt lat="48.83464" lon="2.30533">
        <ele>57</ele>
        <time>2015-10-26T20:45:28.000Z</time>
      </trkpt>
      <trkpt lat="48.83456" lon="2.30559">
        <ele>57</ele>
        <time>2015-10-26T20:45:32.000Z</time>
      </trkpt>
      <trkpt lat="48.83453" lon="2.30572">
        <ele>57</ele>
        <time>2015-10-26T20:45:34.000Z</time>
      </trkpt>
      <trkpt lat="48.8345" lon="2.30579">
        <ele>57</ele>
        <time>2015-10-26T20:45:35.000Z</time>
      </trkpt>
      <trkpt lat="48.83444" lon="2.306">
        <ele>57.200000762939</ele>
        <time>2015-10-26T20:45:38.000Z</time>
      </trkpt>
      <trkpt lat="48.83442" lon="2.30606">
        <ele>57.200000762939</ele>
        <time>2015-10-26T20:45:39.000Z</time>
      </trkpt>
      <trkpt lat="48.83437" lon="2.30619">
        <ele>57.599998474121</ele>
        <time>2015-10-26T20:45:41.000Z</time>
      </trkpt>
      <trkpt lat="48.83431" lon="2.30645">
        <ele>58</ele>
        <time>2015-10-26T20:45:45.000Z</time>
      </trkpt>
      <trkpt lat="48.8343" lon="2.30651">
        <ele>58.200000762939</ele>
        <time>2015-10-26T20:45:46.000Z</time>
      </trkpt>
      <trkpt lat="48.83427" lon="2.30659">
        <ele>58.599998474121</ele>
        <time>2015-10-26T20:45:47.000Z</time>
      </trkpt>
      <trkpt lat="48.83422" lon="2.30677">
        <ele>59.799999237061</ele>
        <time>2015-10-26T20:45:50.000Z</time>
      </trkpt>
      <trkpt lat="48.83412" lon="2.30709">
        <ele>62.400001525879</ele>
        <time>2015-10-26T20:45:55.000Z</time>
      </trkpt>
      <trkpt lat="48.8341" lon="2.30714">
        <ele>62.799999237061</ele>
        <time>2015-10-26T20:45:56.000Z</time>
      </trkpt>
      <trkpt lat="48.83403" lon="2.30738">
        <ele>63</ele>
        <time>2015-10-26T20:46:00.000Z</time>
      </trkpt>
      <trkpt lat="48.83402" lon="2.30742">
        <ele>63</ele>
        <time>2015-10-26T20:46:01.000Z</time>
      </trkpt>
      <trkpt lat="48.834" lon="2.30747">
        <ele>63</ele>
        <time>2015-10-26T20:46:02.000Z</time>
      </trkpt>
      <trkpt lat="48.83395" lon="2.30763">
        <ele>63.200000762939</ele>
        <time>2015-10-26T20:46:06.000Z</time>
      </trkpt>
      <trkpt lat="48.83393" lon="2.30777">
        <ele>63.400001525879</ele>
        <time>2015-10-26T20:46:09.000Z</time>
      </trkpt>
      <trkpt lat="48.83388" lon="2.30805">
        <ele>63</ele>
        <time>2015-10-26T20:46:15.000Z</time>
      </trkpt>
      <trkpt lat="48.8338" lon="2.30822">
        <ele>62.599998474121</ele>
        <time>2015-10-26T20:46:18.000Z</time>
      </trkpt>
      <trkpt lat="48.83371" lon="2.30846">
        <ele>62.599998474121</ele>
        <time>2015-10-26T20:46:22.000Z</time>
      </trkpt>
      <trkpt lat="48.83368" lon="2.30861">
        <ele>61.799999237061</ele>
        <time>2015-10-26T20:46:25.000Z</time>
      </trkpt>
      <trkpt lat="48.83366" lon="2.30873">
        <ele>61.200000762939</ele>
        <time>2015-10-26T20:46:27.000Z</time>
      </trkpt>
      <trkpt lat="48.83361" lon="2.30898">
        <ele>60</ele>
        <time>2015-10-26T20:46:32.000Z</time>
      </trkpt>
      <trkpt lat="48.83357" lon="2.30916">
        <ele>59.200000762939</ele>
        <time>2015-10-26T20:46:36.000Z</time>
      </trkpt>
      <trkpt lat="48.83354" lon="2.30929">
        <ele>59</ele>
        <time>2015-10-26T20:46:39.000Z</time>
      </trkpt>
      <trkpt lat="48.83345" lon="2.30958">
        <ele>59.200000762939</ele>
        <time>2015-10-26T20:46:44.000Z</time>
      </trkpt>
      <trkpt lat="48.83337" lon="2.30984">
        <ele>59.200000762939</ele>
        <time>2015-10-26T20:46:48.000Z</time>
      </trkpt>
      <trkpt lat="48.83336" lon="2.30989">
        <ele>59</ele>
        <time>2015-10-26T20:46:49.000Z</time>
      </trkpt>
      <trkpt lat="48.83328" lon="2.31006">
        <ele>59.400001525879</ele>
        <time>2015-10-26T20:46:52.000Z</time>
      </trkpt>
      <trkpt lat="48.83323" lon="2.3103">
        <ele>60.200000762939</ele>
        <time>2015-10-26T20:46:56.000Z</time>
      </trkpt>
      <trkpt lat="48.83322" lon="2.31035">
        <ele>60.400001525879</ele>
        <time>2015-10-26T20:46:57.000Z</time>
      </trkpt>
      <trkpt lat="48.83326" lon="2.31055">
        <ele>61</ele>
        <time>2015-10-26T20:47:03.000Z</time>
      </trkpt>
      <trkpt lat="48.83323" lon="2.31059">
        <ele>60.799999237061</ele>
        <time>2015-10-26T20:47:04.000Z</time>
      </trkpt>
      <trkpt lat="48.8332" lon="2.31068">
        <ele>60.400001525879</ele>
        <time>2015-10-26T20:47:05.000Z</time>
      </trkpt>
      <trkpt lat="48.83308" lon="2.31087">
        <ele>59.799999237061</ele>
        <time>2015-10-26T20:47:07.000Z</time>
      </trkpt>
      <trkpt lat="48.83297" lon="2.3111">
        <ele>60</ele>
        <time>2015-10-26T20:47:10.000Z</time>
      </trkpt>
      <trkpt lat="48.83283" lon="2.3114">
        <ele>61.200000762939</ele>
        <time>2015-10-26T20:47:15.000Z</time>
      </trkpt>
      <trkpt lat="48.83277" lon="2.31161">
        <ele>62</ele>
        <time>2015-10-26T20:47:19.000Z</time>
      </trkpt>
      <trkpt lat="48.83272" lon="2.3117">
        <ele>62</ele>
        <time>2015-10-26T20:47:21.000Z</time>
      </trkpt>
      <trkpt lat="48.83267" lon="2.31179">
        <ele>62.599998474121</ele>
        <time>2015-10-26T20:47:23.000Z</time>
      </trkpt>
      <trkpt lat="48.8326" lon="2.31192">
        <ele>63.599998474121</ele>
        <time>2015-10-26T20:47:26.000Z</time>
      </trkpt>
      <trkpt lat="48.83255" lon="2.31207">
        <ele>64.199996948242</ele>
        <time>2015-10-26T20:47:29.000Z</time>
      </trkpt>
      <trkpt lat="48.8325" lon="2.31231">
        <ele>64.599998474121</ele>
        <time>2015-10-26T20:47:33.000Z</time>
      </trkpt>
      <trkpt lat="48.83243" lon="2.31249">
        <ele>64.199996948242</ele>
        <time>2015-10-26T20:47:36.000Z</time>
      </trkpt>
      <trkpt lat="48.83235" lon="2.31273">
        <ele>66</ele>
        <time>2015-10-26T20:47:40.000Z</time>
      </trkpt>
      <trkpt lat="48.83231" lon="2.31285">
        <ele>66.800003051758</ele>
        <time>2015-10-26T20:47:42.000Z</time>
      </trkpt>
      <trkpt lat="48.83225" lon="2.31297">
        <ele>67.199996948242</ele>
        <time>2015-10-26T20:47:44.000Z</time>
      </trkpt>
      <trkpt lat="48.83215" lon="2.31314">
        <ele>67.599998474121</ele>
        <time>2015-10-26T20:47:47.000Z</time>
      </trkpt>
      <trkpt lat="48.83205" lon="2.31332">
        <ele>68</ele>
        <time>2015-10-26T20:47:50.000Z</time>
      </trkpt>
      <trkpt lat="48.83197" lon="2.31342">
        <ele>68.199996948242</ele>
        <time>2015-10-26T20:47:52.000Z</time>
      </trkpt>
      <trkpt lat="48.83188" lon="2.31367">
        <ele>68</ele>
        <time>2015-10-26T20:47:56.000Z</time>
      </trkpt>
      <trkpt lat="48.83187" lon="2.31374">
        <ele>68</ele>
        <time>2015-10-26T20:47:57.000Z</time>
      </trkpt>
      <trkpt lat="48.83183" lon="2.31391">
        <ele>68</ele>
        <time>2015-10-26T20:48:00.000Z</time>
      </trkpt>
      <trkpt lat="48.83184" lon="2.31412">
        <ele>68</ele>
        <time>2015-10-26T20:48:04.000Z</time>
      </trkpt>
      <trkpt lat="48.83186" lon="2.31417">
        <ele>68</ele>
        <time>2015-10-26T20:48:05.000Z</time>
      </trkpt>
      <trkpt lat="48.83198" lon="2.31433">
        <ele>67.800003051758</ele>
        <time>2015-10-26T20:48:09.000Z</time>
      </trkpt>
      <trkpt lat="48.83214" lon="2.31453">
        <ele>67.599998474121</ele>
        <time>2015-10-26T20:48:14.000Z</time>
      </trkpt>
      <trkpt lat="48.83217" lon="2.31457">
        <ele>67.599998474121</ele>
        <time>2015-10-26T20:48:15.000Z</time>
      </trkpt>
      <trkpt lat="48.8323" lon="2.31478">
        <ele>67.599998474121</ele>
        <time>2015-10-26T20:48:19.000Z</time>
      </trkpt>
      <trkpt lat="48.83235" lon="2.31487">
        <ele>67.400001525879</ele>
        <time>2015-10-26T20:48:21.000Z</time>
      </trkpt>
      <trkpt lat="48.83241" lon="2.31496">
        <ele>67.400001525879</ele>
        <time>2015-10-26T20:48:23.000Z</time>
      </trkpt>
      <trkpt lat="48.83246" lon="2.31504">
        <ele>67.400001525879</ele>
        <time>2015-10-26T20:48:25.000Z</time>
      </trkpt>
      <trkpt lat="48.8325" lon="2.31515">
        <ele>67.400001525879</ele>
        <time>2015-10-26T20:48:27.000Z</time>
      </trkpt>
      <trkpt lat="48.83262" lon="2.31532">
        <ele>67.599998474121</ele>
        <time>2015-10-26T20:48:31.000Z</time>
      </trkpt>
      <trkpt lat="48.83271" lon="2.31556">
        <ele>67.800003051758</ele>
        <time>2015-10-26T20:48:35.000Z</time>
      </trkpt>
      <trkpt lat="48.83275" lon="2.31566">
        <ele>67.800003051758</ele>
        <time>2015-10-26T20:48:37.000Z</time>
      </trkpt>
      <trkpt lat="48.83289" lon="2.31591">
        <ele>68.400001525879</ele>
        <time>2015-10-26T20:48:42.000Z</time>
      </trkpt>
      <trkpt lat="48.83303" lon="2.3161">
        <ele>68.800003051758</ele>
        <time>2015-10-26T20:48:46.000Z</time>
      </trkpt>
      <trkpt lat="48.83308" lon="2.31614">
        <ele>68.800003051758</ele>
        <time>2015-10-26T20:48:47.000Z</time>
      </trkpt>
      <trkpt lat="48.83311" lon="2.31618">
        <ele>69</ele>
        <time>2015-10-26T20:48:48.000Z</time>
      </trkpt>
      <trkpt lat="48.83324" lon="2.31638">
        <ele>69.199996948242</ele>
        <time>2015-10-26T20:48:52.000Z</time>
      </trkpt>
      <trkpt lat="48.83326" lon="2.31644">
        <ele>69.199996948242</ele>
        <time>2015-10-26T20:48:53.000Z</time>
      </trkpt>
      <trkpt lat="48.83331" lon="2.31655">
        <ele>69.199996948242</ele>
        <time>2015-10-26T20:48:55.000Z</time>
      </trkpt>
      <trkpt lat="48.83348" lon="2.31682">
        <ele>69.800003051758</ele>
        <time>2015-10-26T20:49:00.000Z</time>
      </trkpt>
      <trkpt lat="48.8335" lon="2.31687">
        <ele>69.800003051758</ele>
        <time>2015-10-26T20:49:01.000Z</time>
      </trkpt>
      <trkpt lat="48.83352" lon="2.31693">
        <ele>69.800003051758</ele>
        <time>2015-10-26T20:49:02.000Z</time>
      </trkpt>
      <trkpt lat="48.83361" lon="2.3172">
        <ele>69.800003051758</ele>
        <time>2015-10-26T20:49:06.000Z</time>
      </trkpt>
      <trkpt lat="48.83364" lon="2.31727">
        <ele>69.800003051758</ele>
        <time>2015-10-26T20:49:07.000Z</time>
      </trkpt>
      <trkpt lat="48.83368" lon="2.31734">
        <ele>69.599998474121</ele>
        <time>2015-10-26T20:49:08.000Z</time>
      </trkpt>
      <trkpt lat="48.83378" lon="2.31753">
        <ele>69.599998474121</ele>
        <time>2015-10-26T20:49:11.000Z</time>
      </trkpt>
      <trkpt lat="48.83381" lon="2.3176">
        <ele>69.599998474121</ele>
        <time>2015-10-26T20:49:12.000Z</time>
      </trkpt>
      <trkpt lat="48.83391" lon="2.31787">
        <ele>69.599998474121</ele>
        <time>2015-10-26T20:49:16.000Z</time>
      </trkpt>
      <trkpt lat="48.83395" lon="2.31792">
        <ele>69.599998474121</ele>
        <time>2015-10-26T20:49:17.000Z</time>
      </trkpt>
      <trkpt lat="48.83399" lon="2.31798">
        <ele>69.599998474121</ele>
        <time>2015-10-26T20:49:18.000Z</time>
      </trkpt>
      <trkpt lat="48.83411" lon="2.31823">
        <ele>69.599998474121</ele>
        <time>2015-10-26T20:49:22.000Z</time>
      </trkpt>
      <trkpt lat="48.83415" lon="2.31829">
        <ele>69.599998474121</ele>
        <time>2015-10-26T20:49:23.000Z</time>
      </trkpt>
      <trkpt lat="48.83425" lon="2.3185">
        <ele>69.199996948242</ele>
        <time>2015-10-26T20:49:26.000Z</time>
      </trkpt>
      <trkpt lat="48.83442" lon="2.31884">
        <ele>68.599998474121</ele>
        <time>2015-10-26T20:49:31.000Z</time>
      </trkpt>
      <trkpt lat="48.83446" lon="2.3189">
        <ele>68.599998474121</ele>
        <time>2015-10-26T20:49:32.000Z</time>
      </trkpt>
      <trkpt lat="48.83458" lon="2.31912">
        <ele>69</ele>
        <time>2015-10-26T20:49:35.000Z</time>
      </trkpt>
      <trkpt lat="48.83462" lon="2.31918">
        <ele>69</ele>
        <time>2015-10-26T20:49:36.000Z</time>
      </trkpt>
      <trkpt lat="48.83475" lon="2.31939">
        <ele>68.800003051758</ele>
        <time>2015-10-26T20:49:39.000Z</time>
      </trkpt>
      <trkpt lat="48.83479" lon="2.31948">
        <ele>68.599998474121</ele>
        <time>2015-10-26T20:49:40.000Z</time>
      </trkpt>
      <trkpt lat="48.83483" lon="2.31954">
        <ele>68.599998474121</ele>
        <time>2015-10-26T20:49:41.000Z</time>
      </trkpt>
      <trkpt lat="48.83496" lon="2.31983">
        <ele>68.599998474121</ele>
        <time>2015-10-26T20:49:45.000Z</time>
      </trkpt>
      <trkpt lat="48.83499" lon="2.31989">
        <ele>68.599998474121</ele>
        <time>2015-10-26T20:49:46.000Z</time>
      </trkpt>
      <trkpt lat="48.8351" lon="2.32011">
        <ele>69</ele>
        <time>2015-10-26T20:49:50.000Z</time>
      </trkpt>
      <trkpt lat="48.83516" lon="2.32019">
        <ele>69.400001525879</ele>
        <time>2015-10-26T20:49:52.000Z</time>
      </trkpt>
      <trkpt lat="48.83526" lon="2.32034">
        <ele>70</ele>
        <time>2015-10-26T20:49:56.000Z</time>
      </trkpt>
      <trkpt lat="48.83537" lon="2.32058">
        <ele>71.199996948242</ele>
        <time>2015-10-26T20:50:02.000Z</time>
      </trkpt>
      <trkpt lat="48.83543" lon="2.32079">
        <ele>72</ele>
        <time>2015-10-26T20:50:26.000Z</time>
      </trkpt>
      <trkpt lat="48.83541" lon="2.32085">
        <ele>71.800003051758</ele>
        <time>2015-10-26T20:50:40.000Z</time>
      </trkpt>
      <trkpt lat="48.83539" lon="2.32086">
        <ele>71.800003051758</ele>
        <time>2015-10-26T20:50:51.000Z</time>
      </trkpt>
      <trkpt lat="48.83535" lon="2.32089">
        <ele>71.599998474121</ele>
        <time>2015-10-26T20:51:13.000Z</time>
      </trkpt>
      <trkpt lat="48.83536" lon="2.3209">
        <ele>71.599998474121</ele>
        <time>2015-10-26T20:51:17.000Z</time>
      </trkpt>
      <trkpt lat="48.83534" lon="2.32095">
        <ele>71.599998474121</ele>
        <time>2015-10-26T20:51:23.000Z</time>
      </trkpt>
      <trkpt lat="48.83536" lon="2.32092">
        <ele>71.599998474121</ele>
        <time>2015-10-26T20:51:35.000Z</time>
      </trkpt>
      <trkpt lat="48.83538" lon="2.32089">
        <ele>71.800003051758</ele>
        <time>2015-10-26T20:51:37.000Z</time>
      </trkpt>
      <trkpt lat="48.83543" lon="2.32086">
        <ele>72</ele>
        <time>2015-10-26T20:51:42.000Z</time>
      </trkpt>
      <trkpt lat="48.83544" lon="2.32086">
        <ele>72</ele>
        <time>2015-10-26T20:51:43.000Z</time>
      </trkpt>
      <trkpt lat="48.83548" lon="2.32093">
        <ele>72.199996948242</ele>
        <time>2015-10-26T20:51:48.000Z</time>
      </trkpt>
      <trkpt lat="48.83555" lon="2.32102">
        <ele>72.599998474121</ele>
        <time>2015-10-26T20:51:53.000Z</time>
      </trkpt>
      <trkpt lat="48.83557" lon="2.32104">
        <ele>72.599998474121</ele>
        <time>2015-10-26T20:51:54.000Z</time>
      </trkpt>
      <trkpt lat="48.83566" lon="2.3212">
        <ele>73</ele>
        <time>2015-10-26T20:52:01.000Z</time>
      </trkpt>
      <trkpt lat="48.83575" lon="2.32125">
        <ele>73.599998474121</ele>
        <time>2015-10-26T20:52:05.000Z</time>
      </trkpt>
      <trkpt lat="48.83577" lon="2.32128">
        <ele>73.599998474121</ele>
        <time>2015-10-26T20:52:06.000Z</time>
      </trkpt>
      <trkpt lat="48.83585" lon="2.3214">
        <ele>74</ele>
        <time>2015-10-26T20:52:11.000Z</time>
      </trkpt>
      <trkpt lat="48.83597" lon="2.32158">
        <ele>74.599998474121</ele>
        <time>2015-10-26T20:52:18.000Z</time>
      </trkpt>
      <trkpt lat="48.836" lon="2.32164">
        <ele>74.800003051758</ele>
        <time>2015-10-26T20:52:20.000Z</time>
      </trkpt>
      <trkpt lat="48.83611" lon="2.32174">
        <ele>74.599998474121</ele>
        <time>2015-10-26T20:52:24.000Z</time>
      </trkpt>
      <trkpt lat="48.83621" lon="2.32195">
        <ele>74</ele>
        <time>2015-10-26T20:52:29.000Z</time>
      </trkpt>
      <trkpt lat="48.83641" lon="2.32207">
        <ele>73.800003051758</ele>
        <time>2015-10-26T20:52:34.000Z</time>
      </trkpt>
      <trkpt lat="48.83645" lon="2.3221">
        <ele>73.800003051758</ele>
        <time>2015-10-26T20:52:35.000Z</time>
      </trkpt>
      <trkpt lat="48.83657" lon="2.32239">
        <ele>73</ele>
        <time>2015-10-26T20:52:41.000Z</time>
      </trkpt>
      <trkpt lat="48.83675" lon="2.32259">
        <ele>72.599998474121</ele>
        <time>2015-10-26T20:52:47.000Z</time>
      </trkpt>
      <trkpt lat="48.83677" lon="2.32262">
        <ele>72.400001525879</ele>
        <time>2015-10-26T20:52:48.000Z</time>
      </trkpt>
      <trkpt lat="48.83688" lon="2.32294">
        <ele>71.800003051758</ele>
        <time>2015-10-26T20:52:55.000Z</time>
      </trkpt>
      <trkpt lat="48.83689" lon="2.32308">
        <ele>71.599998474121</ele>
        <time>2015-10-26T20:53:00.000Z</time>
      </trkpt>
      <trkpt lat="48.83681" lon="2.3232">
        <ele>71.199996948242</ele>
        <time>2015-10-26T20:53:12.000Z</time>
      </trkpt>
      <trkpt lat="48.83673" lon="2.32333">
        <ele>70.800003051758</ele>
        <time>2015-10-26T20:53:22.000Z</time>
      </trkpt>
      <trkpt lat="48.83672" lon="2.32335">
        <ele>70.800003051758</ele>
        <time>2015-10-26T20:53:24.000Z</time>
      </trkpt>
      <trkpt lat="48.83672" lon="2.32337">
        <ele>70.800003051758</ele>
        <time>2015-10-26T20:53:26.000Z</time>
      </trkpt>
      <trkpt lat="48.83681" lon="2.32345">
        <ele>71</ele>
        <time>2015-10-26T20:53:31.000Z</time>
      </trkpt>
      <trkpt lat="48.83691" lon="2.32362">
        <ele>70.800003051758</ele>
        <time>2015-10-26T20:53:37.000Z</time>
      </trkpt>
      <trkpt lat="48.83694" lon="2.32368">
        <ele>70.599998474121</ele>
        <time>2015-10-26T20:53:39.000Z</time>
      </trkpt>
      <trkpt lat="48.8369" lon="2.32381">
        <ele>70.800003051758</ele>
        <time>2015-10-26T20:53:44.000Z</time>
      </trkpt>
      <trkpt lat="48.83681" lon="2.32403">
        <ele>70.800003051758</ele>
        <time>2015-10-26T20:53:49.000Z</time>
      </trkpt>
      <trkpt lat="48.83668" lon="2.3243">
        <ele>71.400001525879</ele>
        <time>2015-10-26T20:53:55.000Z</time>
      </trkpt>
      <trkpt lat="48.83658" lon="2.32453">
        <ele>71.199996948242</ele>
        <time>2015-10-26T20:54:00.000Z</time>
      </trkpt>
      <trkpt lat="48.83648" lon="2.32473">
        <ele>71.400001525879</ele>
        <time>2015-10-26T20:54:04.000Z</time>
      </trkpt>
      <trkpt lat="48.83637" lon="2.32497">
        <ele>71.800003051758</ele>
        <time>2015-10-26T20:54:09.000Z</time>
      </trkpt>
      <trkpt lat="48.8363" lon="2.32513">
        <ele>71.800003051758</ele>
        <time>2015-10-26T20:54:12.000Z</time>
      </trkpt>
      <trkpt lat="48.8362" lon="2.32531">
        <ele>71.599998474121</ele>
        <time>2015-10-26T20:54:16.000Z</time>
      </trkpt>
      <trkpt lat="48.83622" lon="2.3255">
        <ele>71.199996948242</ele>
        <time>2015-10-26T20:54:20.000Z</time>
      </trkpt>
      <trkpt lat="48.83625" lon="2.32553">
        <ele>71</ele>
        <time>2015-10-26T20:54:21.000Z</time>
      </trkpt>
      <trkpt lat="48.83641" lon="2.32567">
        <ele>70</ele>
        <time>2015-10-26T20:54:25.000Z</time>
      </trkpt>
      <trkpt lat="48.83643" lon="2.32571">
        <ele>69.800003051758</ele>
        <time>2015-10-26T20:54:26.000Z</time>
      </trkpt>
      <trkpt lat="48.83652" lon="2.32584">
        <ele>69.400001525879</ele>
        <time>2015-10-26T20:54:30.000Z</time>
      </trkpt>
      <trkpt lat="48.83659" lon="2.3259">
        <ele>69</ele>
        <time>2015-10-26T20:54:35.000Z</time>
      </trkpt>
      <trkpt lat="48.8366" lon="2.32592">
        <ele>69</ele>
        <time>2015-10-26T20:54:36.000Z</time>
      </trkpt>
      <trkpt lat="48.83658" lon="2.32604">
        <ele>69.199996948242</ele>
        <time>2015-10-26T20:54:39.000Z</time>
      </trkpt>
      <trkpt lat="48.83657" lon="2.32608">
        <ele>69.199996948242</ele>
        <time>2015-10-26T20:54:40.000Z</time>
      </trkpt>
      <trkpt lat="48.8365" lon="2.32637">
        <ele>69</ele>
        <time>2015-10-26T20:54:46.000Z</time>
      </trkpt>
      <trkpt lat="48.8364" lon="2.32667">
        <ele>67.800003051758</ele>
        <time>2015-10-26T20:54:51.000Z</time>
      </trkpt>
      <trkpt lat="48.83632" lon="2.32692">
        <ele>66.599998474121</ele>
        <time>2015-10-26T20:54:55.000Z</time>
      </trkpt>
      <trkpt lat="48.83622" lon="2.32722">
        <ele>66.199996948242</ele>
        <time>2015-10-26T20:55:00.000Z</time>
      </trkpt>
      <trkpt lat="48.83616" lon="2.32744">
        <ele>65.800003051758</ele>
        <time>2015-10-26T20:55:04.000Z</time>
      </trkpt>
      <trkpt lat="48.83613" lon="2.32772">
        <ele>63.400001525879</ele>
        <time>2015-10-26T20:55:10.000Z</time>
      </trkpt>
      <trkpt lat="48.83621" lon="2.32781">
        <ele>62.400001525879</ele>
        <time>2015-10-26T20:55:13.000Z</time>
      </trkpt>
      <trkpt lat="48.83623" lon="2.32784">
        <ele>62</ele>
        <time>2015-10-26T20:55:14.000Z</time>
      </trkpt>
      <trkpt lat="48.8363" lon="2.32792">
        <ele>61.200000762939</ele>
        <time>2015-10-26T20:55:18.000Z</time>
      </trkpt>
      <trkpt lat="48.83642" lon="2.32802">
        <ele>59.799999237061</ele>
        <time>2015-10-26T20:55:22.000Z</time>
      </trkpt>
      <trkpt lat="48.8366" lon="2.32816">
        <ele>58.200000762939</ele>
        <time>2015-10-26T20:55:27.000Z</time>
      </trkpt>
      <trkpt lat="48.83676" lon="2.32827">
        <ele>56.599998474121</ele>
        <time>2015-10-26T20:55:32.000Z</time>
      </trkpt>
      <trkpt lat="48.83693" lon="2.32838">
        <ele>56.200000762939</ele>
        <time>2015-10-26T20:55:36.000Z</time>
      </trkpt>
      <trkpt lat="48.83704" lon="2.32845">
        <ele>56.400001525879</ele>
        <time>2015-10-26T20:55:39.000Z</time>
      </trkpt>
      <trkpt lat="48.83728" lon="2.3286">
        <ele>57</ele>
        <time>2015-10-26T20:55:45.000Z</time>
      </trkpt>
      <trkpt lat="48.83732" lon="2.32862">
        <ele>57</ele>
        <time>2015-10-26T20:55:46.000Z</time>
      </trkpt>
      <trkpt lat="48.83753" lon="2.32873">
        <ele>57.599998474121</ele>
        <time>2015-10-26T20:55:53.000Z</time>
      </trkpt>
      <trkpt lat="48.83761" lon="2.32878">
        <ele>57.799999237061</ele>
        <time>2015-10-26T20:55:58.000Z</time>
      </trkpt>
      <trkpt lat="48.83772" lon="2.32887">
        <ele>58</ele>
        <time>2015-10-26T20:56:05.000Z</time>
      </trkpt>
      <trkpt lat="48.83782" lon="2.32897">
        <ele>57.799999237061</ele>
        <time>2015-10-26T20:56:11.000Z</time>
      </trkpt>
      <trkpt lat="48.83788" lon="2.32902">
        <ele>57.799999237061</ele>
        <time>2015-10-26T20:56:15.000Z</time>
      </trkpt>
      <trkpt lat="48.83791" lon="2.32906">
        <ele>57.799999237061</ele>
        <time>2015-10-26T20:56:29.000Z</time>
      </trkpt>
      <trkpt lat="48.838" lon="2.32911">
        <ele>57.599998474121</ele>
        <time>2015-10-26T20:56:35.000Z</time>
      </trkpt>
      <trkpt lat="48.83802" lon="2.32912">
        <ele>57.599998474121</ele>
        <time>2015-10-26T20:56:36.000Z</time>
      </trkpt>
      <trkpt lat="48.8381" lon="2.32917">
        <ele>57.599998474121</ele>
        <time>2015-10-26T20:56:41.000Z</time>
      </trkpt>
      <trkpt lat="48.83819" lon="2.32923">
        <ele>57.799999237061</ele>
        <time>2015-10-26T20:56:46.000Z</time>
      </trkpt>
      <trkpt lat="48.83821" lon="2.32925">
        <ele>58</ele>
        <time>2015-10-26T20:56:47.000Z</time>
      </trkpt>
      <trkpt lat="48.83829" lon="2.32931">
        <ele>58.200000762939</ele>
        <time>2015-10-26T20:56:52.000Z</time>
      </trkpt>
      <trkpt lat="48.83838" lon="2.32939">
        <ele>58.400001525879</ele>
        <time>2015-10-26T20:56:58.000Z</time>
      </trkpt>
      <trkpt lat="48.83851" lon="2.32949">
        <ele>58.799999237061</ele>
        <time>2015-10-26T20:57:05.000Z</time>
      </trkpt>
      <trkpt lat="48.8386" lon="2.32956">
        <ele>59</ele>
        <time>2015-10-26T20:57:10.000Z</time>
      </trkpt>
      <trkpt lat="48.83862" lon="2.32958">
        <ele>59</ele>
        <time>2015-10-26T20:57:11.000Z</time>
      </trkpt>
      <trkpt lat="48.83871" lon="2.32964">
        <ele>59.200000762939</ele>
        <time>2015-10-26T20:57:15.000Z</time>
      </trkpt>
      <trkpt lat="48.83889" lon="2.32977">
        <ele>59.599998474121</ele>
        <time>2015-10-26T20:57:23.000Z</time>
      </trkpt>
      <trkpt lat="48.83898" lon="2.32985">
        <ele>59.799999237061</ele>
        <time>2015-10-26T20:57:27.000Z</time>
      </trkpt>
      <trkpt lat="48.83911" lon="2.32998">
        <ele>60.400001525879</ele>
        <time>2015-10-26T20:57:32.000Z</time>
      </trkpt>
      <trkpt lat="48.83921" lon="2.33011">
        <ele>60.799999237061</ele>
        <time>2015-10-26T20:57:38.000Z</time>
      </trkpt>
      <trkpt lat="48.83922" lon="2.33014">
        <ele>61</ele>
        <time>2015-10-26T20:57:40.000Z</time>
      </trkpt>
      <trkpt lat="48.83924" lon="2.33018">
        <ele>61.200000762939</ele>
        <time>2015-10-26T20:57:50.000Z</time>
      </trkpt>
      <trkpt lat="48.83928" lon="2.33023">
        <ele>61.400001525879</ele>
        <time>2015-10-26T20:58:10.000Z</time>
      </trkpt>
      <trkpt lat="48.83925" lon="2.33043">
        <ele>62.400001525879</ele>
        <time>2015-10-26T20:58:16.000Z</time>
      </trkpt>
      <trkpt lat="48.83916" lon="2.33061">
        <ele>63.400001525879</ele>
        <time>2015-10-26T20:58:21.000Z</time>
      </trkpt>
      <trkpt lat="48.83911" lon="2.3307">
        <ele>64</ele>
        <time>2015-10-26T20:58:24.000Z</time>
      </trkpt>
      <trkpt lat="48.83898" lon="2.33086">
        <ele>65</ele>
        <time>2015-10-26T20:58:30.000Z</time>
      </trkpt>
      <trkpt lat="48.83893" lon="2.33095">
        <ele>65</ele>
        <time>2015-10-26T20:58:33.000Z</time>
      </trkpt>
      <trkpt lat="48.83892" lon="2.33108">
        <ele>64.800003051758</ele>
        <time>2015-10-26T20:58:38.000Z</time>
      </trkpt>
      <trkpt lat="48.83895" lon="2.33114">
        <ele>64.599998474121</ele>
        <time>2015-10-26T20:58:40.000Z</time>
      </trkpt>
      <trkpt lat="48.83899" lon="2.3312">
        <ele>64.400001525879</ele>
        <time>2015-10-26T20:58:42.000Z</time>
      </trkpt>
      <trkpt lat="48.83911" lon="2.3314">
        <ele>64</ele>
        <time>2015-10-26T20:58:48.000Z</time>
      </trkpt>
      <trkpt lat="48.83913" lon="2.33144">
        <ele>63.799999237061</ele>
        <time>2015-10-26T20:58:49.000Z</time>
      </trkpt>
      <trkpt lat="48.83927" lon="2.33162">
        <ele>63.400001525879</ele>
        <time>2015-10-26T20:58:53.000Z</time>
      </trkpt>
      <trkpt lat="48.83941" lon="2.3318">
        <ele>62.799999237061</ele>
        <time>2015-10-26T20:58:57.000Z</time>
      </trkpt>
      <trkpt lat="48.83944" lon="2.33186">
        <ele>63</ele>
        <time>2015-10-26T20:58:58.000Z</time>
      </trkpt>
      <trkpt lat="48.83956" lon="2.33206">
        <ele>63.200000762939</ele>
        <time>2015-10-26T20:59:02.000Z</time>
      </trkpt>
      <trkpt lat="48.8396" lon="2.33212">
        <ele>63.200000762939</ele>
        <time>2015-10-26T20:59:03.000Z</time>
      </trkpt>
      <trkpt lat="48.83963" lon="2.33218">
        <ele>63.200000762939</ele>
        <time>2015-10-26T20:59:04.000Z</time>
      </trkpt>
      <trkpt lat="48.8397" lon="2.33228">
        <ele>63.400001525879</ele>
        <time>2015-10-26T20:59:06.000Z</time>
      </trkpt>
      <trkpt lat="48.83981" lon="2.33254">
        <ele>63.599998474121</ele>
        <time>2015-10-26T20:59:10.000Z</time>
      </trkpt>
      <trkpt lat="48.83999" lon="2.33281">
        <ele>64.599998474121</ele>
        <time>2015-10-26T20:59:15.000Z</time>
      </trkpt>
      <trkpt lat="48.84013" lon="2.33302">
        <ele>65.400001525879</ele>
        <time>2015-10-26T20:59:19.000Z</time>
      </trkpt>
      <trkpt lat="48.84024" lon="2.33324">
        <ele>65.800003051758</ele>
        <time>2015-10-26T20:59:23.000Z</time>
      </trkpt>
      <trkpt lat="48.84028" lon="2.33329">
        <ele>65.800003051758</ele>
        <time>2015-10-26T20:59:24.000Z</time>
      </trkpt>
      <trkpt lat="48.84038" lon="2.33339">
        <ele>65.199996948242</ele>
        <time>2015-10-26T20:59:27.000Z</time>
      </trkpt>
      <trkpt lat="48.84056" lon="2.33353">
        <ele>64</ele>
        <time>2015-10-26T20:59:32.000Z</time>
      </trkpt>
      <trkpt lat="48.8406" lon="2.33374">
        <ele>63.200000762939</ele>
        <time>2015-10-26T20:59:36.000Z</time>
      </trkpt>
      <trkpt lat="48.84057" lon="2.33384">
        <ele>63.200000762939</ele>
        <time>2015-10-26T20:59:38.000Z</time>
      </trkpt>
      <trkpt lat="48.84053" lon="2.33396">
        <ele>63.400001525879</ele>
        <time>2015-10-26T20:59:40.000Z</time>
      </trkpt>
      <trkpt lat="48.84049" lon="2.33408">
        <ele>63.400001525879</ele>
        <time>2015-10-26T20:59:42.000Z</time>
      </trkpt>
      <trkpt lat="48.84043" lon="2.33427">
        <ele>64.800003051758</ele>
        <time>2015-10-26T20:59:45.000Z</time>
      </trkpt>
      <trkpt lat="48.84032" lon="2.33452">
        <ele>65.599998474121</ele>
        <time>2015-10-26T20:59:49.000Z</time>
      </trkpt>
      <trkpt lat="48.84022" lon="2.33478">
        <ele>65.800003051758</ele>
        <time>2015-10-26T20:59:53.000Z</time>
      </trkpt>
      <trkpt lat="48.84019" lon="2.33485">
        <ele>65.800003051758</ele>
        <time>2015-10-26T20:59:54.000Z</time>
      </trkpt>
      <trkpt lat="48.84013" lon="2.33503">
        <ele>65.199996948242</ele>
        <time>2015-10-26T20:59:57.000Z</time>
      </trkpt>
      <trkpt lat="48.84005" lon="2.33527">
        <ele>64.199996948242</ele>
        <time>2015-10-26T21:00:02.000Z</time>
      </trkpt>
      <trkpt lat="48.84003" lon="2.33532">
        <ele>64</ele>
        <time>2015-10-26T21:00:03.000Z</time>
      </trkpt>
      <trkpt lat="48.83998" lon="2.33547">
        <ele>63.400001525879</ele>
        <time>2015-10-26T21:00:08.000Z</time>
      </trkpt>
      <trkpt lat="48.83995" lon="2.33549">
        <ele>63.200000762939</ele>
        <time>2015-10-26T21:00:16.000Z</time>
      </trkpt>
      <trkpt lat="48.83997" lon="2.33557">
        <ele>63</ele>
        <time>2015-10-26T21:00:25.000Z</time>
      </trkpt>
      <trkpt lat="48.83993" lon="2.33572">
        <ele>62.400001525879</ele>
        <time>2015-10-26T21:00:30.000Z</time>
      </trkpt>
      <trkpt lat="48.83987" lon="2.33589">
        <ele>61.599998474121</ele>
        <time>2015-10-26T21:00:35.000Z</time>
      </trkpt>
      <trkpt lat="48.83981" lon="2.3361">
        <ele>60.799999237061</ele>
        <time>2015-10-26T21:00:42.000Z</time>
      </trkpt>
      <trkpt lat="48.83978" lon="2.33628">
        <ele>60.599998474121</ele>
        <time>2015-10-26T21:00:48.000Z</time>
      </trkpt>
      <trkpt lat="48.83978" lon="2.3363">
        <ele>60.599998474121</ele>
        <time>2015-10-26T21:00:49.000Z</time>
      </trkpt>
      <trkpt lat="48.83985" lon="2.33652">
        <ele>61.200000762939</ele>
        <time>2015-10-26T21:00:55.000Z</time>
      </trkpt>
      <trkpt lat="48.83995" lon="2.33665">
        <ele>61.599998474121</ele>
        <time>2015-10-26T21:01:00.000Z</time>
      </trkpt>
      <trkpt lat="48.84003" lon="2.33676">
        <ele>62</ele>
        <time>2015-10-26T21:01:05.000Z</time>
      </trkpt>
      <trkpt lat="48.84007" lon="2.3368">
        <ele>62.200000762939</ele>
        <time>2015-10-26T21:01:07.000Z</time>
      </trkpt>
      <trkpt lat="48.84014" lon="2.33685">
        <ele>62.400001525879</ele>
        <time>2015-10-26T21:01:10.000Z</time>
      </trkpt>
      <trkpt lat="48.84029" lon="2.33691">
        <ele>62.400001525879</ele>
        <time>2015-10-26T21:01:15.000Z</time>
      </trkpt>
      <trkpt lat="48.84041" lon="2.33683">
        <ele>61.799999237061</ele>
        <time>2015-10-26T21:01:19.000Z</time>
      </trkpt>
      <trkpt lat="48.84058" lon="2.33667">
        <ele>61.599998474121</ele>
        <time>2015-10-26T21:01:24.000Z</time>
      </trkpt>
      <trkpt lat="48.8407" lon="2.33655">
        <ele>61.599998474121</ele>
        <time>2015-10-26T21:01:27.000Z</time>
      </trkpt>
      <trkpt lat="48.8409" lon="2.33634">
        <ele>63</ele>
        <time>2015-10-26T21:01:32.000Z</time>
      </trkpt>
      <trkpt lat="48.84107" lon="2.33618">
        <ele>65.400001525879</ele>
        <time>2015-10-26T21:01:36.000Z</time>
      </trkpt>
      <trkpt lat="48.84119" lon="2.33606">
        <ele>66.400001525879</ele>
        <time>2015-10-26T21:01:39.000Z</time>
      </trkpt>
      <trkpt lat="48.84127" lon="2.33595">
        <ele>67</ele>
        <time>2015-10-26T21:01:41.000Z</time>
      </trkpt>
      <trkpt lat="48.84147" lon="2.33575">
        <ele>66.400001525879</ele>
        <time>2015-10-26T21:01:46.000Z</time>
      </trkpt>
      <trkpt lat="48.84164" lon="2.33559">
        <ele>65</ele>
        <time>2015-10-26T21:01:50.000Z</time>
      </trkpt>
      <trkpt lat="48.84173" lon="2.33551">
        <ele>64.599998474121</ele>
        <time>2015-10-26T21:01:52.000Z</time>
      </trkpt>
      <trkpt lat="48.84188" lon="2.33541">
        <ele>64</ele>
        <time>2015-10-26T21:01:55.000Z</time>
      </trkpt>
      <trkpt lat="48.842" lon="2.33528">
        <ele>63.599998474121</ele>
        <time>2015-10-26T21:01:58.000Z</time>
      </trkpt>
      <trkpt lat="48.84222" lon="2.33504">
        <ele>62.599998474121</ele>
        <time>2015-10-26T21:02:03.000Z</time>
      </trkpt>
      <trkpt lat="48.84231" lon="2.33495">
        <ele>61.799999237061</ele>
        <time>2015-10-26T21:02:05.000Z</time>
      </trkpt>
      <trkpt lat="48.84256" lon="2.33475">
        <ele>59.799999237061</ele>
        <time>2015-10-26T21:02:10.000Z</time>
      </trkpt>
      <trkpt lat="48.84261" lon="2.3347">
        <ele>59.799999237061</ele>
        <time>2015-10-26T21:02:11.000Z</time>
      </trkpt>
      <trkpt lat="48.84276" lon="2.33453">
        <ele>59.799999237061</ele>
        <time>2015-10-26T21:02:14.000Z</time>
      </trkpt>
      <trkpt lat="48.84295" lon="2.33435">
        <ele>58.599998474121</ele>
        <time>2015-10-26T21:02:17.000Z</time>
      </trkpt>
      <trkpt lat="48.84313" lon="2.33419">
        <ele>57.200000762939</ele>
        <time>2015-10-26T21:02:20.000Z</time>
      </trkpt>
      <trkpt lat="48.84318" lon="2.33414">
        <ele>56.799999237061</ele>
        <time>2015-10-26T21:02:21.000Z</time>
      </trkpt>
      <trkpt lat="48.84339" lon="2.33394">
        <ele>55.400001525879</ele>
        <time>2015-10-26T21:02:25.000Z</time>
      </trkpt>
      <trkpt lat="48.84343" lon="2.33387">
        <ele>55</ele>
        <time>2015-10-26T21:02:26.000Z</time>
      </trkpt>
      <trkpt lat="48.84362" lon="2.33363">
        <ele>54</ele>
        <time>2015-10-26T21:02:29.000Z</time>
      </trkpt>
      <trkpt lat="48.84368" lon="2.33357">
        <ele>53.799999237061</ele>
        <time>2015-10-26T21:02:30.000Z</time>
      </trkpt>
      <trkpt lat="48.84398" lon="2.33339">
        <ele>53.400001525879</ele>
        <time>2015-10-26T21:02:34.000Z</time>
      </trkpt>
      <trkpt lat="48.84406" lon="2.33334">
        <ele>53.400001525879</ele>
        <time>2015-10-26T21:02:35.000Z</time>
      </trkpt>
      <trkpt lat="48.84426" lon="2.33316">
        <ele>53.400001525879</ele>
        <time>2015-10-26T21:02:38.000Z</time>
      </trkpt>
      <trkpt lat="48.84446" lon="2.33296">
        <ele>53.799999237061</ele>
        <time>2015-10-26T21:02:41.000Z</time>
      </trkpt>
      <trkpt lat="48.84451" lon="2.33289">
        <ele>53.799999237061</ele>
        <time>2015-10-26T21:02:42.000Z</time>
      </trkpt>
      <trkpt lat="48.84467" lon="2.33273">
        <ele>54</ele>
        <time>2015-10-26T21:02:45.000Z</time>
      </trkpt>
      <trkpt lat="48.84471" lon="2.33269">
        <ele>53.799999237061</ele>
        <time>2015-10-26T21:02:46.000Z</time>
      </trkpt>
      <trkpt lat="48.84492" lon="2.33251">
        <ele>52.599998474121</ele>
        <time>2015-10-26T21:02:51.000Z</time>
      </trkpt>
      <trkpt lat="48.84496" lon="2.33247">
        <ele>52.200000762939</ele>
        <time>2015-10-26T21:02:52.000Z</time>
      </trkpt>
      <trkpt lat="48.84515" lon="2.33242">
        <ele>51.400001525879</ele>
        <time>2015-10-26T21:02:56.000Z</time>
      </trkpt>
      <trkpt lat="48.84519" lon="2.33241">
        <ele>51.400001525879</ele>
        <time>2015-10-26T21:02:57.000Z</time>
      </trkpt>
      <trkpt lat="48.84542" lon="2.33239">
        <ele>52.200000762939</ele>
        <time>2015-10-26T21:03:02.000Z</time>
      </trkpt>
      <trkpt lat="48.84561" lon="2.3324">
        <ele>52.799999237061</ele>
        <time>2015-10-26T21:03:05.000Z</time>
      </trkpt>
      <trkpt lat="48.84585" lon="2.33244">
        <ele>53.400001525879</ele>
        <time>2015-10-26T21:03:09.000Z</time>
      </trkpt>
      <trkpt lat="48.84596" lon="2.33245">
        <ele>53.799999237061</ele>
        <time>2015-10-26T21:03:11.000Z</time>
      </trkpt>
      <trkpt lat="48.84619" lon="2.33249">
        <ele>53.799999237061</ele>
        <time>2015-10-26T21:03:15.000Z</time>
      </trkpt>
      <trkpt lat="48.84648" lon="2.33253">
        <ele>53.599998474121</ele>
        <time>2015-10-26T21:03:20.000Z</time>
      </trkpt>
      <trkpt lat="48.84666" lon="2.33253">
        <ele>53.400001525879</ele>
        <time>2015-10-26T21:03:23.000Z</time>
      </trkpt>
      <trkpt lat="48.84681" lon="2.33253">
        <ele>53.400001525879</ele>
        <time>2015-10-26T21:03:26.000Z</time>
      </trkpt>
      <trkpt lat="48.84695" lon="2.33249">
        <ele>53.799999237061</ele>
        <time>2015-10-26T21:03:28.000Z</time>
      </trkpt>
      <trkpt lat="48.8472" lon="2.33248">
        <ele>52.799999237061</ele>
        <time>2015-10-26T21:03:32.000Z</time>
      </trkpt>
      <trkpt lat="48.8474" lon="2.33248">
        <ele>52.200000762939</ele>
        <time>2015-10-26T21:03:35.000Z</time>
      </trkpt>
      <trkpt lat="48.8476" lon="2.33248">
        <ele>51.400001525879</ele>
        <time>2015-10-26T21:03:38.000Z</time>
      </trkpt>
      <trkpt lat="48.84767" lon="2.33249">
        <ele>51.200000762939</ele>
        <time>2015-10-26T21:03:39.000Z</time>
      </trkpt>
      <trkpt lat="48.84794" lon="2.33254">
        <ele>51.200000762939</ele>
        <time>2015-10-26T21:03:43.000Z</time>
      </trkpt>
      <trkpt lat="48.84813" lon="2.33257">
        <ele>51.400001525879</ele>
        <time>2015-10-26T21:03:46.000Z</time>
      </trkpt>
      <trkpt lat="48.8482" lon="2.33256">
        <ele>51.400001525879</ele>
        <time>2015-10-26T21:03:47.000Z</time>
      </trkpt>
      <trkpt lat="48.84827" lon="2.33257">
        <ele>51.599998474121</ele>
        <time>2015-10-26T21:03:48.000Z</time>
      </trkpt>
      <trkpt lat="48.84835" lon="2.33257">
        <ele>51.599998474121</ele>
        <time>2015-10-26T21:03:49.000Z</time>
      </trkpt>
      <trkpt lat="48.84864" lon="2.33274">
        <ele>51.799999237061</ele>
        <time>2015-10-26T21:03:53.000Z</time>
      </trkpt>
      <trkpt lat="48.8487" lon="2.3328">
        <ele>51.799999237061</ele>
        <time>2015-10-26T21:03:54.000Z</time>
      </trkpt>
      <trkpt lat="48.8488" lon="2.33302">
        <ele>51.599998474121</ele>
        <time>2015-10-26T21:03:57.000Z</time>
      </trkpt>
      <trkpt lat="48.84882" lon="2.33311">
        <ele>51.599998474121</ele>
        <time>2015-10-26T21:03:58.000Z</time>
      </trkpt>
      <trkpt lat="48.8489" lon="2.33344">
        <ele>51</ele>
        <time>2015-10-26T21:04:02.000Z</time>
      </trkpt>
      <trkpt lat="48.84895" lon="2.33371">
        <ele>50</ele>
        <time>2015-10-26T21:04:05.000Z</time>
      </trkpt>
      <trkpt lat="48.84896" lon="2.33379">
        <ele>49.599998474121</ele>
        <time>2015-10-26T21:04:06.000Z</time>
      </trkpt>
      <trkpt lat="48.84899" lon="2.33393">
        <ele>49</ele>
        <time>2015-10-26T21:04:08.000Z</time>
      </trkpt>
      <trkpt lat="48.84902" lon="2.33416">
        <ele>48</ele>
        <time>2015-10-26T21:04:11.000Z</time>
      </trkpt>
      <trkpt lat="48.84903" lon="2.33426">
        <ele>47.799999237061</ele>
        <time>2015-10-26T21:04:12.000Z</time>
      </trkpt>
      <trkpt lat="48.84905" lon="2.33442">
        <ele>47.200000762939</ele>
        <time>2015-10-26T21:04:14.000Z</time>
      </trkpt>
      <trkpt lat="48.8491" lon="2.33482">
        <ele>46.599998474121</ele>
        <time>2015-10-26T21:04:19.000Z</time>
      </trkpt>
      <trkpt lat="48.84911" lon="2.33491">
        <ele>46.799999237061</ele>
        <time>2015-10-26T21:04:20.000Z</time>
      </trkpt>
      <trkpt lat="48.84917" lon="2.33518">
        <ele>48</ele>
        <time>2015-10-26T21:04:23.000Z</time>
      </trkpt>
      <trkpt lat="48.84921" lon="2.33546">
        <ele>49.599998474121</ele>
        <time>2015-10-26T21:04:26.000Z</time>
      </trkpt>
      <trkpt lat="48.84922" lon="2.33557">
        <ele>50.200000762939</ele>
        <time>2015-10-26T21:04:27.000Z</time>
      </trkpt>
      <trkpt lat="48.84926" lon="2.33588">
        <ele>51</ele>
        <time>2015-10-26T21:04:30.000Z</time>
      </trkpt>
      <trkpt lat="48.84928" lon="2.33618">
        <ele>51.400001525879</ele>
        <time>2015-10-26T21:04:33.000Z</time>
      </trkpt>
      <trkpt lat="48.84929" lon="2.33651">
        <ele>51.799999237061</ele>
        <time>2015-10-26T21:04:36.000Z</time>
      </trkpt>
      <trkpt lat="48.84929" lon="2.33674">
        <ele>52.200000762939</ele>
        <time>2015-10-26T21:04:38.000Z</time>
      </trkpt>
      <trkpt lat="48.84932" lon="2.33721">
        <ele>52</ele>
        <time>2015-10-26T21:04:42.000Z</time>
      </trkpt>
      <trkpt lat="48.84933" lon="2.33755">
        <ele>52</ele>
        <time>2015-10-26T21:04:45.000Z</time>
      </trkpt>
      <trkpt lat="48.84933" lon="2.33767">
        <ele>51.599998474121</ele>
        <time>2015-10-26T21:04:46.000Z</time>
      </trkpt>
      <trkpt lat="48.84931" lon="2.3379">
        <ele>50.799999237061</ele>
        <time>2015-10-26T21:04:48.000Z</time>
      </trkpt>
      <trkpt lat="48.84926" lon="2.3383">
        <ele>50.400001525879</ele>
        <time>2015-10-26T21:04:52.000Z</time>
      </trkpt>
      <trkpt lat="48.84925" lon="2.33838">
        <ele>51.200000762939</ele>
        <time>2015-10-26T21:04:53.000Z</time>
      </trkpt>
      <trkpt lat="48.84924" lon="2.33845">
        <ele>51.799999237061</ele>
        <time>2015-10-26T21:04:54.000Z</time>
      </trkpt>
      <trkpt lat="48.84917" lon="2.33875">
        <ele>55.200000762939</ele>
        <time>2015-10-26T21:05:00.000Z</time>
      </trkpt>
      <trkpt lat="48.84916" lon="2.33877">
        <ele>55.400001525879</ele>
        <time>2015-10-26T21:05:01.000Z</time>
      </trkpt>
      <trkpt lat="48.84915" lon="2.33881">
        <ele>55.799999237061</ele>
        <time>2015-10-26T21:05:04.000Z</time>
      </trkpt>
      <trkpt lat="48.84915" lon="2.3388">
        <ele>55.799999237061</ele>
        <time>2015-10-26T21:05:13.000Z</time>
      </trkpt>
      <trkpt lat="48.84912" lon="2.33881">
        <ele>56.200000762939</ele>
        <time>2015-10-26T21:05:27.000Z</time>
      </trkpt>
      <trkpt lat="48.8491" lon="2.33886">
        <ele>56.799999237061</ele>
        <time>2015-10-26T21:06:21.000Z</time>
      </trkpt>
      <trkpt lat="48.84911" lon="2.33905">
        <ele>57.799999237061</ele>
        <time>2015-10-26T21:06:26.000Z</time>
      </trkpt>
      <trkpt lat="48.84913" lon="2.33929">
        <ele>59.200000762939</ele>
        <time>2015-10-26T21:06:30.000Z</time>
      </trkpt>
      <trkpt lat="48.8491" lon="2.33952">
        <ele>60.799999237061</ele>
        <time>2015-10-26T21:06:33.000Z</time>
      </trkpt>
      <trkpt lat="48.84908" lon="2.33968">
        <ele>61.799999237061</ele>
        <time>2015-10-26T21:06:35.000Z</time>
      </trkpt>
      <trkpt lat="48.84906" lon="2.33976">
        <ele>61.799999237061</ele>
        <time>2015-10-26T21:06:36.000Z</time>
      </trkpt>
      <trkpt lat="48.84898" lon="2.34014">
        <ele>61</ele>
        <time>2015-10-26T21:06:41.000Z</time>
      </trkpt>
      <trkpt lat="48.84894" lon="2.34024">
        <ele>60.400001525879</ele>
        <time>2015-10-26T21:06:43.000Z</time>
      </trkpt>
      <trkpt lat="48.84892" lon="2.34038">
        <ele>59.799999237061</ele>
        <time>2015-10-26T21:06:49.000Z</time>
      </trkpt>
      <trkpt lat="48.84892" lon="2.34039">
        <ele>59.799999237061</ele>
        <time>2015-10-26T21:06:50.000Z</time>
      </trkpt>
      <trkpt lat="48.84891" lon="2.34039">
        <ele>59.799999237061</ele>
        <time>2015-10-26T21:06:51.000Z</time>
      </trkpt>
      <trkpt lat="48.84888" lon="2.3404">
        <ele>60</ele>
        <time>2015-10-26T21:06:53.000Z</time>
      </trkpt>
      <trkpt lat="48.84883" lon="2.34044">
        <ele>60</ele>
        <time>2015-10-26T21:06:57.000Z</time>
      </trkpt>
      <trkpt lat="48.84865" lon="2.34056">
        <ele>60.400001525879</ele>
        <time>2015-10-26T21:07:02.000Z</time>
      </trkpt>
      <trkpt lat="48.84854" lon="2.34062">
        <ele>60.599998474121</ele>
        <time>2015-10-26T21:07:05.000Z</time>
      </trkpt>
      <trkpt lat="48.8484" lon="2.34067">
        <ele>59.200000762939</ele>
        <time>2015-10-26T21:07:09.000Z</time>
      </trkpt>
      <trkpt lat="48.84827" lon="2.34072">
        <ele>59</ele>
        <time>2015-10-26T21:07:13.000Z</time>
      </trkpt>
      <trkpt lat="48.84822" lon="2.34073">
        <ele>59</ele>
        <time>2015-10-26T21:07:15.000Z</time>
      </trkpt>
      <trkpt lat="48.84806" lon="2.34085">
        <ele>58.799999237061</ele>
        <time>2015-10-26T21:07:20.000Z</time>
      </trkpt>
      <trkpt lat="48.84791" lon="2.34096">
        <ele>58.599998474121</ele>
        <time>2015-10-26T21:07:24.000Z</time>
      </trkpt>
      <trkpt lat="48.8478" lon="2.34102">
        <ele>58.599998474121</ele>
        <time>2015-10-26T21:07:27.000Z</time>
      </trkpt>
      <trkpt lat="48.84764" lon="2.34104">
        <ele>58.799999237061</ele>
        <time>2015-10-26T21:07:35.000Z</time>
      </trkpt>
      <trkpt lat="48.84762" lon="2.34121">
        <ele>59.400001525879</ele>
        <time>2015-10-26T21:08:17.000Z</time>
      </trkpt>
      <trkpt lat="48.84774" lon="2.34128">
        <ele>59.200000762939</ele>
        <time>2015-10-26T21:08:22.000Z</time>
      </trkpt>
      <trkpt lat="48.84792" lon="2.34137">
        <ele>59.599998474121</ele>
        <time>2015-10-26T21:08:27.000Z</time>
      </trkpt>
      <trkpt lat="48.84808" lon="2.34146">
        <ele>60</ele>
        <time>2015-10-26T21:08:31.000Z</time>
      </trkpt>
      <trkpt lat="48.84833" lon="2.34158">
        <ele>60.599998474121</ele>
        <time>2015-10-26T21:08:36.000Z</time>
      </trkpt>
      <trkpt lat="48.84837" lon="2.34159">
        <ele>60.599998474121</ele>
        <time>2015-10-26T21:08:37.000Z</time>
      </trkpt>
      <trkpt lat="48.84843" lon="2.34161">
        <ele>60.799999237061</ele>
        <time>2015-10-26T21:08:38.000Z</time>
      </trkpt>
      <trkpt lat="48.84859" lon="2.34171">
        <ele>61</ele>
        <time>2015-10-26T21:08:41.000Z</time>
      </trkpt>
      <trkpt lat="48.84886" lon="2.34186">
        <ele>59.400001525879</ele>
        <time>2015-10-26T21:08:46.000Z</time>
      </trkpt>
      <trkpt lat="48.84892" lon="2.3419">
        <ele>59.200000762939</ele>
        <time>2015-10-26T21:08:47.000Z</time>
      </trkpt>
      <trkpt lat="48.84898" lon="2.34195">
        <ele>58.799999237061</ele>
        <time>2015-10-26T21:08:48.000Z</time>
      </trkpt>
      <trkpt lat="48.84908" lon="2.34205">
        <ele>58.400001525879</ele>
        <time>2015-10-26T21:08:50.000Z</time>
      </trkpt>
      <trkpt lat="48.84929" lon="2.34217">
        <ele>57.200000762939</ele>
        <time>2015-10-26T21:08:53.000Z</time>
      </trkpt>
      <trkpt lat="48.84935" lon="2.3422">
        <ele>57</ele>
        <time>2015-10-26T21:08:54.000Z</time>
      </trkpt>
      <trkpt lat="48.84944" lon="2.34227">
        <ele>56.599998474121</ele>
        <time>2015-10-26T21:08:55.000Z</time>
      </trkpt>
      <trkpt lat="48.84952" lon="2.34233">
        <ele>56.200000762939</ele>
        <time>2015-10-26T21:08:56.000Z</time>
      </trkpt>
      <trkpt lat="48.8497" lon="2.34243">
        <ele>55.400001525879</ele>
        <time>2015-10-26T21:08:58.000Z</time>
      </trkpt>
      <trkpt lat="48.84995" lon="2.3426">
        <ele>54.400001525879</ele>
        <time>2015-10-26T21:09:01.000Z</time>
      </trkpt>
      <trkpt lat="48.85016" lon="2.3427">
        <ele>53.599998474121</ele>
        <time>2015-10-26T21:09:03.000Z</time>
      </trkpt>
      <trkpt lat="48.85037" lon="2.34278">
        <ele>52.200000762939</ele>
        <time>2015-10-26T21:09:05.000Z</time>
      </trkpt>
      <trkpt lat="48.85058" lon="2.34288">
        <ele>50.599998474121</ele>
        <time>2015-10-26T21:09:07.000Z</time>
      </trkpt>
      <trkpt lat="48.85078" lon="2.34298">
        <ele>49.200000762939</ele>
        <time>2015-10-26T21:09:09.000Z</time>
      </trkpt>
      <trkpt lat="48.85097" lon="2.34308">
        <ele>48</ele>
        <time>2015-10-26T21:09:11.000Z</time>
      </trkpt>
      <trkpt lat="48.8512" lon="2.34322">
        <ele>47.599998474121</ele>
        <time>2015-10-26T21:09:14.000Z</time>
      </trkpt>
      <trkpt lat="48.85145" lon="2.34334">
        <ele>48</ele>
        <time>2015-10-26T21:09:17.000Z</time>
      </trkpt>
      <trkpt lat="48.85168" lon="2.34344">
        <ele>48.400001525879</ele>
        <time>2015-10-26T21:09:20.000Z</time>
      </trkpt>
      <trkpt lat="48.85201" lon="2.34356">
        <ele>49.200000762939</ele>
        <time>2015-10-26T21:09:24.000Z</time>
      </trkpt>
      <trkpt lat="48.85226" lon="2.34364">
        <ele>49.799999237061</ele>
        <time>2015-10-26T21:09:27.000Z</time>
      </trkpt>
      <trkpt lat="48.85249" lon="2.34373">
        <ele>50</ele>
        <time>2015-10-26T21:09:30.000Z</time>
      </trkpt>
      <trkpt lat="48.85272" lon="2.34381">
        <ele>50.200000762939</ele>
        <time>2015-10-26T21:09:33.000Z</time>
      </trkpt>
      <trkpt lat="48.85277" lon="2.34384">
        <ele>50</ele>
        <time>2015-10-26T21:09:34.000Z</time>
      </trkpt>
      <trkpt lat="48.85293" lon="2.34393">
        <ele>48.799999237061</ele>
        <time>2015-10-26T21:09:37.000Z</time>
      </trkpt>
      <trkpt lat="48.85318" lon="2.34403">
        <ele>47</ele>
        <time>2015-10-26T21:09:41.000Z</time>
      </trkpt>
      <trkpt lat="48.85336" lon="2.34407">
        <ele>45.599998474121</ele>
        <time>2015-10-26T21:09:44.000Z</time>
      </trkpt>
      <trkpt lat="48.85348" lon="2.34412">
        <ele>44.599998474121</ele>
        <time>2015-10-26T21:09:46.000Z</time>
      </trkpt>
      <trkpt lat="48.85367" lon="2.34429">
        <ele>43.599998474121</ele>
        <time>2015-10-26T21:09:51.000Z</time>
      </trkpt>
      <trkpt lat="48.85387" lon="2.34443">
        <ele>42.799999237061</ele>
        <time>2015-10-26T21:09:56.000Z</time>
      </trkpt>
      <trkpt lat="48.85391" lon="2.34446">
        <ele>42.599998474121</ele>
        <time>2015-10-26T21:09:57.000Z</time>
      </trkpt>
      <trkpt lat="48.85406" lon="2.34463">
        <ele>42.200000762939</ele>
        <time>2015-10-26T21:10:01.000Z</time>
      </trkpt>
      <trkpt lat="48.8541" lon="2.34467">
        <ele>42</ele>
        <time>2015-10-26T21:10:02.000Z</time>
      </trkpt>
      <trkpt lat="48.85427" lon="2.34484">
        <ele>41.400001525879</ele>
        <time>2015-10-26T21:10:06.000Z</time>
      </trkpt>
      <trkpt lat="48.85437" lon="2.34494">
        <ele>41</ele>
        <time>2015-10-26T21:10:09.000Z</time>
      </trkpt>
      <trkpt lat="48.85456" lon="2.34516">
        <ele>42.200000762939</ele>
        <time>2015-10-26T21:10:15.000Z</time>
      </trkpt>
      <trkpt lat="48.85462" lon="2.34531">
        <ele>42.599998474121</ele>
        <time>2015-10-26T21:10:19.000Z</time>
      </trkpt>
      <trkpt lat="48.85464" lon="2.34534">
        <ele>42.799999237061</ele>
        <time>2015-10-26T21:10:20.000Z</time>
      </trkpt>
      <trkpt lat="48.85467" lon="2.34537">
        <ele>43</ele>
        <time>2015-10-26T21:10:22.000Z</time>
      </trkpt>
      <trkpt lat="48.85471" lon="2.34537">
        <ele>43.400001525879</ele>
        <time>2015-10-26T21:10:30.000Z</time>
      </trkpt>
      <trkpt lat="48.85475" lon="2.34536">
        <ele>43.599998474121</ele>
        <time>2015-10-26T21:10:39.000Z</time>
      </trkpt>
      <trkpt lat="48.85483" lon="2.34548">
        <ele>44.200000762939</ele>
        <time>2015-10-26T21:10:44.000Z</time>
      </trkpt>
      <trkpt lat="48.85485" lon="2.34551">
        <ele>44.200000762939</ele>
        <time>2015-10-26T21:10:45.000Z</time>
      </trkpt>
      <trkpt lat="48.85498" lon="2.34569">
        <ele>45.200000762939</ele>
        <time>2015-10-26T21:10:49.000Z</time>
      </trkpt>
      <trkpt lat="48.85504" lon="2.34576">
        <ele>45.599998474121</ele>
        <time>2015-10-26T21:10:50.000Z</time>
      </trkpt>
      <trkpt lat="48.85514" lon="2.34586">
        <ele>46.400001525879</ele>
        <time>2015-10-26T21:10:52.000Z</time>
      </trkpt>
      <trkpt lat="48.85532" lon="2.346">
        <ele>47</ele>
        <time>2015-10-26T21:10:56.000Z</time>
      </trkpt>
      <trkpt lat="48.8555" lon="2.34609">
        <ele>47.400001525879</ele>
        <time>2015-10-26T21:10:59.000Z</time>
      </trkpt>
      <trkpt lat="48.85568" lon="2.34618">
        <ele>47.599998474121</ele>
        <time>2015-10-26T21:11:03.000Z</time>
      </trkpt>
      <trkpt lat="48.8558" lon="2.34626">
        <ele>47.599998474121</ele>
        <time>2015-10-26T21:11:06.000Z</time>
      </trkpt>
      <trkpt lat="48.8559" lon="2.3464">
        <ele>47.799999237061</ele>
        <time>2015-10-26T21:11:10.000Z</time>
      </trkpt>
      <trkpt lat="48.85607" lon="2.34654">
        <ele>48</ele>
        <time>2015-10-26T21:11:14.000Z</time>
      </trkpt>
      <trkpt lat="48.8561" lon="2.34657">
        <ele>47.599998474121</ele>
        <time>2015-10-26T21:11:15.000Z</time>
      </trkpt>
      <trkpt lat="48.85614" lon="2.34661">
        <ele>47.400001525879</ele>
        <time>2015-10-26T21:11:16.000Z</time>
      </trkpt>
      <trkpt lat="48.85618" lon="2.34663">
        <ele>47</ele>
        <time>2015-10-26T21:11:17.000Z</time>
      </trkpt>
      <trkpt lat="48.85626" lon="2.34671">
        <ele>46.200000762939</ele>
        <time>2015-10-26T21:11:21.000Z</time>
      </trkpt>
      <trkpt lat="48.85629" lon="2.34672">
        <ele>46</ele>
        <time>2015-10-26T21:11:22.000Z</time>
      </trkpt>
      <trkpt lat="48.85633" lon="2.34676">
        <ele>45.599998474121</ele>
        <time>2015-10-26T21:11:25.000Z</time>
      </trkpt>
      <trkpt lat="48.8565" lon="2.34683">
        <ele>44.400001525879</ele>
        <time>2015-10-26T21:11:32.000Z</time>
      </trkpt>
      <trkpt lat="48.85661" lon="2.34689">
        <ele>43.400001525879</ele>
        <time>2015-10-26T21:11:37.000Z</time>
      </trkpt>
      <trkpt lat="48.85673" lon="2.34698">
        <ele>42.400001525879</ele>
        <time>2015-10-26T21:11:43.000Z</time>
      </trkpt>
      <trkpt lat="48.85686" lon="2.34706">
        <ele>41.200000762939</ele>
        <time>2015-10-26T21:11:50.000Z</time>
      </trkpt>
      <trkpt lat="48.857" lon="2.34715">
        <ele>40.799999237061</ele>
        <time>2015-10-26T21:11:58.000Z</time>
      </trkpt>
      <trkpt lat="48.85704" lon="2.34719">
        <ele>40.799999237061</ele>
        <time>2015-10-26T21:12:02.000Z</time>
      </trkpt>
      <trkpt lat="48.85703" lon="2.34721">
        <ele>40.799999237061</ele>
        <time>2015-10-26T21:12:07.000Z</time>
      </trkpt>
      <trkpt lat="48.85699" lon="2.34721">
        <ele>40.799999237061</ele>
        <time>2015-10-26T21:14:44.000Z</time>
      </trkpt>
      <trkpt lat="48.857" lon="2.34718">
        <ele>40.799999237061</ele>
        <time>2015-10-26T21:15:18.000Z</time>
      </trkpt>
      <trkpt lat="48.85705" lon="2.34721">
        <ele>40.799999237061</ele>
        <time>2015-10-26T21:15:24.000Z</time>
      </trkpt>
      <trkpt lat="48.85707" lon="2.3472">
        <ele>40.799999237061</ele>
        <time>2015-10-26T21:15:25.000Z</time>
      </trkpt>
      <trkpt lat="48.85712" lon="2.34707">
        <ele>40.799999237061</ele>
        <time>2015-10-26T21:15:30.000Z</time>
      </trkpt>
      <trkpt lat="48.85716" lon="2.34695">
        <ele>40.599998474121</ele>
        <time>2015-10-26T21:15:35.000Z</time>
      </trkpt>
      <trkpt lat="48.85724" lon="2.34685">
        <ele>40</ele>
        <time>2015-10-26T21:15:41.000Z</time>
      </trkpt>
      <trkpt lat="48.85725" lon="2.34684">
        <ele>40</ele>
        <time>2015-10-26T21:15:42.000Z</time>
      </trkpt>
      <trkpt lat="48.85727" lon="2.3468">
        <ele>39.799999237061</ele>
        <time>2015-10-26T21:15:48.000Z</time>
      </trkpt>
      <trkpt lat="48.8573" lon="2.3468">
        <ele>39.599998474121</ele>
        <time>2015-10-26T21:16:00.000Z</time>
      </trkpt>
      <trkpt lat="48.85736" lon="2.34683">
        <ele>39.400001525879</ele>
        <time>2015-10-26T21:16:04.000Z</time>
      </trkpt>
      <trkpt lat="48.85739" lon="2.34683">
        <ele>39.400001525879</ele>
        <time>2015-10-26T21:16:05.000Z</time>
      </trkpt>
      <trkpt lat="48.85752" lon="2.3469">
        <ele>39</ele>
        <time>2015-10-26T21:16:09.000Z</time>
      </trkpt>
      <trkpt lat="48.85754" lon="2.34692">
        <ele>38.799999237061</ele>
        <time>2015-10-26T21:16:10.000Z</time>
      </trkpt>
      <trkpt lat="48.85765" lon="2.34699">
        <ele>38.599998474121</ele>
        <time>2015-10-26T21:16:13.000Z</time>
      </trkpt>
      <trkpt lat="48.85768" lon="2.347">
        <ele>38.599998474121</ele>
        <time>2015-10-26T21:16:14.000Z</time>
      </trkpt>
      <trkpt lat="48.85783" lon="2.34709">
        <ele>39.400001525879</ele>
        <time>2015-10-26T21:16:18.000Z</time>
      </trkpt>
      <trkpt lat="48.85799" lon="2.34717">
        <ele>41</ele>
        <time>2015-10-26T21:16:23.000Z</time>
      </trkpt>
      <trkpt lat="48.85816" lon="2.34722">
        <ele>42.799999237061</ele>
        <time>2015-10-26T21:16:27.000Z</time>
      </trkpt>
      <trkpt lat="48.8583" lon="2.34726">
        <ele>44</ele>
        <time>2015-10-26T21:16:30.000Z</time>
      </trkpt>
      <trkpt lat="48.85848" lon="2.34735">
        <ele>46.200000762939</ele>
        <time>2015-10-26T21:16:35.000Z</time>
      </trkpt>
      <trkpt lat="48.85863" lon="2.34738">
        <ele>47</ele>
        <time>2015-10-26T21:16:38.000Z</time>
      </trkpt>
      <trkpt lat="48.85872" lon="2.34738">
        <ele>46.599998474121</ele>
        <time>2015-10-26T21:16:40.000Z</time>
      </trkpt>
      <trkpt lat="48.85889" lon="2.34735">
        <ele>46.200000762939</ele>
        <time>2015-10-26T21:16:44.000Z</time>
      </trkpt>
      <trkpt lat="48.85898" lon="2.34729">
        <ele>46</ele>
        <time>2015-10-26T21:16:46.000Z</time>
      </trkpt>
      <trkpt lat="48.85906" lon="2.34724">
        <ele>45.799999237061</ele>
        <time>2015-10-26T21:16:48.000Z</time>
      </trkpt>
      <trkpt lat="48.85919" lon="2.34712">
        <ele>45.799999237061</ele>
        <time>2015-10-26T21:16:52.000Z</time>
      </trkpt>
      <trkpt lat="48.85925" lon="2.34706">
        <ele>45.799999237061</ele>
        <time>2015-10-26T21:16:54.000Z</time>
      </trkpt>
      <trkpt lat="48.85938" lon="2.34703">
        <ele>45.599998474121</ele>
        <time>2015-10-26T21:16:59.000Z</time>
      </trkpt>
      <trkpt lat="48.85944" lon="2.34706">
        <ele>45.599998474121</ele>
        <time>2015-10-26T21:17:02.000Z</time>
      </trkpt>
      <trkpt lat="48.85947" lon="2.34712">
        <ele>45.400001525879</ele>
        <time>2015-10-26T21:17:06.000Z</time>
      </trkpt>
      <trkpt lat="48.85947" lon="2.34713">
        <ele>45.400001525879</ele>
        <time>2015-10-26T21:17:07.000Z</time>
      </trkpt>
    </trkseg>
  </trk>
</gpx>